Wetterdaten: Montag, 02.04.2018
Datum Zeit Temp. A. Feuchte A. Luftdruck Regen Wind Richtung Richtung Sonnenschein ET UV Solar Taupunkt Windchill Windböen
02.04.2018 00:00 2,0 °C 86 % 1015,1 hPa 0,0 mm 16,6 km/h (3 Bft) W 267 ° 0 min 0,000 mm 0,0 UV-I 0 W/m² -0,1 °C -2,2 °C 20,9 km/h (4 Bft)
02.04.2018 00:01 1,9 °C 86 % 1015,2 hPa 0,0 mm 9,3 km/h (2 Bft) W-SW 239 ° 0 min 0,000 mm 0,0 UV-I 0 W/m² -0,2 °C -0,9 °C 14,5 km/h (3 Bft)
02.04.2018 00:02 1,9 °C 86 % 1015,1 hPa 0,0 mm 12,1 km/h (2 Bft) W 277 ° 0 min 0,000 mm 0,0 UV-I 0 W/m² -0,2 °C -1,5 °C 17,7 km/h (3 Bft)
02.04.2018 00:03 1,9 °C 86 % 1015,1 hPa 0,0 mm 17,6 km/h (3 Bft) W 264 ° 0 min 0,000 mm 0,0 UV-I 0 W/m² -0,2 °C -2,5 °C 24,1 km/h (4 Bft)
02.04.2018 00:04 1,9 °C 85 % 1015,1 hPa 0,0 mm 13,5 km/h (3 Bft) W-SW 250 ° 0 min 0,000 mm 0,0 UV-I 0 W/m² -0,3 °C -1,8 °C 20,9 km/h (4 Bft)
02.04.2018 00:05 2,0 °C 85 % 1015,2 hPa 0,0 mm 9,6 km/h (2 Bft) W 265 ° 0 min 0,000 mm 0,0 UV-I 0 W/m² -0,3 °C -0,8 °C 12,9 km/h (3 Bft)
02.04.2018 00:06 2,0 °C 85 % 1015,1 hPa 0,0 mm 8,6 km/h (2 Bft) W 264 ° 0 min 0,000 mm 0,0 UV-I 0 W/m² -0,3 °C -0,6 °C 11,3 km/h (2 Bft)
02.04.2018 00:07 2,0 °C 85 % 1015,1 hPa 0,0 mm 10,3 km/h (2 Bft) W 260 ° 0 min 0,000 mm 0,0 UV-I 0 W/m² -0,3 °C -1,0 °C 14,5 km/h (3 Bft)
02.04.2018 00:08 2,0 °C 85 % 1015,1 hPa 0,0 mm 8,6 km/h (2 Bft) W-SW 248 ° 0 min 0,000 mm 0,0 UV-I 0 W/m² -0,3 °C -0,6 °C 11,3 km/h (2 Bft)
02.04.2018 00:09 1,9 °C 85 % 1015,1 hPa 0,0 mm 6,6 km/h (2 Bft) W 274 ° 0 min 0,000 mm 0,0 UV-I 0 W/m² -0,3 °C -0,1 °C 12,9 km/h (3 Bft)
02.04.2018 00:10 1,9 °C 85 % 1015,1 hPa 0,0 mm 5,8 km/h (2 Bft) W-SW 258 ° 0 min 0,000 mm 0,0 UV-I 0 W/m² -0,3 °C 0,2 °C 9,7 km/h (2 Bft)
02.04.2018 00:11 1,9 °C 85 % 1015,1 hPa 0,0 mm 9,5 km/h (2 Bft) W-SW 240 ° 0 min 0,000 mm 0,0 UV-I 0 W/m² -0,3 °C -0,9 °C 14,5 km/h (3 Bft)
02.04.2018 00:12 1,9 °C 85 % 1015,1 hPa 0,0 mm 6,5 km/h (2 Bft) W 259 ° 0 min 0,000 mm 0,0 UV-I 0 W/m² -0,3 °C -0,0 °C 9,7 km/h (2 Bft)
02.04.2018 00:13 1,9 °C 85 % 1015,1 hPa 0,0 mm 6,2 km/h (2 Bft) W-SW 257 ° 0 min 0,000 mm 0,0 UV-I 0 W/m² -0,3 °C 0,1 °C 12,9 km/h (3 Bft)
02.04.2018 00:14 1,9 °C 85 % 1015,1 hPa 0,0 mm 6,2 km/h (2 Bft) W 267 ° 0 min 0,000 mm 0,0 UV-I 0 W/m² -0,3 °C 0,1 °C 9,7 km/h (2 Bft)
02.04.2018 00:15 1,8 °C 85 % 1015,2 hPa 0,0 mm 4,5 km/h (1 Bft) W-SW 248 ° 0 min 0,000 mm 0,0 UV-I 0 W/m² -0,4 °C 1,8 °C 8,0 km/h (2 Bft)
02.04.2018 00:16 1,8 °C 85 % 1015,1 hPa 0,0 mm 2,7 km/h (1 Bft) W-SW 248 ° 0 min 0,000 mm 0,0 UV-I 0 W/m² -0,4 °C 1,8 °C 4,8 km/h (1 Bft)
02.04.2018 00:17 1,8 °C 85 % 1015,1 hPa 0,0 mm 4,4 km/h (1 Bft) SW 230 ° 0 min 0,000 mm 0,0 UV-I 0 W/m² -0,4 °C 1,8 °C 9,7 km/h (2 Bft)
02.04.2018 00:18 1,8 °C 85 % 1015,1 hPa 0,0 mm 5,6 km/h (1 Bft) W 265 ° 0 min 0,000 mm 0,0 UV-I 0 W/m² -0,4 °C 0,2 °C 11,3 km/h (2 Bft)
02.04.2018 00:19 1,8 °C 85 % 1015,1 hPa 0,0 mm 6,1 km/h (2 Bft) W 264 ° 0 min 0,000 mm 0,0 UV-I 0 W/m² -0,4 °C 0,0 °C 12,9 km/h (3 Bft)
02.04.2018 00:20 1,8 °C 86 % 1015,1 hPa 0,0 mm 3,8 km/h (1 Bft) W-SW 244 ° 0 min 0,000 mm 0,0 UV-I 0 W/m² -0,3 °C 1,8 °C 9,7 km/h (2 Bft)
02.04.2018 00:21 1,7 °C 86 % 1015,2 hPa 0,0 mm 1,9 km/h (1 Bft) W-SW 253 ° 0 min 0,000 mm 0,0 UV-I 0 W/m² -0,4 °C 1,7 °C 3,2 km/h (1 Bft)
02.04.2018 00:22 1,7 °C 86 % 1015,1 hPa 0,0 mm 3,0 km/h (1 Bft) W 269 ° 0 min 0,000 mm 0,0 UV-I 0 W/m² -0,4 °C 1,7 °C 4,8 km/h (1 Bft)
02.04.2018 00:23 1,7 °C 86 % 1015,1 hPa 0,0 mm 3,6 km/h (1 Bft) W-SW 243 ° 0 min 0,000 mm 0,0 UV-I 0 W/m² -0,4 °C 1,7 °C 4,8 km/h (1 Bft)
02.04.2018 00:24 1,7 °C 86 % 1015,1 hPa 0,0 mm 3,2 km/h (1 Bft) W-SW 242 ° 0 min 0,000 mm 0,0 UV-I 0 W/m² -0,4 °C 1,7 °C 6,4 km/h (2 Bft)
02.04.2018 00:25 1,7 °C 86 % 1015,1 hPa 0,0 mm 3,8 km/h (1 Bft) W 269 ° 0 min 0,000 mm 0,0 UV-I 0 W/m² -0,4 °C 1,7 °C 6,4 km/h (2 Bft)
02.04.2018 00:26 1,7 °C 86 % 1015,1 hPa 0,0 mm 5,6 km/h (1 Bft) S-SW 207 ° 0 min 0,000 mm 0,0 UV-I 0 W/m² -0,4 °C 0,1 °C 9,7 km/h (2 Bft)
02.04.2018 00:27 1,8 °C 85 % 1015,1 hPa 0,0 mm 4,2 km/h (1 Bft) SW 216 ° 0 min 0,000 mm 0,0 UV-I 0 W/m² -0,4 °C 1,8 °C 6,4 km/h (2 Bft)
02.04.2018 00:28 1,8 °C 85 % 1015,1 hPa 0,0 mm 3,4 km/h (1 Bft) W-SW 244 ° 0 min 0,000 mm 0,0 UV-I 0 W/m² -0,4 °C 1,8 °C 8,0 km/h (2 Bft)
02.04.2018 00:29 1,8 °C 85 % 1015,1 hPa 0,0 mm 2,8 km/h (1 Bft) W-SW 254 ° 0 min 0,000 mm 0,0 UV-I 0 W/m² -0,4 °C 1,8 °C 4,8 km/h (1 Bft)
02.04.2018 00:30 1,8 °C 85 % 1015,1 hPa 0,0 mm 7,0 km/h (2 Bft) W 263 ° 0 min 0,000 mm 0,0 UV-I 0 W/m² -0,4 °C -0,3 °C 12,9 km/h (3 Bft)
02.04.2018 00:31 1,8 °C 85 % 1015,1 hPa 0,0 mm 6,6 km/h (2 Bft) SW 232 ° 0 min 0,000 mm 0,0 UV-I 0 W/m² -0,4 °C -0,2 °C 9,7 km/h (2 Bft)
02.04.2018 00:32 1,8 °C 85 % 1015,1 hPa 0,0 mm 2,9 km/h (1 Bft) SW 230 ° 0 min 0,000 mm 0,0 UV-I 0 W/m² -0,4 °C 1,8 °C 6,4 km/h (2 Bft)
02.04.2018 00:33 1,8 °C 85 % 1015,1 hPa 0,0 mm 2,8 km/h (1 Bft) W-SW 249 ° 0 min 0,000 mm 0,0 UV-I 0 W/m² -0,4 °C 1,8 °C 4,8 km/h (1 Bft)
02.04.2018 00:34 1,8 °C 85 % 1015,1 hPa 0,0 mm 3,0 km/h (1 Bft) W 268 ° 0 min 0,000 mm 0,0 UV-I 0 W/m² -0,4 °C 1,8 °C 4,8 km/h (1 Bft)
02.04.2018 00:35 1,8 °C 85 % 1015,1 hPa 0,0 mm 4,7 km/h (1 Bft) W-SW 239 ° 0 min 0,000 mm 0,0 UV-I 0 W/m² -0,4 °C 0,6 °C 6,4 km/h (2 Bft)
02.04.2018 00:36 1,8 °C 85 % 1015,1 hPa 0,0 mm 3,8 km/h (1 Bft) W-SW 246 ° 0 min 0,000 mm 0,0 UV-I 0 W/m² -0,4 °C 1,8 °C 4,8 km/h (1 Bft)
02.04.2018 00:37 1,8 °C 84 % 1015,1 hPa 0,0 mm 2,9 km/h (1 Bft) W-SW 246 ° 0 min 0,000 mm 0,0 UV-I 0 W/m² -0,6 °C 1,8 °C 4,8 km/h (1 Bft)
02.04.2018 00:38 1,8 °C 84 % 1015,1 hPa 0,0 mm 3,0 km/h (1 Bft) W-SW 248 ° 0 min 0,000 mm 0,0 UV-I 0 W/m² -0,6 °C 1,8 °C 6,4 km/h (2 Bft)
02.04.2018 00:39 1,8 °C 84 % 1015,1 hPa 0,0 mm 3,2 km/h (1 Bft) SW 223 ° 0 min 0,000 mm 0,0 UV-I 0 W/m² -0,6 °C 1,8 °C 4,8 km/h (1 Bft)
02.04.2018 00:40 1,8 °C 84 % 1015,1 hPa 0,0 mm 2,7 km/h (1 Bft) W-SW 238 ° 0 min 0,000 mm 0,0 UV-I 0 W/m² -0,6 °C 1,8 °C 4,8 km/h (1 Bft)
02.04.2018 00:41 1,8 °C 84 % 1015,1 hPa 0,0 mm 3,8 km/h (1 Bft) SW 225 ° 0 min 0,000 mm 0,0 UV-I 0 W/m² -0,6 °C 1,8 °C 6,4 km/h (2 Bft)
02.04.2018 00:42 1,8 °C 84 % 1015,1 hPa 0,0 mm 5,0 km/h (1 Bft) W-SW 248 ° 0 min 0,000 mm 0,0 UV-I 0 W/m² -0,6 °C 0,5 °C 8,0 km/h (2 Bft)
02.04.2018 00:43 1,8 °C 84 % 1015,1 hPa 0,0 mm 3,5 km/h (1 Bft) SW 228 ° 0 min 0,000 mm 0,0 UV-I 0 W/m² -0,6 °C 1,8 °C 4,8 km/h (1 Bft)
02.04.2018 00:44 1,8 °C 84 % 1015,1 hPa 0,0 mm 3,8 km/h (1 Bft) SW 219 ° 0 min 0,000 mm 0,0 UV-I 0 W/m² -0,6 °C 1,8 °C 6,4 km/h (2 Bft)
02.04.2018 00:45 1,8 °C 84 % 1015,1 hPa 0,0 mm 3,3 km/h (1 Bft) W 261 ° 0 min 0,000 mm 0,0 UV-I 0 W/m² -0,6 °C 1,8 °C 4,8 km/h (1 Bft)
02.04.2018 00:46 1,8 °C 84 % 1015,1 hPa 0,0 mm 3,9 km/h (1 Bft) SW 219 ° 0 min 0,000 mm 0,0 UV-I 0 W/m² -0,6 °C 1,8 °C 6,4 km/h (2 Bft)
02.04.2018 00:47 1,8 °C 84 % 1015,0 hPa 0,0 mm 2,5 km/h (1 Bft) SW 219 ° 0 min 0,000 mm 0,0 UV-I 0 W/m² -0,6 °C 1,8 °C 6,4 km/h (2 Bft)
02.04.2018 00:48 1,8 °C 84 % 1015,1 hPa 0,0 mm 2,1 km/h (1 Bft) SW 219 ° 0 min 0,000 mm 0,0 UV-I 0 W/m² -0,6 °C 1,8 °C 3,2 km/h (1 Bft)
02.04.2018 00:49 1,8 °C 84 % 1015,1 hPa 0,0 mm 3,1 km/h (1 Bft) SW 221 ° 0 min 0,000 mm 0,0 UV-I 0 W/m² -0,6 °C 1,8 °C 4,8 km/h (1 Bft)
02.04.2018 00:50 1,8 °C 84 % 1015,1 hPa 0,0 mm 2,1 km/h (1 Bft) SW 221 ° 0 min 0,000 mm 0,0 UV-I 0 W/m² -0,6 °C 1,8 °C 4,8 km/h (1 Bft)
02.04.2018 00:51 1,8 °C 84 % 1015,1 hPa 0,0 mm 1,9 km/h (1 Bft) SW 221 ° 0 min 0,000 mm 0,0 UV-I 0 W/m² -0,6 °C 1,8 °C 3,2 km/h (1 Bft)
02.04.2018 00:52 1,8 °C 84 % 1015,1 hPa 0,0 mm 1,7 km/h (1 Bft) SW 221 ° 0 min 0,000 mm 0,0 UV-I 0 W/m² -0,6 °C 1,8 °C 4,8 km/h (1 Bft)
02.04.2018 00:53 1,7 °C 84 % 1015,1 hPa 0,0 mm 2,3 km/h (1 Bft) SW 234 ° 0 min 0,000 mm 0,0 UV-I 0 W/m² -0,7 °C 1,7 °C 4,8 km/h (1 Bft)
02.04.2018 00:54 1,7 °C 84 % 1015,1 hPa 0,0 mm 2,5 km/h (1 Bft) SW 228 ° 0 min 0,000 mm 0,0 UV-I 0 W/m² -0,7 °C 1,7 °C 4,8 km/h (1 Bft)
02.04.2018 00:55 1,7 °C 84 % 1015,1 hPa 0,0 mm 2,1 km/h (1 Bft) SW 228 ° 0 min 0,000 mm 0,0 UV-I 0 W/m² -0,7 °C 1,7 °C 3,2 km/h (1 Bft)
02.04.2018 00:56 1,7 °C 84 % 1015,1 hPa 0,0 mm 4,0 km/h (1 Bft) SW 236 ° 0 min 0,000 mm 0,0 UV-I 0 W/m² -0,7 °C 1,7 °C 6,4 km/h (2 Bft)
02.04.2018 00:57 1,7 °C 84 % 1015,1 hPa 0,0 mm 2,4 km/h (1 Bft) W-SW 240 ° 0 min 0,000 mm 0,0 UV-I 0 W/m² -0,7 °C 1,7 °C 4,8 km/h (1 Bft)
02.04.2018 00:58 1,7 °C 84 % 1015,1 hPa 0,0 mm 3,6 km/h (1 Bft) SW 232 ° 0 min 0,000 mm 0,0 UV-I 0 W/m² -0,7 °C 1,7 °C 4,8 km/h (1 Bft)
02.04.2018 00:59 1,7 °C 84 % 1015,1 hPa 0,0 mm 0,6 km/h (0 Bft) SW 232 ° 0 min 0,000 mm 0,0 UV-I 0 W/m² -0,7 °C 1,7 °C 3,2 km/h (1 Bft)
02.04.2018 01:00 1,7 °C 84 % 1015,1 hPa 0,0 mm 3,6 km/h (1 Bft) SW 225 ° 0 min 0,000 mm 0,0 UV-I 0 W/m² -0,7 °C 1,7 °C 6,4 km/h (2 Bft)
02.04.2018 01:01 1,7 °C 83 % 1015,2 hPa 0,0 mm 3,7 km/h (1 Bft) SW 221 ° 0 min 0,000 mm 0,0 UV-I 0 W/m² -0,9 °C 1,7 °C 6,4 km/h (2 Bft)
02.04.2018 01:02 1,7 °C 84 % 1015,2 hPa 0,0 mm 5,0 km/h (1 Bft) S-SW 213 ° 0 min 0,000 mm 0,0 UV-I 0 W/m² -0,7 °C 0,3 °C 6,4 km/h (2 Bft)
02.04.2018 01:03 1,7 °C 84 % 1015,2 hPa 0,0 mm 4,3 km/h (1 Bft) SW 215 ° 0 min 0,000 mm 0,0 UV-I 0 W/m² -0,7 °C 1,7 °C 4,8 km/h (1 Bft)
02.04.2018 01:04 1,7 °C 83 % 1015,2 hPa 0,0 mm 4,2 km/h (1 Bft) SW 221 ° 0 min 0,000 mm 0,0 UV-I 0 W/m² -0,9 °C 1,7 °C 6,4 km/h (2 Bft)
02.04.2018 01:05 1,7 °C 83 % 1015,2 hPa 0,0 mm 4,1 km/h (1 Bft) SW 220 ° 0 min 0,000 mm 0,0 UV-I 0 W/m² -0,9 °C 1,7 °C 6,4 km/h (2 Bft)
02.04.2018 01:06 1,6 °C 84 % 1015,2 hPa 0,0 mm 4,3 km/h (1 Bft) SW 219 ° 0 min 0,000 mm 0,0 UV-I 0 W/m² -0,8 °C 1,6 °C 4,8 km/h (1 Bft)
02.04.2018 01:07 1,6 °C 83 % 1015,1 hPa 0,0 mm 4,2 km/h (1 Bft) SW 226 ° 0 min 0,000 mm 0,0 UV-I 0 W/m² -1,0 °C 1,6 °C 6,4 km/h (2 Bft)
02.04.2018 01:08 1,7 °C 83 % 1015,2 hPa 0,0 mm 2,8 km/h (1 Bft) SW 225 ° 0 min 0,000 mm 0,0 UV-I 0 W/m² -0,9 °C 1,7 °C 4,8 km/h (1 Bft)
02.04.2018 01:09 1,7 °C 83 % 1015,2 hPa 0,0 mm 3,1 km/h (1 Bft) SW 221 ° 0 min 0,000 mm 0,0 UV-I 0 W/m² -0,9 °C 1,7 °C 6,4 km/h (2 Bft)
02.04.2018 01:10 1,7 °C 83 % 1015,2 hPa 0,0 mm 4,4 km/h (1 Bft) SW 220 ° 0 min 0,000 mm 0,0 UV-I 0 W/m² -0,9 °C 1,7 °C 6,4 km/h (2 Bft)
02.04.2018 01:11 1,7 °C 83 % 1015,2 hPa 0,0 mm 5,0 km/h (1 Bft) SW 222 ° 0 min 0,000 mm 0,0 UV-I 0 W/m² -0,9 °C 0,3 °C 9,7 km/h (2 Bft)
02.04.2018 01:12 1,6 °C 83 % 1015,2 hPa 0,0 mm 4,5 km/h (1 Bft) SW 220 ° 0 min 0,000 mm 0,0 UV-I 0 W/m² -1,0 °C 1,6 °C 8,0 km/h (2 Bft)
02.04.2018 01:13 1,6 °C 83 % 1015,2 hPa 0,0 mm 5,7 km/h (1 Bft) S-SW 200 ° 0 min 0,000 mm 0,0 UV-I 0 W/m² -1,0 °C -0,1 °C 9,7 km/h (2 Bft)
02.04.2018 01:14 1,7 °C 83 % 1015,2 hPa 0,0 mm 4,6 km/h (1 Bft) S-SW 200 ° 0 min 0,000 mm 0,0 UV-I 0 W/m² -0,9 °C 0,5 °C 6,4 km/h (2 Bft)
02.04.2018 01:15 1,6 °C 83 % 1015,2 hPa 0,0 mm 3,3 km/h (1 Bft) SW 227 ° 0 min 0,000 mm 0,0 UV-I 0 W/m² -1,0 °C 1,6 °C 6,4 km/h (2 Bft)
02.04.2018 01:16 1,6 °C 83 % 1015,2 hPa 0,0 mm 2,7 km/h (1 Bft) SW 219 ° 0 min 0,000 mm 0,0 UV-I 0 W/m² -1,0 °C 1,6 °C 4,8 km/h (1 Bft)
02.04.2018 01:17 1,6 °C 83 % 1015,2 hPa 0,0 mm 4,4 km/h (1 Bft) S-SW 207 ° 0 min 0,000 mm 0,0 UV-I 0 W/m² -1,0 °C 1,6 °C 6,4 km/h (2 Bft)
02.04.2018 01:18 1,7 °C 83 % 1015,2 hPa 0,0 mm 4,5 km/h (1 Bft) S-SW 207 ° 0 min 0,000 mm 0,0 UV-I 0 W/m² -0,9 °C 1,7 °C 6,4 km/h (2 Bft)
02.04.2018 01:19 1,7 °C 82 % 1015,2 hPa 0,0 mm 4,4 km/h (1 Bft) S-SW 207 ° 0 min 0,000 mm 0,0 UV-I 0 W/m² -1,0 °C 1,7 °C 6,4 km/h (2 Bft)
02.04.2018 01:20 1,7 °C 82 % 1015,2 hPa 0,0 mm 3,3 km/h (1 Bft) S-SW 207 ° 0 min 0,000 mm 0,0 UV-I 0 W/m² -1,0 °C 1,7 °C 4,8 km/h (1 Bft)
02.04.2018 01:21 1,6 °C 82 % 1015,2 hPa 0,0 mm 3,9 km/h (1 Bft) S-SW 207 ° 0 min 0,000 mm 0,0 UV-I 0 W/m² -1,1 °C 1,6 °C 6,4 km/h (2 Bft)
02.04.2018 01:22 1,6 °C 82 % 1015,2 hPa 0,0 mm 4,2 km/h (1 Bft) S-SW 207 ° 0 min 0,000 mm 0,0 UV-I 0 W/m² -1,1 °C 1,6 °C 6,4 km/h (2 Bft)
02.04.2018 01:23 1,6 °C 82 % 1015,2 hPa 0,0 mm 2,8 km/h (1 Bft) SW 217 ° 0 min 0,000 mm 0,0 UV-I 0 W/m² -1,1 °C 1,6 °C 4,8 km/h (1 Bft)
02.04.2018 01:24 1,6 °C 82 % 1015,2 hPa 0,0 mm 4,0 km/h (1 Bft) S-SW 209 ° 0 min 0,000 mm 0,0 UV-I 0 W/m² -1,1 °C 1,6 °C 4,8 km/h (1 Bft)
02.04.2018 01:25 1,6 °C 82 % 1015,2 hPa 0,0 mm 3,6 km/h (1 Bft) S-SW 209 ° 0 min 0,000 mm 0,0 UV-I 0 W/m² -1,1 °C 1,6 °C 4,8 km/h (1 Bft)
02.04.2018 01:26 1,6 °C 82 % 1015,2 hPa 0,0 mm 3,0 km/h (1 Bft) S-SW 209 ° 0 min 0,000 mm 0,0 UV-I 0 W/m² -1,1 °C 1,6 °C 4,8 km/h (1 Bft)
02.04.2018 01:27 1,5 °C 83 % 1015,2 hPa 0,0 mm 3,4 km/h (1 Bft) S-SW 209 ° 0 min 0,000 mm 0,0 UV-I 0 W/m² -1,1 °C 1,5 °C 4,8 km/h (1 Bft)
02.04.2018 01:28 1,6 °C 83 % 1015,2 hPa 0,0 mm 3,5 km/h (1 Bft) S-SW 209 ° 0 min 0,000 mm 0,0 UV-I 0 W/m² -1,0 °C 1,6 °C 6,4 km/h (2 Bft)
02.04.2018 01:29 1,6 °C 83 % 1015,3 hPa 0,0 mm 5,0 km/h (1 Bft) S-SW 208 ° 0 min 0,000 mm 0,0 UV-I 0 W/m² -1,0 °C 0,2 °C 6,4 km/h (2 Bft)
02.04.2018 01:30 1,5 °C 82 % 1015,3 hPa 0,0 mm 3,8 km/h (1 Bft) S-SW 208 ° 0 min 0,000 mm 0,0 UV-I 0 W/m² -1,2 °C 1,5 °C 6,4 km/h (2 Bft)
02.04.2018 01:31 1,5 °C 82 % 1015,2 hPa 0,0 mm 4,0 km/h (1 Bft) S-SW 208 ° 0 min 0,000 mm 0,0 UV-I 0 W/m² -1,2 °C 1,5 °C 6,4 km/h (2 Bft)
02.04.2018 01:32 1,5 °C 82 % 1015,2 hPa 0,0 mm 5,5 km/h (1 Bft) S-SW 204 ° 0 min 0,000 mm 0,0 UV-I 0 W/m² -1,2 °C -0,1 °C 8,0 km/h (2 Bft)
02.04.2018 01:33 1,5 °C 82 % 1015,2 hPa 0,0 mm 5,3 km/h (1 Bft) SW 219 ° 0 min 0,000 mm 0,0 UV-I 0 W/m² -1,2 °C -0,0 °C 6,4 km/h (2 Bft)
02.04.2018 01:34 1,5 °C 82 % 1015,3 hPa 0,0 mm 4,4 km/h (1 Bft) S-SW 209 ° 0 min 0,000 mm 0,0 UV-I 0 W/m² -1,2 °C 1,5 °C 8,0 km/h (2 Bft)
02.04.2018 01:35 1,5 °C 82 % 1015,2 hPa 0,0 mm 1,5 km/h (1 Bft) S-SW 209 ° 0 min 0,000 mm 0,0 UV-I 0 W/m² -1,2 °C 1,5 °C 3,2 km/h (1 Bft)
02.04.2018 01:36 1,4 °C 82 % 1015,3 hPa 0,0 mm 5,1 km/h (1 Bft) SW 231 ° 0 min 0,000 mm 0,0 UV-I 0 W/m² -1,3 °C -0,0 °C 8,0 km/h (2 Bft)
02.04.2018 01:37 1,4 °C 82 % 1015,2 hPa 0,0 mm 2,7 km/h (1 Bft) SW 224 ° 0 min 0,000 mm 0,0 UV-I 0 W/m² -1,3 °C 1,4 °C 4,8 km/h (1 Bft)
02.04.2018 01:38 1,4 °C 82 % 1015,2 hPa 0,0 mm 2,9 km/h (1 Bft) SW 224 ° 0 min 0,000 mm 0,0 UV-I 0 W/m² -1,3 °C 1,4 °C 3,2 km/h (1 Bft)
02.04.2018 01:39 1,4 °C 82 % 1015,2 hPa 0,0 mm 3,8 km/h (1 Bft) SW 224 ° 0 min 0,000 mm 0,0 UV-I 0 W/m² -1,3 °C 1,4 °C 4,8 km/h (1 Bft)
02.04.2018 01:40 1,4 °C 82 % 1015,3 hPa 0,0 mm 3,6 km/h (1 Bft) SW 218 ° 0 min 0,000 mm 0,0 UV-I 0 W/m² -1,3 °C 1,4 °C 4,8 km/h (1 Bft)
02.04.2018 01:41 1,4 °C 82 % 1015,3 hPa 0,0 mm 5,2 km/h (1 Bft) SW 220 ° 0 min 0,000 mm 0,0 UV-I 0 W/m² -1,3 °C -0,1 °C 12,9 km/h (3 Bft)
02.04.2018 01:42 1,4 °C 82 % 1015,2 hPa 0,0 mm 3,0 km/h (1 Bft) W-SW 248 ° 0 min 0,000 mm 0,0 UV-I 0 W/m² -1,3 °C 1,4 °C 6,4 km/h (2 Bft)
02.04.2018 01:43 1,4 °C 82 % 1015,2 hPa 0,0 mm 3,6 km/h (1 Bft) S-SW 211 ° 0 min 0,000 mm 0,0 UV-I 0 W/m² -1,3 °C 1,4 °C 6,4 km/h (2 Bft)
02.04.2018 01:44 1,5 °C 82 % 1015,2 hPa 0,0 mm 3,5 km/h (1 Bft) S-SW 211 ° 0 min 0,000 mm 0,0 UV-I 0 W/m² -1,2 °C 1,5 °C 4,8 km/h (1 Bft)
02.04.2018 01:45 1,4 °C 82 % 1015,2 hPa 0,0 mm 3,5 km/h (1 Bft) S-SW 211 ° 0 min 0,000 mm 0,0 UV-I 0 W/m² -1,3 °C 1,4 °C 6,4 km/h (2 Bft)
02.04.2018 01:46 1,4 °C 82 % 1015,2 hPa 0,0 mm 3,4 km/h (1 Bft) SW 215 ° 0 min 0,000 mm 0,0 UV-I 0 W/m² -1,3 °C 1,4 °C 4,8 km/h (1 Bft)
02.04.2018 01:47 1,5 °C 82 % 1015,2 hPa 0,0 mm 3,3 km/h (1 Bft) SW 219 ° 0 min 0,000 mm 0,0 UV-I 0 W/m² -1,2 °C 1,5 °C 6,4 km/h (2 Bft)
02.04.2018 01:48 1,5 °C 81 % 1015,2 hPa 0,0 mm 4,0 km/h (1 Bft) SW 217 ° 0 min 0,000 mm 0,0 UV-I 0 W/m² -1,4 °C 1,5 °C 6,4 km/h (2 Bft)
02.04.2018 01:49 1,5 °C 81 % 1015,2 hPa 0,0 mm 3,2 km/h (1 Bft) S-SW 208 ° 0 min 0,000 mm 0,0 UV-I 0 W/m² -1,4 °C 1,5 °C 4,8 km/h (1 Bft)
02.04.2018 01:50 1,5 °C 82 % 1015,3 hPa 0,0 mm 2,9 km/h (1 Bft) S-SW 208 ° 0 min 0,000 mm 0,0 UV-I 0 W/m² -1,2 °C 1,5 °C 4,8 km/h (1 Bft)
02.04.2018 01:51 1,4 °C 82 % 1015,3 hPa 0,0 mm 2,6 km/h (1 Bft) S-SW 208 ° 0 min 0,000 mm 0,0 UV-I 0 W/m² -1,3 °C 1,4 °C 4,8 km/h (1 Bft)
02.04.2018 01:52 1,3 °C 82 % 1015,2 hPa 0,0 mm 2,3 km/h (1 Bft) S-SW 208 ° 0 min 0,000 mm 0,0 UV-I 0 W/m² -1,4 °C 1,3 °C 4,8 km/h (1 Bft)
02.04.2018 01:53 1,3 °C 82 % 1015,2 hPa 0,0 mm 4,3 km/h (1 Bft) S-SW 208 ° 0 min 0,000 mm 0,0 UV-I 0 W/m² -1,4 °C 1,3 °C 4,8 km/h (1 Bft)
02.04.2018 01:54 1,3 °C 82 % 1015,2 hPa 0,0 mm 5,0 km/h (1 Bft) SW 223 ° 0 min 0,000 mm 0,0 UV-I 0 W/m² -1,4 °C -0,1 °C 8,0 km/h (2 Bft)
02.04.2018 01:55 1,2 °C 82 % 1015,3 hPa 0,0 mm 4,5 km/h (1 Bft) SW 219 ° 0 min 0,000 mm 0,0 UV-I 0 W/m² -1,5 °C 1,2 °C 6,4 km/h (2 Bft)
02.04.2018 01:56 1,2 °C 82 % 1015,3 hPa 0,0 mm 2,7 km/h (1 Bft) SW 219 ° 0 min 0,000 mm 0,0 UV-I 0 W/m² -1,5 °C 1,2 °C 4,8 km/h (1 Bft)
02.04.2018 01:57 1,2 °C 82 % 1015,3 hPa 0,0 mm 5,2 km/h (1 Bft) S-SW 212 ° 0 min 0,000 mm 0,0 UV-I 0 W/m² -1,5 °C -0,3 °C 6,4 km/h (2 Bft)
02.04.2018 01:58 1,1 °C 82 % 1015,3 hPa 0,0 mm 3,6 km/h (1 Bft) S-SW 209 ° 0 min 0,000 mm 0,0 UV-I 0 W/m² -1,6 °C 1,1 °C 6,4 km/h (2 Bft)
02.04.2018 01:59 1,1 °C 83 % 1015,3 hPa 0,0 mm 5,0 km/h (1 Bft) S-SW 200 ° 0 min 0,000 mm 0,0 UV-I 0 W/m² -1,5 °C -0,3 °C 8,0 km/h (2 Bft)
02.04.2018 02:00 1,1 °C 83 % 1015,3 hPa 0,0 mm 3,7 km/h (1 Bft) S-SW 200 ° 0 min 0,000 mm 0,0 UV-I 0 W/m² -1,5 °C 1,1 °C 4,8 km/h (1 Bft)
02.04.2018 02:01 1,0 °C 83 % 1015,3 hPa 0,0 mm 3,0 km/h (1 Bft) S-SW 200 ° 0 min 0,000 mm 0,0 UV-I 0 W/m² -1,6 °C 1,0 °C 4,8 km/h (1 Bft)
02.04.2018 02:02 0,9 °C 83 % 1015,3 hPa 0,0 mm 4,4 km/h (1 Bft) S-SW 201 ° 0 min 0,000 mm 0,0 UV-I 0 W/m² -1,7 °C 0,9 °C 8,0 km/h (2 Bft)
02.04.2018 02:03 0,9 °C 83 % 1015,3 hPa 0,0 mm 3,2 km/h (1 Bft) S-SW 200 ° 0 min 0,000 mm 0,0 UV-I 0 W/m² -1,7 °C 0,9 °C 4,8 km/h (1 Bft)
02.04.2018 02:04 0,9 °C 83 % 1015,3 hPa 0,0 mm 3,0 km/h (1 Bft) S-SW 201 ° 0 min 0,000 mm 0,0 UV-I 0 W/m² -1,7 °C 0,9 °C 4,8 km/h (1 Bft)
02.04.2018 02:05 0,9 °C 83 % 1015,3 hPa 0,0 mm 2,6 km/h (1 Bft) S-SW 201 ° 0 min 0,000 mm 0,0 UV-I 0 W/m² -1,7 °C 0,9 °C 4,8 km/h (1 Bft)
02.04.2018 02:06 0,9 °C 83 % 1015,3 hPa 0,0 mm 4,4 km/h (1 Bft) S-SW 211 ° 0 min 0,000 mm 0,0 UV-I 0 W/m² -1,7 °C 0,9 °C 6,4 km/h (2 Bft)
02.04.2018 02:07 0,9 °C 83 % 1015,3 hPa 0,0 mm 2,9 km/h (1 Bft) S-SW 211 ° 0 min 0,000 mm 0,0 UV-I 0 W/m² -1,7 °C 0,9 °C 4,8 km/h (1 Bft)
02.04.2018 02:08 0,9 °C 83 % 1015,3 hPa 0,0 mm 3,6 km/h (1 Bft) S-SW 211 ° 0 min 0,000 mm 0,0 UV-I 0 W/m² -1,7 °C 0,9 °C 4,8 km/h (1 Bft)
02.04.2018 02:09 0,9 °C 83 % 1015,3 hPa 0,0 mm 3,9 km/h (1 Bft) S-SW 211 ° 0 min 0,000 mm 0,0 UV-I 0 W/m² -1,7 °C 0,9 °C 6,4 km/h (2 Bft)
02.04.2018 02:10 0,9 °C 83 % 1015,3 hPa 0,0 mm 3,0 km/h (1 Bft) S-SW 211 ° 0 min 0,000 mm 0,0 UV-I 0 W/m² -1,7 °C 0,9 °C 4,8 km/h (1 Bft)
02.04.2018 02:11 0,9 °C 83 % 1015,3 hPa 0,0 mm 4,1 km/h (1 Bft) S-SW 210 ° 0 min 0,000 mm 0,0 UV-I 0 W/m² -1,7 °C 0,9 °C 4,8 km/h (1 Bft)
02.04.2018 02:12 1,0 °C 83 % 1015,3 hPa 0,0 mm 4,0 km/h (1 Bft) SW 234 ° 0 min 0,000 mm 0,0 UV-I 0 W/m² -1,6 °C 1,0 °C 4,8 km/h (1 Bft)
02.04.2018 02:13 1,0 °C 83 % 1015,3 hPa 0,0 mm 4,6 km/h (1 Bft) S-SW 202 ° 0 min 0,000 mm 0,0 UV-I 0 W/m² -1,6 °C -0,3 °C 6,4 km/h (2 Bft)
02.04.2018 02:14 1,0 °C 83 % 1015,3 hPa 0,0 mm 4,6 km/h (1 Bft) S-SW 202 ° 0 min 0,000 mm 0,0 UV-I 0 W/m² -1,6 °C -0,3 °C 8,0 km/h (2 Bft)
02.04.2018 02:15 1,0 °C 83 % 1015,3 hPa 0,0 mm 5,4 km/h (1 Bft) S-SW 202 ° 0 min 0,000 mm 0,0 UV-I 0 W/m² -1,6 °C -0,6 °C 8,0 km/h (2 Bft)
02.04.2018 02:16 1,1 °C 83 % 1015,3 hPa 0,0 mm 4,3 km/h (1 Bft) S-SW 200 ° 0 min 0,000 mm 0,0 UV-I 0 W/m² -1,5 °C 1,1 °C 6,4 km/h (2 Bft)
02.04.2018 02:17 1,1 °C 83 % 1015,3 hPa 0,0 mm 4,5 km/h (1 Bft) S-SW 203 ° 0 min 0,000 mm 0,0 UV-I 0 W/m² -1,5 °C 1,1 °C 6,4 km/h (2 Bft)
02.04.2018 02:18 1,1 °C 83 % 1015,3 hPa 0,0 mm 4,2 km/h (1 Bft) S-SW 202 ° 0 min 0,000 mm 0,0 UV-I 0 W/m² -1,5 °C 1,1 °C 4,8 km/h (1 Bft)
02.04.2018 02:19 1,1 °C 83 % 1015,3 hPa 0,0 mm 3,6 km/h (1 Bft) S-SW 201 ° 0 min 0,000 mm 0,0 UV-I 0 W/m² -1,5 °C 1,1 °C 6,4 km/h (2 Bft)
02.04.2018 02:20 1,1 °C 83 % 1015,2 hPa 0,0 mm 2,9 km/h (1 Bft) S-SW 201 ° 0 min 0,000 mm 0,0 UV-I 0 W/m² -1,5 °C 1,1 °C 4,8 km/h (1 Bft)
02.04.2018 02:21 1,1 °C 83 % 1015,2 hPa 0,0 mm 4,2 km/h (1 Bft) S-SW 200 ° 0 min 0,000 mm 0,0 UV-I 0 W/m² -1,5 °C 1,1 °C 6,4 km/h (2 Bft)
02.04.2018 02:22 1,1 °C 83 % 1015,2 hPa 0,0 mm 3,7 km/h (1 Bft) S-SW 200 ° 0 min 0,000 mm 0,0 UV-I 0 W/m² -1,5 °C 1,1 °C 6,4 km/h (2 Bft)
02.04.2018 02:23 1,1 °C 83 % 1015,2 hPa 0,0 mm 4,8 km/h (1 Bft) S-SW 200 ° 0 min 0,000 mm 0,0 UV-I 0 W/m² -1,5 °C -0,2 °C 6,4 km/h (2 Bft)
02.04.2018 02:24 1,0 °C 83 % 1015,2 hPa 0,0 mm 4,9 km/h (1 Bft) S-SW 200 ° 0 min 0,000 mm 0,0 UV-I 0 W/m² -1,6 °C -0,4 °C 6,4 km/h (2 Bft)
02.04.2018 02:25 1,0 °C 83 % 1015,2 hPa 0,0 mm 5,0 km/h (1 Bft) S-SW 200 ° 0 min 0,000 mm 0,0 UV-I 0 W/m² -1,6 °C -0,5 °C 6,4 km/h (2 Bft)
02.04.2018 02:26 1,0 °C 83 % 1015,2 hPa 0,0 mm 3,8 km/h (1 Bft) S-SW 200 ° 0 min 0,000 mm 0,0 UV-I 0 W/m² -1,6 °C 1,0 °C 4,8 km/h (1 Bft)
02.04.2018 02:27 0,9 °C 83 % 1015,2 hPa 0,0 mm 3,7 km/h (1 Bft) S-SW 200 ° 0 min 0,000 mm 0,0 UV-I 0 W/m² -1,7 °C 0,9 °C 6,4 km/h (2 Bft)
02.04.2018 02:28 1,0 °C 83 % 1015,2 hPa 0,0 mm 4,8 km/h (1 Bft) S-SW 200 ° 0 min 0,000 mm 0,0 UV-I 0 W/m² -1,6 °C -0,4 °C 6,4 km/h (2 Bft)
02.04.2018 02:29 0,9 °C 83 % 1015,2 hPa 0,0 mm 4,5 km/h (1 Bft) S-SW 200 ° 0 min 0,000 mm 0,0 UV-I 0 W/m² -1,7 °C 0,9 °C 6,4 km/h (2 Bft)
02.04.2018 02:30 0,9 °C 83 % 1015,2 hPa 0,0 mm 4,3 km/h (1 Bft) S-SW 200 ° 0 min 0,000 mm 0,0 UV-I 0 W/m² -1,7 °C 0,9 °C 6,4 km/h (2 Bft)
02.04.2018 02:31 0,9 °C 83 % 1015,2 hPa 0,0 mm 4,4 km/h (1 Bft) S-SW 194 ° 0 min 0,000 mm 0,0 UV-I 0 W/m² -1,7 °C 0,9 °C 6,4 km/h (2 Bft)
02.04.2018 02:32 0,9 °C 83 % 1015,2 hPa 0,0 mm 4,1 km/h (1 Bft) S-SW 197 ° 0 min 0,000 mm 0,0 UV-I 0 W/m² -1,7 °C 0,9 °C 6,4 km/h (2 Bft)
02.04.2018 02:33 0,9 °C 83 % 1015,2 hPa 0,0 mm 4,2 km/h (1 Bft) S-SW 207 ° 0 min 0,000 mm 0,0 UV-I 0 W/m² -1,7 °C 0,9 °C 6,4 km/h (2 Bft)
02.04.2018 02:34 0,9 °C 83 % 1015,2 hPa 0,0 mm 3,8 km/h (1 Bft) S-SW 207 ° 0 min 0,000 mm 0,0 UV-I 0 W/m² -1,7 °C 0,9 °C 6,4 km/h (2 Bft)
02.04.2018 02:35 0,9 °C 83 % 1015,2 hPa 0,0 mm 3,8 km/h (1 Bft) S-SW 204 ° 0 min 0,000 mm 0,0 UV-I 0 W/m² -1,7 °C 0,9 °C 6,4 km/h (2 Bft)
02.04.2018 02:36 0,8 °C 84 % 1015,2 hPa 0,0 mm 2,2 km/h (1 Bft) S-SW 204 ° 0 min 0,000 mm 0,0 UV-I 0 W/m² -1,6 °C 0,8 °C 4,8 km/h (1 Bft)
02.04.2018 02:37 0,8 °C 84 % 1015,2 hPa 0,0 mm 4,3 km/h (1 Bft) S-SW 204 ° 0 min 0,000 mm 0,0 UV-I 0 W/m² -1,6 °C 0,8 °C 6,4 km/h (2 Bft)
02.04.2018 02:38 0,7 °C 84 % 1015,2 hPa 0,0 mm 2,9 km/h (1 Bft) S-SW 204 ° 0 min 0,000 mm 0,0 UV-I 0 W/m² -1,7 °C 0,7 °C 4,8 km/h (1 Bft)
02.04.2018 02:39 0,6 °C 84 % 1015,1 hPa 0,0 mm 2,7 km/h (1 Bft) S-SW 204 ° 0 min 0,000 mm 0,0 UV-I 0 W/m² -1,8 °C 0,6 °C 4,8 km/h (1 Bft)
02.04.2018 02:40 0,6 °C 85 % 1015,1 hPa 0,0 mm 2,4 km/h (1 Bft) S-SW 204 ° 0 min 0,000 mm 0,0 UV-I 0 W/m² -1,6 °C 0,6 °C 3,2 km/h (1 Bft)
02.04.2018 02:41 0,4 °C 85 % 1015,2 hPa 0,0 mm 2,4 km/h (1 Bft) S-SW 204 ° 0 min 0,000 mm 0,0 UV-I 0 W/m² -1,8 °C 0,4 °C 3,2 km/h (1 Bft)
02.04.2018 02:42 0,4 °C 85 % 1015,1 hPa 0,0 mm 4,3 km/h (1 Bft) S-SW 204 ° 0 min 0,000 mm 0,0 UV-I 0 W/m² -1,8 °C 0,4 °C 4,8 km/h (1 Bft)
02.04.2018 02:43 0,4 °C 85 % 1015,2 hPa 0,0 mm 2,1 km/h (1 Bft) S-SW 204 ° 0 min 0,000 mm 0,0 UV-I 0 W/m² -1,8 °C 0,4 °C 3,2 km/h (1 Bft)
02.04.2018 02:44 0,3 °C 86 % 1015,2 hPa 0,0 mm 2,4 km/h (1 Bft) S-SW 204 ° 0 min 0,000 mm 0,0 UV-I 0 W/m² -1,8 °C 0,3 °C 3,2 km/h (1 Bft)
02.04.2018 02:45 0,3 °C 86 % 1015,2 hPa 0,0 mm 0,9 km/h (0 Bft) S-SW 204 ° 0 min 0,000 mm 0,0 UV-I 0 W/m² -1,8 °C 0,3 °C 3,2 km/h (1 Bft)
02.04.2018 02:46 0,2 °C 86 % 1015,2 hPa 0,0 mm 1,3 km/h (1 Bft) S-SW 204 ° 0 min 0,000 mm 0,0 UV-I 0 W/m² -1,9 °C 0,2 °C 1,6 km/h (1 Bft)
02.04.2018 02:47 0,2 °C 86 % 1015,1 hPa 0,0 mm 0,3 km/h (0 Bft) S-SW 204 ° 0 min 0,000 mm 0,0 UV-I 0 W/m² -1,9 °C 0,2 °C 1,6 km/h (1 Bft)
02.04.2018 02:48 0,1 °C 87 % 1015,2 hPa 0,0 mm 0,0 km/h (0 Bft) S-SW 204 ° 0 min 0,000 mm 0,0 UV-I 0 W/m² -1,8 °C 0,1 °C 0,0 km/h (0 Bft)
02.04.2018 02:49 0,0 °C 87 % 1015,1 hPa 0,0 mm 0,0 km/h (0 Bft) S-SW 204 ° 0 min 0,000 mm 0,0 UV-I 0 W/m² -1,9 °C 0,0 °C 0,0 km/h (0 Bft)
02.04.2018 02:50 0,0 °C 87 % 1015,1 hPa 0,0 mm 0,0 km/h (0 Bft) S-SW 204 ° 0 min 0,000 mm 0,0 UV-I 0 W/m² -1,9 °C 0,0 °C 0,0 km/h (0 Bft)
02.04.2018 02:51 -0,1 °C 87 % 1015,1 hPa 0,0 mm 0,6 km/h (0 Bft) S-SW 204 ° 0 min 0,000 mm 0,0 UV-I 0 W/m² -2,0 °C -0,1 °C 1,6 km/h (1 Bft)
02.04.2018 02:52 -0,1 °C 87 % 1015,1 hPa 0,0 mm 0,9 km/h (0 Bft) S-SW 204 ° 0 min 0,000 mm 0,0 UV-I 0 W/m² -2,0 °C -0,1 °C 3,2 km/h (1 Bft)
02.04.2018 02:53 -0,2 °C 87 % 1015,1 hPa 0,0 mm 1,9 km/h (1 Bft) S-SW 204 ° 0 min 0,000 mm 0,0 UV-I 0 W/m² -2,1 °C -0,2 °C 3,2 km/h (1 Bft)
02.04.2018 02:54 -0,2 °C 87 % 1015,1 hPa 0,0 mm 1,1 km/h (1 Bft) S-SW 204 ° 0 min 0,000 mm 0,0 UV-I 0 W/m² -2,1 °C -0,2 °C 3,2 km/h (1 Bft)
02.04.2018 02:55 -0,2 °C 88 % 1015,1 hPa 0,0 mm 1,9 km/h (1 Bft) S-SW 204 ° 0 min 0,000 mm 0,0 UV-I 0 W/m² -1,9 °C -0,2 °C 3,2 km/h (1 Bft)
02.04.2018 02:56 -0,3 °C 88 % 1015,1 hPa 0,0 mm 0,6 km/h (0 Bft) S-SW 204 ° 0 min 0,000 mm 0,0 UV-I 0 W/m² -2,0 °C -0,3 °C 1,6 km/h (1 Bft)
02.04.2018 02:57 -0,3 °C 88 % 1015,1 hPa 0,0 mm 0,6 km/h (0 Bft) S-SW 204 ° 0 min 0,000 mm 0,0 UV-I 0 W/m² -2,0 °C -0,3 °C 1,6 km/h (1 Bft)
02.04.2018 02:58 -0,3 °C 88 % 1015,1 hPa 0,0 mm 0,3 km/h (0 Bft) S-SW 204 ° 0 min 0,000 mm 0,0 UV-I 0 W/m² -2,0 °C -0,3 °C 3,2 km/h (1 Bft)
02.04.2018 02:59 -0,3 °C 88 % 1015,1 hPa 0,0 mm 1,1 km/h (1 Bft) S-SW 204 ° 0 min 0,000 mm 0,0 UV-I 0 W/m² -2,0 °C -0,3 °C 3,2 km/h (1 Bft)
02.04.2018 03:00 -0,3 °C 88 % 1015,1 hPa 0,0 mm 0,3 km/h (0 Bft) S-SW 204 ° 0 min 0,000 mm 0,0 UV-I 0 W/m² -2,0 °C -0,3 °C 1,6 km/h (1 Bft)
02.04.2018 03:01 -0,3 °C 88 % 1015,1 hPa 0,0 mm 0,0 km/h (0 Bft) S-SW 204 ° 0 min 0,000 mm 0,0 UV-I 0 W/m² -2,0 °C -0,3 °C 0,0 km/h (0 Bft)
02.04.2018 03:02 -0,5 °C 88 % 1015,1 hPa 0,0 mm 0,0 km/h (0 Bft) S-SW 204 ° 0 min 0,000 mm 0,0 UV-I 0 W/m² -2,2 °C -0,5 °C 0,0 km/h (0 Bft)
02.04.2018 03:03 -0,7 °C 87 % 1015,1 hPa 0,0 mm 0,0 km/h (0 Bft) S-SW 204 ° 0 min 0,000 mm 0,0 UV-I 0 W/m² -2,6 °C -0,7 °C 0,0 km/h (0 Bft)
02.04.2018 03:04 -0,7 °C 88 % 1015,1 hPa 0,0 mm 0,0 km/h (0 Bft) S-SW 204 ° 0 min 0,000 mm 0,0 UV-I 0 W/m² -2,4 °C -0,7 °C 0,0 km/h (0 Bft)
02.04.2018 03:05 -0,7 °C 88 % 1015,1 hPa 0,0 mm 0,4 km/h (0 Bft) S-SW 204 ° 0 min 0,000 mm 0,0 UV-I 0 W/m² -2,4 °C -0,7 °C 1,6 km/h (1 Bft)
02.04.2018 03:06 -0,7 °C 89 % 1015,1 hPa 0,0 mm 1,5 km/h (1 Bft) S-SW 204 ° 0 min 0,000 mm 0,0 UV-I 0 W/m² -2,3 °C -0,7 °C 3,2 km/h (1 Bft)
02.04.2018 03:07 -0,7 °C 89 % 1015,0 hPa 0,0 mm 0,8 km/h (0 Bft) S-SW 204 ° 0 min 0,000 mm 0,0 UV-I 0 W/m² -2,3 °C -0,7 °C 3,2 km/h (1 Bft)
02.04.2018 03:08 -0,7 °C 89 % 1015,0 hPa 0,0 mm 0,5 km/h (0 Bft) S-SW 204 ° 0 min 0,000 mm 0,0 UV-I 0 W/m² -2,3 °C -0,7 °C 1,6 km/h (1 Bft)
02.04.2018 03:09 -0,6 °C 89 % 1015,0 hPa 0,0 mm 0,9 km/h (0 Bft) S-SW 204 ° 0 min 0,000 mm 0,0 UV-I 0 W/m² -2,2 °C -0,6 °C 1,6 km/h (1 Bft)
02.04.2018 03:10 -0,6 °C 89 % 1015,0 hPa 0,0 mm 0,3 km/h (0 Bft) S-SW 204 ° 0 min 0,000 mm 0,0 UV-I 0 W/m² -2,2 °C -0,6 °C 1,6 km/h (1 Bft)
02.04.2018 03:11 -0,6 °C 89 % 1015,0 hPa 0,0 mm 0,0 km/h (0 Bft) S-SW 204 ° 0 min 0,000 mm 0,0 UV-I 0 W/m² -2,2 °C -0,6 °C 0,0 km/h (0 Bft)
02.04.2018 03:12 -0,6 °C 89 % 1015,0 hPa 0,0 mm 0,0 km/h (0 Bft) S-SW 204 ° 0 min 0,000 mm 0,0 UV-I 0 W/m² -2,2 °C -0,6 °C 0,0 km/h (0 Bft)
02.04.2018 03:13 -0,7 °C 89 % 1015,0 hPa 0,0 mm 0,0 km/h (0 Bft) S-SW 204 ° 0 min 0,000 mm 0,0 UV-I 0 W/m² -2,3 °C -0,7 °C 0,0 km/h (0 Bft)
02.04.2018 03:14 -0,8 °C 88 % 1015,0 hPa 0,0 mm 0,0 km/h (0 Bft) S-SW 204 ° 0 min 0,000 mm 0,0 UV-I 0 W/m² -2,5 °C -0,8 °C 0,0 km/h (0 Bft)
02.04.2018 03:15 -1,0 °C 88 % 1015,0 hPa 0,0 mm 0,0 km/h (0 Bft) S-SW 204 ° 0 min 0,000 mm 0,0 UV-I 0 W/m² -2,7 °C -1,0 °C 0,0 km/h (0 Bft)
02.04.2018 03:16 -1,1 °C 89 % 1014,9 hPa 0,0 mm 0,0 km/h (0 Bft) S-SW 204 ° 0 min 0,000 mm 0,0 UV-I 0 W/m² -2,7 °C -1,1 °C 0,0 km/h (0 Bft)
02.04.2018 03:17 -1,2 °C 89 % 1014,9 hPa 0,0 mm 0,0 km/h (0 Bft) S-SW 204 ° 0 min 0,000 mm 0,0 UV-I 0 W/m² -2,8 °C -1,2 °C 0,0 km/h (0 Bft)
02.04.2018 03:18 -1,3 °C 89 % 1014,9 hPa 0,0 mm 0,0 km/h (0 Bft) S-SW 204 ° 0 min 0,000 mm 0,0 UV-I 0 W/m² -2,9 °C -1,3 °C 0,0 km/h (0 Bft)
02.04.2018 03:19 -1,3 °C 90 % 1014,9 hPa 0,0 mm 0,0 km/h (0 Bft) S-SW 204 ° 0 min 0,000 mm 0,0 UV-I 0 W/m² -2,7 °C -1,3 °C 0,0 km/h (0 Bft)
02.04.2018 03:20 -1,3 °C 90 % 1014,9 hPa 0,0 mm 0,0 km/h (0 Bft) S-SW 204 ° 0 min 0,000 mm 0,0 UV-I 0 W/m² -2,7 °C -1,3 °C 0,0 km/h (0 Bft)
02.04.2018 03:21 -1,3 °C 90 % 1014,9 hPa 0,0 mm 0,0 km/h (0 Bft) S-SW 204 ° 0 min 0,000 mm 0,0 UV-I 0 W/m² -2,7 °C -1,3 °C 0,0 km/h (0 Bft)
02.04.2018 03:22 -1,4 °C 90 % 1014,9 hPa 0,0 mm 0,0 km/h (0 Bft) S-SW 204 ° 0 min 0,000 mm 0,0 UV-I 0 W/m² -2,8 °C -1,4 °C 0,0 km/h (0 Bft)
02.04.2018 03:23 -1,4 °C 90 % 1014,9 hPa 0,0 mm 0,0 km/h (0 Bft) S-SW 204 ° 0 min 0,000 mm 0,0 UV-I 0 W/m² -2,8 °C -1,4 °C 0,0 km/h (0 Bft)
02.04.2018 03:24 -1,4 °C 90 % 1014,9 hPa 0,0 mm 0,0 km/h (0 Bft) S-SW 204 ° 0 min 0,000 mm 0,0 UV-I 0 W/m² -2,8 °C -1,4 °C 0,0 km/h (0 Bft)
02.04.2018 03:25 -1,5 °C 91 % 1014,9 hPa 0,0 mm 0,0 km/h (0 Bft) S-SW 204 ° 0 min 0,000 mm 0,0 UV-I 0 W/m² -2,8 °C -1,5 °C 0,0 km/h (0 Bft)
02.04.2018 03:26 -1,4 °C 90 % 1014,9 hPa 0,0 mm 0,0 km/h (0 Bft) S-SW 204 ° 0 min 0,000 mm 0,0 UV-I 0 W/m² -2,8 °C -1,4 °C 0,0 km/h (0 Bft)
02.04.2018 03:27 -1,4 °C 91 % 1014,8 hPa 0,0 mm 0,0 km/h (0 Bft) S-SW 204 ° 0 min 0,000 mm 0,0 UV-I 0 W/m² -2,7 °C -1,4 °C 0,0 km/h (0 Bft)
02.04.2018 03:28 -1,3 °C 91 % 1014,8 hPa 0,0 mm 0,0 km/h (0 Bft) S-SW 204 ° 0 min 0,000 mm 0,0 UV-I 0 W/m² -2,6 °C -1,3 °C 0,0 km/h (0 Bft)
02.04.2018 03:29 -1,2 °C 91 % 1014,8 hPa 0,0 mm 0,0 km/h (0 Bft) S-SW 204 ° 0 min 0,000 mm 0,0 UV-I 0 W/m² -2,5 °C -1,2 °C 0,0 km/h (0 Bft)
02.04.2018 03:30 -1,2 °C 91 % 1014,8 hPa 0,0 mm 0,0 km/h (0 Bft) S-SW 204 ° 0 min 0,000 mm 0,0 UV-I 0 W/m² -2,5 °C -1,2 °C 0,0 km/h (0 Bft)
02.04.2018 03:31 -1,2 °C 90 % 1014,8 hPa 0,0 mm 0,0 km/h (0 Bft) S-SW 204 ° 0 min 0,000 mm 0,0 UV-I 0 W/m² -2,6 °C -1,2 °C 0,0 km/h (0 Bft)
02.04.2018 03:32 -1,2 °C 90 % 1014,7 hPa 0,0 mm 0,0 km/h (0 Bft) S-SW 204 ° 0 min 0,000 mm 0,0 UV-I 0 W/m² -2,6 °C -1,2 °C 0,0 km/h (0 Bft)
02.04.2018 03:33 -1,2 °C 90 % 1014,7 hPa 0,0 mm 0,0 km/h (0 Bft) S-SW 204 ° 0 min 0,000 mm 0,0 UV-I 0 W/m² -2,6 °C -1,2 °C 0,0 km/h (0 Bft)
02.04.2018 03:34 -1,3 °C 90 % 1014,8 hPa 0,0 mm 0,0 km/h (0 Bft) S-SW 204 ° 0 min 0,000 mm 0,0 UV-I 0 W/m² -2,7 °C -1,3 °C 0,0 km/h (0 Bft)
02.04.2018 03:35 -1,4 °C 90 % 1014,7 hPa 0,0 mm 0,0 km/h (0 Bft) S-SW 204 ° 0 min 0,000 mm 0,0 UV-I 0 W/m² -2,8 °C -1,4 °C 0,0 km/h (0 Bft)
02.04.2018 03:36 -1,5 °C 90 % 1014,8 hPa 0,0 mm 0,0 km/h (0 Bft) S-SW 204 ° 0 min 0,000 mm 0,0 UV-I 0 W/m² -2,9 °C -1,5 °C 0,0 km/h (0 Bft)
02.04.2018 03:37 -1,6 °C 90 % 1014,7 hPa 0,0 mm 0,0 km/h (0 Bft) S-SW 204 ° 0 min 0,000 mm 0,0 UV-I 0 W/m² -3,0 °C -1,6 °C 0,0 km/h (0 Bft)
02.04.2018 03:38 -1,6 °C 91 % 1014,7 hPa 0,0 mm 0,0 km/h (0 Bft) S-SW 204 ° 0 min 0,000 mm 0,0 UV-I 0 W/m² -2,9 °C -1,6 °C 0,0 km/h (0 Bft)
02.04.2018 03:39 -1,6 °C 91 % 1014,7 hPa 0,0 mm 0,0 km/h (0 Bft) S-SW 204 ° 0 min 0,000 mm 0,0 UV-I 0 W/m² -2,9 °C -1,6 °C 0,0 km/h (0 Bft)
02.04.2018 03:40 -1,7 °C 91 % 1014,7 hPa 0,0 mm 0,0 km/h (0 Bft) S-SW 204 ° 0 min 0,000 mm 0,0 UV-I 0 W/m² -3,0 °C -1,7 °C 0,0 km/h (0 Bft)
02.04.2018 03:41 -1,7 °C 91 % 1014,7 hPa 0,0 mm 0,0 km/h (0 Bft) S-SW 204 ° 0 min 0,000 mm 0,0 UV-I 0 W/m² -3,0 °C -1,7 °C 0,0 km/h (0 Bft)
02.04.2018 03:42 -1,7 °C 91 % 1014,6 hPa 0,0 mm 0,0 km/h (0 Bft) S-SW 204 ° 0 min 0,000 mm 0,0 UV-I 0 W/m² -3,0 °C -1,7 °C 0,0 km/h (0 Bft)
02.04.2018 03:43 -1,7 °C 91 % 1014,6 hPa 0,0 mm 0,0 km/h (0 Bft) S-SW 204 ° 0 min 0,000 mm 0,0 UV-I 0 W/m² -3,0 °C -1,7 °C 0,0 km/h (0 Bft)
02.04.2018 03:44 -1,6 °C 91 % 1014,6 hPa 0,0 mm 0,0 km/h (0 Bft) S-SW 204 ° 0 min 0,000 mm 0,0 UV-I 0 W/m² -2,9 °C -1,6 °C 0,0 km/h (0 Bft)
02.04.2018 03:45 -1,6 °C 91 % 1014,6 hPa 0,0 mm 0,0 km/h (0 Bft) S-SW 204 ° 0 min 0,000 mm 0,0 UV-I 0 W/m² -2,9 °C -1,6 °C 0,0 km/h (0 Bft)
02.04.2018 03:46 -1,6 °C 92 % 1014,6 hPa 0,0 mm 0,0 km/h (0 Bft) S-SW 204 ° 0 min 0,000 mm 0,0 UV-I 0 W/m² -2,7 °C -1,6 °C 0,0 km/h (0 Bft)
02.04.2018 03:47 -1,6 °C 92 % 1014,6 hPa 0,0 mm 0,0 km/h (0 Bft) S-SW 204 ° 0 min 0,000 mm 0,0 UV-I 0 W/m² -2,7 °C -1,6 °C 0,0 km/h (0 Bft)
02.04.2018 03:48 -1,5 °C 91 % 1014,6 hPa 0,0 mm 0,0 km/h (0 Bft) S-SW 204 ° 0 min 0,000 mm 0,0 UV-I 0 W/m² -2,8 °C -1,5 °C 0,0 km/h (0 Bft)
02.04.2018 03:49 -1,4 °C 91 % 1014,6 hPa 0,0 mm 0,0 km/h (0 Bft) S-SW 204 ° 0 min 0,000 mm 0,0 UV-I 0 W/m² -2,7 °C -1,4 °C 0,0 km/h (0 Bft)
02.04.2018 03:50 -1,4 °C 92 % 1014,6 hPa 0,0 mm 0,0 km/h (0 Bft) S-SW 204 ° 0 min 0,000 mm 0,0 UV-I 0 W/m² -2,5 °C -1,4 °C 0,0 km/h (0 Bft)
02.04.2018 03:51 -1,4 °C 92 % 1014,5 hPa 0,0 mm 0,0 km/h (0 Bft) S-SW 204 ° 0 min 0,000 mm 0,0 UV-I 0 W/m² -2,5 °C -1,4 °C 0,0 km/h (0 Bft)
02.04.2018 03:52 -1,4 °C 92 % 1014,6 hPa 0,0 mm 0,0 km/h (0 Bft) S-SW 204 ° 0 min 0,000 mm 0,0 UV-I 0 W/m² -2,5 °C -1,4 °C 0,0 km/h (0 Bft)
02.04.2018 03:53 -1,4 °C 92 % 1014,6 hPa 0,0 mm 0,0 km/h (0 Bft) S-SW 204 ° 0 min 0,000 mm 0,0 UV-I 0 W/m² -2,5 °C -1,4 °C 0,0 km/h (0 Bft)
02.04.2018 03:54 -1,4 °C 91 % 1014,5 hPa 0,0 mm 0,0 km/h (0 Bft) S-SW 204 ° 0 min 0,000 mm 0,0 UV-I 0 W/m² -2,7 °C -1,4 °C 0,0 km/h (0 Bft)
02.04.2018 03:55 -1,4 °C 91 % 1014,5 hPa 0,0 mm 0,0 km/h (0 Bft) S-SW 204 ° 0 min 0,000 mm 0,0 UV-I 0 W/m² -2,7 °C -1,4 °C 0,0 km/h (0 Bft)
02.04.2018 03:56 -1,4 °C 91 % 1014,5 hPa 0,0 mm 0,0 km/h (0 Bft) S-SW 204 ° 0 min 0,000 mm 0,0 UV-I 0 W/m² -2,7 °C -1,4 °C 0,0 km/h (0 Bft)
02.04.2018 03:57 -1,6 °C 91 % 1014,5 hPa 0,0 mm 0,0 km/h (0 Bft) S-SW 204 ° 0 min 0,000 mm 0,0 UV-I 0 W/m² -2,9 °C -1,6 °C 0,0 km/h (0 Bft)
02.04.2018 03:58 -1,6 °C 91 % 1014,5 hPa 0,0 mm 0,0 km/h (0 Bft) S-SW 204 ° 0 min 0,000 mm 0,0 UV-I 0 W/m² -2,9 °C -1,6 °C 0,0 km/h (0 Bft)
02.04.2018 03:59 -1,6 °C 91 % 1014,5 hPa 0,0 mm 0,0 km/h (0 Bft) S-SW 204 ° 0 min 0,000 mm 0,0 UV-I 0 W/m² -2,9 °C -1,6 °C 0,0 km/h (0 Bft)
02.04.2018 04:00 -1,6 °C 91 % 1014,5 hPa 0,0 mm 0,0 km/h (0 Bft) S-SW 204 ° 0 min 0,000 mm 0,0 UV-I 0 W/m² -2,9 °C -1,6 °C 0,0 km/h (0 Bft)
02.04.2018 04:01 -1,7 °C 91 % 1014,5 hPa 0,0 mm 0,0 km/h (0 Bft) S-SW 204 ° 0 min 0,000 mm 0,0 UV-I 0 W/m² -3,0 °C -1,7 °C 0,0 km/h (0 Bft)
02.04.2018 04:02 -1,7 °C 91 % 1014,5 hPa 0,0 mm 0,0 km/h (0 Bft) N 0 ° 0 min 0,000 mm 0,0 UV-I 0 W/m² -3,0 °C -1,7 °C 0,0 km/h (0 Bft)
02.04.2018 04:03 -1,7 °C 91 % 1014,5 hPa 0,0 mm 0,0 km/h (0 Bft) N 0 ° 0 min 0,000 mm 0,0 UV-I 0 W/m² -3,0 °C -1,7 °C 0,0 km/h (0 Bft)
02.04.2018 04:04 -1,7 °C 92 % 1014,5 hPa 0,0 mm 0,0 km/h (0 Bft) N 0 ° 0 min 0,000 mm 0,0 UV-I 0 W/m² -2,8 °C -1,7 °C 0,0 km/h (0 Bft)
02.04.2018 04:05 -1,7 °C 91 % 1014,5 hPa 0,0 mm 0,0 km/h (0 Bft) N 0 ° 0 min 0,000 mm 0,0 UV-I 0 W/m² -3,0 °C -1,7 °C 0,0 km/h (0 Bft)
02.04.2018 04:06 -1,7 °C 91 % 1014,5 hPa 0,0 mm 0,0 km/h (0 Bft) N 0 ° 0 min 0,000 mm 0,0 UV-I 0 W/m² -3,0 °C -1,7 °C 0,0 km/h (0 Bft)
02.04.2018 04:07 -1,8 °C 91 % 1014,5 hPa 0,0 mm 0,0 km/h (0 Bft) N 0 ° 0 min 0,000 mm 0,0 UV-I 0 W/m² -3,1 °C -1,8 °C 0,0 km/h (0 Bft)
02.04.2018 04:08 -1,9 °C 91 % 1014,5 hPa 0,0 mm 0,0 km/h (0 Bft) N 0 ° 0 min 0,000 mm 0,0 UV-I 0 W/m² -3,2 °C -1,9 °C 0,0 km/h (0 Bft)
02.04.2018 04:12 -2,0 °C 91 % 1014,5 hPa 0,0 mm 0,0 km/h (0 Bft) S-SW 204 ° 0 min 0,000 mm 0,0 UV-I 0 W/m² -3,3 °C -2,0 °C 0,0 km/h (0 Bft)
02.04.2018 04:13 -2,0 °C 92 % 1014,5 hPa 0,0 mm 0,0 km/h (0 Bft) S-SW 204 ° 0 min 0,000 mm 0,0 UV-I 0 W/m² -3,1 °C -2,0 °C 0,0 km/h (0 Bft)
02.04.2018 04:14 -2,1 °C 92 % 1014,5 hPa 0,0 mm 0,0 km/h (0 Bft) S-SW 204 ° 0 min 0,000 mm 0,0 UV-I 0 W/m² -3,2 °C -2,1 °C 0,0 km/h (0 Bft)
02.04.2018 04:15 -2,1 °C 92 % 1014,6 hPa 0,0 mm 0,0 km/h (0 Bft) S-SW 204 ° 0 min 0,000 mm 0,0 UV-I 0 W/m² -3,2 °C -2,1 °C 0,0 km/h (0 Bft)
02.04.2018 04:16 -2,1 °C 92 % 1014,6 hPa 0,0 mm 0,0 km/h (0 Bft) S-SW 204 ° 0 min 0,000 mm 0,0 UV-I 0 W/m² -3,2 °C -2,1 °C 0,0 km/h (0 Bft)
02.04.2018 04:17 -2,1 °C 92 % 1014,6 hPa 0,0 mm 0,0 km/h (0 Bft) S-SW 204 ° 0 min 0,000 mm 0,0 UV-I 0 W/m² -3,2 °C -2,1 °C 0,0 km/h (0 Bft)
02.04.2018 04:18 -2,1 °C 92 % 1014,6 hPa 0,0 mm 0,0 km/h (0 Bft) S-SW 204 ° 0 min 0,000 mm 0,0 UV-I 0 W/m² -3,2 °C -2,1 °C 0,0 km/h (0 Bft)
02.04.2018 04:19 -2,1 °C 92 % 1014,6 hPa 0,0 mm 0,0 km/h (0 Bft) S-SW 204 ° 0 min 0,000 mm 0,0 UV-I 0 W/m² -3,2 °C -2,1 °C 0,0 km/h (0 Bft)
02.04.2018 04:20 -2,1 °C 92 % 1014,5 hPa 0,0 mm 0,0 km/h (0 Bft) S-SW 204 ° 0 min 0,000 mm 0,0 UV-I 0 W/m² -3,2 °C -2,1 °C 0,0 km/h (0 Bft)
02.04.2018 04:21 -2,1 °C 92 % 1014,5 hPa 0,0 mm 0,0 km/h (0 Bft) S-SW 204 ° 0 min 0,000 mm 0,0 UV-I 0 W/m² -3,2 °C -2,1 °C 0,0 km/h (0 Bft)
02.04.2018 04:22 -2,0 °C 92 % 1014,6 hPa 0,0 mm 0,0 km/h (0 Bft) S-SW 204 ° 0 min 0,000 mm 0,0 UV-I 0 W/m² -3,1 °C -2,0 °C 0,0 km/h (0 Bft)
02.04.2018 04:23 -2,0 °C 92 % 1014,5 hPa 0,0 mm 0,0 km/h (0 Bft) S-SW 204 ° 0 min 0,000 mm 0,0 UV-I 0 W/m² -3,1 °C -2,0 °C 0,0 km/h (0 Bft)
02.04.2018 04:24 -2,0 °C 92 % 1014,5 hPa 0,0 mm 0,0 km/h (0 Bft) S-SW 204 ° 0 min 0,000 mm 0,0 UV-I 0 W/m² -3,1 °C -2,0 °C 0,0 km/h (0 Bft)
02.04.2018 04:25 -1,9 °C 92 % 1014,6 hPa 0,0 mm 0,0 km/h (0 Bft) S-SW 204 ° 0 min 0,000 mm 0,0 UV-I 0 W/m² -3,0 °C -1,9 °C 0,0 km/h (0 Bft)
02.04.2018 04:26 -2,0 °C 92 % 1014,5 hPa 0,0 mm 0,0 km/h (0 Bft) S-SW 204 ° 0 min 0,000 mm 0,0 UV-I 0 W/m² -3,1 °C -2,0 °C 0,0 km/h (0 Bft)
02.04.2018 04:27 -2,0 °C 92 % 1014,6 hPa 0,0 mm 0,0 km/h (0 Bft) S-SW 204 ° 0 min 0,000 mm 0,0 UV-I 0 W/m² -3,1 °C -2,0 °C 0,0 km/h (0 Bft)
02.04.2018 04:28 -1,9 °C 92 % 1014,6 hPa 0,0 mm 0,0 km/h (0 Bft) S-SW 204 ° 0 min 0,000 mm 0,0 UV-I 0 W/m² -3,0 °C -1,9 °C 0,0 km/h (0 Bft)
02.04.2018 04:29 -1,9 °C 92 % 1014,5 hPa 0,0 mm 0,0 km/h (0 Bft) S-SW 204 ° 0 min 0,000 mm 0,0 UV-I 0 W/m² -3,0 °C -1,9 °C 0,0 km/h (0 Bft)
02.04.2018 04:30 -2,0 °C 92 % 1014,5 hPa 0,0 mm 0,0 km/h (0 Bft) S-SW 204 ° 0 min 0,000 mm 0,0 UV-I 0 W/m² -3,1 °C -2,0 °C 0,0 km/h (0 Bft)
02.04.2018 04:31 -1,9 °C 92 % 1014,5 hPa 0,0 mm 0,0 km/h (0 Bft) S-SW 204 ° 0 min 0,000 mm 0,0 UV-I 0 W/m² -3,0 °C -1,9 °C 0,0 km/h (0 Bft)
02.04.2018 04:32 -1,9 °C 92 % 1014,5 hPa 0,0 mm 0,0 km/h (0 Bft) S-SW 204 ° 0 min 0,000 mm 0,0 UV-I 0 W/m² -3,0 °C -1,9 °C 0,0 km/h (0 Bft)
02.04.2018 04:33 -2,0 °C 92 % 1014,5 hPa 0,0 mm 0,0 km/h (0 Bft) S-SW 204 ° 0 min 0,000 mm 0,0 UV-I 0 W/m² -3,1 °C -2,0 °C 0,0 km/h (0 Bft)
02.04.2018 04:34 -2,0 °C 92 % 1014,5 hPa 0,0 mm 0,0 km/h (0 Bft) S-SW 204 ° 0 min 0,000 mm 0,0 UV-I 0 W/m² -3,1 °C -2,0 °C 0,0 km/h (0 Bft)
02.04.2018 04:35 -2,0 °C 92 % 1014,5 hPa 0,0 mm 0,0 km/h (0 Bft) S-SW 204 ° 0 min 0,000 mm 0,0 UV-I 0 W/m² -3,1 °C -2,0 °C 0,0 km/h (0 Bft)
02.04.2018 04:36 -2,0 °C 92 % 1014,5 hPa 0,0 mm 0,0 km/h (0 Bft) S-SW 204 ° 0 min 0,000 mm 0,0 UV-I 0 W/m² -3,1 °C -2,0 °C 0,0 km/h (0 Bft)
02.04.2018 04:37 -2,0 °C 92 % 1014,5 hPa 0,0 mm 0,0 km/h (0 Bft) S-SW 204 ° 0 min 0,000 mm 0,0 UV-I 0 W/m² -3,1 °C -2,0 °C 0,0 km/h (0 Bft)
02.04.2018 04:38 -2,0 °C 92 % 1014,5 hPa 0,0 mm 0,0 km/h (0 Bft) S-SW 204 ° 0 min 0,000 mm 0,0 UV-I 0 W/m² -3,1 °C -2,0 °C 0,0 km/h (0 Bft)
02.04.2018 04:39 -1,9 °C 92 % 1014,5 hPa 0,0 mm 0,0 km/h (0 Bft) S-SW 204 ° 0 min 0,000 mm 0,0 UV-I 0 W/m² -3,0 °C -1,9 °C 0,0 km/h (0 Bft)
02.04.2018 04:40 -2,0 °C 92 % 1014,5 hPa 0,0 mm 0,0 km/h (0 Bft) S-SW 204 ° 0 min 0,000 mm 0,0 UV-I 0 W/m² -3,1 °C -2,0 °C 0,0 km/h (0 Bft)
02.04.2018 04:41 -1,9 °C 92 % 1014,5 hPa 0,0 mm 0,0 km/h (0 Bft) S-SW 204 ° 0 min 0,000 mm 0,0 UV-I 0 W/m² -3,0 °C -1,9 °C 0,0 km/h (0 Bft)
02.04.2018 04:42 -1,9 °C 92 % 1014,5 hPa 0,0 mm 0,0 km/h (0 Bft) S-SW 204 ° 0 min 0,000 mm 0,0 UV-I 0 W/m² -3,0 °C -1,9 °C 0,0 km/h (0 Bft)
02.04.2018 04:43 -1,9 °C 92 % 1014,5 hPa 0,0 mm 0,0 km/h (0 Bft) S-SW 204 ° 0 min 0,000 mm 0,0 UV-I 0 W/m² -3,0 °C -1,9 °C 0,0 km/h (0 Bft)
02.04.2018 04:44 -2,0 °C 92 % 1014,5 hPa 0,0 mm 0,0 km/h (0 Bft) S-SW 204 ° 0 min 0,000 mm 0,0 UV-I 0 W/m² -3,1 °C -2,0 °C 0,0 km/h (0 Bft)
02.04.2018 04:45 -2,1 °C 92 % 1014,5 hPa 0,0 mm 0,0 km/h (0 Bft) S-SW 204 ° 0 min 0,000 mm 0,0 UV-I 0 W/m² -3,2 °C -2,1 °C 0,0 km/h (0 Bft)
02.04.2018 04:46 -2,1 °C 92 % 1014,5 hPa 0,0 mm 0,0 km/h (0 Bft) S-SW 204 ° 0 min 0,000 mm 0,0 UV-I 0 W/m² -3,2 °C -2,1 °C 0,0 km/h (0 Bft)
02.04.2018 04:47 -2,1 °C 92 % 1014,5 hPa 0,0 mm 0,0 km/h (0 Bft) S-SW 204 ° 0 min 0,000 mm 0,0 UV-I 0 W/m² -3,2 °C -2,1 °C 0,0 km/h (0 Bft)
02.04.2018 04:48 -2,1 °C 92 % 1014,5 hPa 0,0 mm 0,0 km/h (0 Bft) S-SW 204 ° 0 min 0,000 mm 0,0 UV-I 0 W/m² -3,2 °C -2,1 °C 0,0 km/h (0 Bft)
02.04.2018 04:49 -2,1 °C 92 % 1014,5 hPa 0,0 mm 0,0 km/h (0 Bft) S-SW 204 ° 0 min 0,000 mm 0,0 UV-I 0 W/m² -3,2 °C -2,1 °C 0,0 km/h (0 Bft)
02.04.2018 04:50 -2,2 °C 92 % 1014,5 hPa 0,0 mm 0,0 km/h (0 Bft) S-SW 204 ° 0 min 0,000 mm 0,0 UV-I 0 W/m² -3,3 °C -2,2 °C 0,0 km/h (0 Bft)
02.04.2018 04:51 -2,2 °C 92 % 1014,5 hPa 0,0 mm 0,5 km/h (0 Bft) NW 305 ° 0 min 0,000 mm 0,0 UV-I 0 W/m² -3,3 °C -2,2 °C 3,2 km/h (1 Bft)
02.04.2018 04:52 -2,2 °C 92 % 1014,6 hPa 0,0 mm 0,0 km/h (0 Bft) NW 305 ° 0 min 0,000 mm 0,0 UV-I 0 W/m² -3,3 °C -2,2 °C 0,0 km/h (0 Bft)
02.04.2018 04:53 -2,1 °C 92 % 1014,6 hPa 0,0 mm 0,0 km/h (0 Bft) NW 305 ° 0 min 0,000 mm 0,0 UV-I 0 W/m² -3,2 °C -2,1 °C 0,0 km/h (0 Bft)
02.04.2018 04:54 -2,1 °C 92 % 1014,5 hPa 0,0 mm 0,0 km/h (0 Bft) NW 305 ° 0 min 0,000 mm 0,0 UV-I 0 W/m² -3,2 °C -2,1 °C 0,0 km/h (0 Bft)
02.04.2018 04:55 -2,1 °C 92 % 1014,5 hPa 0,0 mm 0,0 km/h (0 Bft) NW 305 ° 0 min 0,000 mm 0,0 UV-I 0 W/m² -3,2 °C -2,1 °C 0,0 km/h (0 Bft)
02.04.2018 04:56 -2,1 °C 92 % 1014,5 hPa 0,0 mm 0,0 km/h (0 Bft) NW 305 ° 0 min 0,000 mm 0,0 UV-I 0 W/m² -3,2 °C -2,1 °C 0,0 km/h (0 Bft)
02.04.2018 04:57 -2,2 °C 92 % 1014,5 hPa 0,0 mm 0,0 km/h (0 Bft) NW 305 ° 0 min 0,000 mm 0,0 UV-I 0 W/m² -3,3 °C -2,2 °C 0,0 km/h (0 Bft)
02.04.2018 04:58 -2,2 °C 92 % 1014,5 hPa 0,0 mm 0,0 km/h (0 Bft) NW 305 ° 0 min 0,000 mm 0,0 UV-I 0 W/m² -3,3 °C -2,2 °C 0,0 km/h (0 Bft)
02.04.2018 04:59 -2,2 °C 92 % 1014,5 hPa 0,0 mm 0,0 km/h (0 Bft) NW 305 ° 0 min 0,000 mm 0,0 UV-I 0 W/m² -3,3 °C -2,2 °C 0,0 km/h (0 Bft)
02.04.2018 05:00 -2,1 °C 92 % 1014,5 hPa 0,0 mm 0,0 km/h (0 Bft) NW 305 ° 0 min 0,000 mm 0,0 UV-I 0 W/m² -3,2 °C -2,1 °C 0,0 km/h (0 Bft)
02.04.2018 05:01 -2,1 °C 92 % 1014,5 hPa 0,0 mm 0,0 km/h (0 Bft) NW 305 ° 0 min 0,000 mm 0,0 UV-I 0 W/m² -3,2 °C -2,1 °C 0,0 km/h (0 Bft)
02.04.2018 05:02 -2,1 °C 92 % 1014,5 hPa 0,0 mm 0,0 km/h (0 Bft) NW 305 ° 0 min 0,000 mm 0,0 UV-I 0 W/m² -3,2 °C -2,1 °C 0,0 km/h (0 Bft)
02.04.2018 05:03 -2,0 °C 92 % 1014,5 hPa 0,0 mm 0,0 km/h (0 Bft) NW 305 ° 0 min 0,000 mm 0,0 UV-I 0 W/m² -3,1 °C -2,0 °C 0,0 km/h (0 Bft)
02.04.2018 05:04 -1,9 °C 92 % 1014,5 hPa 0,0 mm 0,0 km/h (0 Bft) NW 305 ° 0 min 0,000 mm 0,0 UV-I 0 W/m² -3,0 °C -1,9 °C 0,0 km/h (0 Bft)
02.04.2018 05:05 -1,9 °C 92 % 1014,4 hPa 0,0 mm 0,0 km/h (0 Bft) NW 305 ° 0 min 0,000 mm 0,0 UV-I 0 W/m² -3,0 °C -1,9 °C 0,0 km/h (0 Bft)
02.04.2018 05:06 -1,8 °C 92 % 1014,4 hPa 0,0 mm 0,0 km/h (0 Bft) W-NW 300 ° 0 min 0,000 mm 0,0 UV-I 0 W/m² -2,9 °C -1,8 °C 0,0 km/h (0 Bft)
02.04.2018 05:07 -1,8 °C 92 % 1014,4 hPa 0,0 mm 0,0 km/h (0 Bft) SW 215 ° 0 min 0,000 mm 0,0 UV-I 0 W/m² -2,9 °C -1,8 °C 0,0 km/h (0 Bft)
02.04.2018 05:08 -1,8 °C 92 % 1014,4 hPa 0,0 mm 0,0 km/h (0 Bft) SW 215 ° 0 min 0,000 mm 0,0 UV-I 0 W/m² -2,9 °C -1,8 °C 0,0 km/h (0 Bft)
02.04.2018 05:09 -1,8 °C 92 % 1014,4 hPa 0,0 mm 0,0 km/h (0 Bft) SW 215 ° 0 min 0,000 mm 0,0 UV-I 0 W/m² -2,9 °C -1,8 °C 0,0 km/h (0 Bft)
02.04.2018 05:10 -1,8 °C 92 % 1014,4 hPa 0,0 mm 0,0 km/h (0 Bft) SW 215 ° 0 min 0,000 mm 0,0 UV-I 0 W/m² -2,9 °C -1,8 °C 0,0 km/h (0 Bft)
02.04.2018 05:11 -1,8 °C 92 % 1014,4 hPa 0,0 mm 0,0 km/h (0 Bft) SW 215 ° 0 min 0,000 mm 0,0 UV-I 0 W/m² -2,9 °C -1,8 °C 0,0 km/h (0 Bft)
02.04.2018 05:12 -1,8 °C 92 % 1014,4 hPa 0,0 mm 0,0 km/h (0 Bft) SW 215 ° 0 min 0,000 mm 0,0 UV-I 0 W/m² -2,9 °C -1,8 °C 0,0 km/h (0 Bft)
02.04.2018 05:13 -1,7 °C 92 % 1014,4 hPa 0,0 mm 0,0 km/h (0 Bft) SW 215 ° 0 min 0,000 mm 0,0 UV-I 0 W/m² -2,8 °C -1,7 °C 0,0 km/h (0 Bft)
02.04.2018 05:14 -1,8 °C 92 % 1014,4 hPa 0,0 mm 0,0 km/h (0 Bft) SW 215 ° 0 min 0,000 mm 0,0 UV-I 0 W/m² -2,9 °C -1,8 °C 0,0 km/h (0 Bft)
02.04.2018 05:15 -1,8 °C 92 % 1014,4 hPa 0,0 mm 0,0 km/h (0 Bft) SW 215 ° 0 min 0,000 mm 0,0 UV-I 0 W/m² -2,9 °C -1,8 °C 0,0 km/h (0 Bft)
02.04.2018 05:16 -1,8 °C 92 % 1014,3 hPa 0,0 mm 0,0 km/h (0 Bft) SW 215 ° 0 min 0,000 mm 0,0 UV-I 0 W/m² -2,9 °C -1,8 °C 0,0 km/h (0 Bft)
02.04.2018 05:17 -1,7 °C 92 % 1014,4 hPa 0,0 mm 1,6 km/h (1 Bft) S-SW 197 ° 0 min 0,000 mm 0,0 UV-I 0 W/m² -2,8 °C -1,7 °C 3,2 km/h (1 Bft)
02.04.2018 05:18 -1,6 °C 92 % 1014,3 hPa 0,0 mm 0,5 km/h (0 Bft) S-SW 197 ° 0 min 0,000 mm 0,0 UV-I 0 W/m² -2,7 °C -1,6 °C 1,6 km/h (1 Bft)
02.04.2018 05:19 -1,6 °C 92 % 1014,3 hPa 0,0 mm 0,0 km/h (0 Bft) S-SW 197 ° 0 min 0,000 mm 0,0 UV-I 0 W/m² -2,7 °C -1,6 °C 0,0 km/h (0 Bft)
02.04.2018 05:20 -1,6 °C 91 % 1014,3 hPa 0,0 mm 0,0 km/h (0 Bft) S-SW 197 ° 0 min 0,000 mm 0,0 UV-I 0 W/m² -2,9 °C -1,6 °C 0,0 km/h (0 Bft)
02.04.2018 05:21 -1,6 °C 91 % 1014,3 hPa 0,0 mm 0,9 km/h (0 Bft) S 181 ° 0 min 0,000 mm 0,0 UV-I 0 W/m² -2,9 °C -1,6 °C 3,2 km/h (1 Bft)
02.04.2018 05:22 -1,6 °C 91 % 1014,3 hPa 0,0 mm 0,5 km/h (0 Bft) S 181 ° 0 min 0,000 mm 0,0 UV-I 0 W/m² -2,9 °C -1,6 °C 3,2 km/h (1 Bft)
02.04.2018 05:23 -1,4 °C 91 % 1014,3 hPa 0,0 mm 0,1 km/h (0 Bft) S 181 ° 0 min 0,000 mm 0,0 UV-I 0 W/m² -2,7 °C -1,4 °C 1,6 km/h (1 Bft)
02.04.2018 05:24 -1,4 °C 91 % 1014,2 hPa 0,0 mm 0,0 km/h (0 Bft) S 181 ° 0 min 0,000 mm 0,0 UV-I 0 W/m² -2,7 °C -1,4 °C 0,0 km/h (0 Bft)
02.04.2018 05:25 -1,5 °C 91 % 1014,3 hPa 0,0 mm 0,0 km/h (0 Bft) S 181 ° 0 min 0,000 mm 0,0 UV-I 0 W/m² -2,8 °C -1,5 °C 0,0 km/h (0 Bft)
02.04.2018 05:26 -1,6 °C 91 % 1014,3 hPa 0,0 mm 0,0 km/h (0 Bft) S 181 ° 0 min 0,000 mm 0,0 UV-I 0 W/m² -2,9 °C -1,6 °C 0,0 km/h (0 Bft)
02.04.2018 05:27 -1,6 °C 91 % 1014,3 hPa 0,0 mm 0,0 km/h (0 Bft) S 181 ° 0 min 0,000 mm 0,0 UV-I 0 W/m² -2,9 °C -1,6 °C 0,0 km/h (0 Bft)
02.04.2018 05:28 -1,6 °C 91 % 1014,3 hPa 0,0 mm 0,0 km/h (0 Bft) S 181 ° 0 min 0,000 mm 0,0 UV-I 0 W/m² -2,9 °C -1,6 °C 0,0 km/h (0 Bft)
02.04.2018 05:29 -1,6 °C 91 % 1014,2 hPa 0,0 mm 0,0 km/h (0 Bft) S 181 ° 0 min 0,000 mm 0,0 UV-I 0 W/m² -2,9 °C -1,6 °C 0,0 km/h (0 Bft)
02.04.2018 05:30 -1,5 °C 91 % 1014,2 hPa 0,0 mm 0,0 km/h (0 Bft) S 181 ° 0 min 0,000 mm 0,0 UV-I 0 W/m² -2,8 °C -1,5 °C 0,0 km/h (0 Bft)
02.04.2018 05:31 -1,6 °C 91 % 1014,2 hPa 0,0 mm 0,0 km/h (0 Bft) S 181 ° 0 min 0,000 mm 0,0 UV-I 0 W/m² -2,9 °C -1,6 °C 0,0 km/h (0 Bft)
02.04.2018 05:32 -1,6 °C 91 % 1014,2 hPa 0,0 mm 0,0 km/h (0 Bft) S 181 ° 0 min 0,000 mm 0,0 UV-I 0 W/m² -2,9 °C -1,6 °C 0,0 km/h (0 Bft)
02.04.2018 05:33 -1,6 °C 91 % 1014,3 hPa 0,0 mm 0,2 km/h (0 Bft) S 181 ° 0 min 0,000 mm 0,0 UV-I 0 W/m² -2,9 °C -1,6 °C 1,6 km/h (1 Bft)
02.04.2018 05:34 -1,6 °C 91 % 1014,2 hPa 0,0 mm 0,0 km/h (0 Bft) S 181 ° 0 min 0,000 mm 0,0 UV-I 0 W/m² -2,9 °C -1,6 °C 0,0 km/h (0 Bft)
02.04.2018 05:35 -1,6 °C 91 % 1014,2 hPa 0,0 mm 0,1 km/h (0 Bft) S 181 ° 0 min 0,000 mm 0,0 UV-I 0 W/m² -2,9 °C -1,6 °C 1,6 km/h (1 Bft)
02.04.2018 05:36 -1,6 °C 91 % 1014,3 hPa 0,0 mm 0,0 km/h (0 Bft) S 181 ° 0 min 0,000 mm 0,0 UV-I 0 W/m² -2,9 °C -1,6 °C 0,0 km/h (0 Bft)
02.04.2018 05:37 -1,6 °C 91 % 1014,3 hPa 0,0 mm 0,0 km/h (0 Bft) S 181 ° 0 min 0,000 mm 0,0 UV-I 0 W/m² -2,9 °C -1,6 °C 0,0 km/h (0 Bft)
02.04.2018 05:38 -1,7 °C 91 % 1014,2 hPa 0,0 mm 0,3 km/h (0 Bft) S 181 ° 0 min 0,000 mm 0,0 UV-I 0 W/m² -3,0 °C -1,7 °C 1,6 km/h (1 Bft)
02.04.2018 05:39 -1,6 °C 91 % 1014,2 hPa 0,0 mm 0,0 km/h (0 Bft) S 181 ° 0 min 0,000 mm 0,0 UV-I 0 W/m² -2,9 °C -1,6 °C 0,0 km/h (0 Bft)
02.04.2018 05:40 -1,7 °C 91 % 1014,2 hPa 0,0 mm 0,0 km/h (0 Bft) S 181 ° 0 min 0,000 mm 0,0 UV-I 0 W/m² -3,0 °C -1,7 °C 0,0 km/h (0 Bft)
02.04.2018 05:41 -1,6 °C 91 % 1014,2 hPa 0,0 mm 0,0 km/h (0 Bft) S 181 ° 0 min 0,000 mm 0,0 UV-I 0 W/m² -2,9 °C -1,6 °C 0,0 km/h (0 Bft)
02.04.2018 05:42 -1,6 °C 91 % 1014,2 hPa 0,0 mm 0,0 km/h (0 Bft) S 181 ° 0 min 0,000 mm 0,0 UV-I 0 W/m² -2,9 °C -1,6 °C 0,0 km/h (0 Bft)
02.04.2018 05:43 -1,6 °C 91 % 1014,2 hPa 0,0 mm 0,0 km/h (0 Bft) S 181 ° 0 min 0,000 mm 0,0 UV-I 0 W/m² -2,9 °C -1,6 °C 0,0 km/h (0 Bft)
02.04.2018 05:44 -1,7 °C 91 % 1014,2 hPa 0,0 mm 0,0 km/h (0 Bft) S 181 ° 0 min 0,000 mm 0,0 UV-I 0 W/m² -3,0 °C -1,7 °C 0,0 km/h (0 Bft)
02.04.2018 05:45 -1,7 °C 91 % 1014,3 hPa 0,0 mm 0,0 km/h (0 Bft) S 181 ° 0 min 0,000 mm 0,0 UV-I 0 W/m² -3,0 °C -1,7 °C 0,0 km/h (0 Bft)
02.04.2018 05:46 -1,8 °C 90 % 1014,3 hPa 0,0 mm 0,0 km/h (0 Bft) S 181 ° 0 min 0,000 mm 0,0 UV-I 0 W/m² -3,2 °C -1,8 °C 0,0 km/h (0 Bft)
02.04.2018 05:47 -1,8 °C 90 % 1014,3 hPa 0,0 mm 0,0 km/h (0 Bft) S 181 ° 0 min 0,000 mm 0,0 UV-I 0 W/m² -3,2 °C -1,8 °C 0,0 km/h (0 Bft)
02.04.2018 05:48 -1,9 °C 90 % 1014,3 hPa 0,0 mm 0,0 km/h (0 Bft) S 181 ° 0 min 0,000 mm 0,0 UV-I 0 W/m² -3,3 °C -1,9 °C 0,0 km/h (0 Bft)
02.04.2018 05:49 -2,0 °C 90 % 1014,3 hPa 0,0 mm 0,0 km/h (0 Bft) S 181 ° 0 min 0,000 mm 0,0 UV-I 0 W/m² -3,4 °C -2,0 °C 0,0 km/h (0 Bft)
02.04.2018 05:50 -2,1 °C 90 % 1014,3 hPa 0,0 mm 0,0 km/h (0 Bft) S 181 ° 0 min 0,000 mm 0,0 UV-I 0 W/m² -3,5 °C -2,1 °C 0,0 km/h (0 Bft)
02.04.2018 05:51 -2,1 °C 90 % 1014,3 hPa 0,0 mm 0,0 km/h (0 Bft) S 181 ° 0 min 0,000 mm 0,0 UV-I 0 W/m² -3,5 °C -2,1 °C 0,0 km/h (0 Bft)
02.04.2018 05:52 -2,2 °C 90 % 1014,3 hPa 0,0 mm 0,0 km/h (0 Bft) S 181 ° 0 min 0,000 mm 0,0 UV-I 0 W/m² -3,6 °C -2,2 °C 0,0 km/h (0 Bft)
02.04.2018 05:53 -2,2 °C 90 % 1014,4 hPa 0,0 mm 0,0 km/h (0 Bft) S 181 ° 0 min 0,000 mm 0,0 UV-I 0 W/m² -3,6 °C -2,2 °C 0,0 km/h (0 Bft)
02.04.2018 05:54 -2,3 °C 90 % 1014,4 hPa 0,0 mm 0,0 km/h (0 Bft) S 181 ° 0 min 0,000 mm 0,0 UV-I 0 W/m² -3,7 °C -2,3 °C 0,0 km/h (0 Bft)
02.04.2018 05:55 -2,3 °C 90 % 1014,4 hPa 0,0 mm 0,0 km/h (0 Bft) S 181 ° 0 min 0,000 mm 0,0 UV-I 0 W/m² -3,7 °C -2,3 °C 0,0 km/h (0 Bft)
02.04.2018 05:56 -2,3 °C 91 % 1014,4 hPa 0,0 mm 0,0 km/h (0 Bft) S 181 ° 0 min 0,000 mm 0,0 UV-I 0 W/m² -3,6 °C -2,3 °C 0,0 km/h (0 Bft)
02.04.2018 05:57 -2,4 °C 91 % 1014,4 hPa 0,0 mm 0,0 km/h (0 Bft) S 181 ° 0 min 0,000 mm 0,0 UV-I 0 W/m² -3,7 °C -2,4 °C 0,0 km/h (0 Bft)
02.04.2018 05:58 -2,4 °C 90 % 1014,4 hPa 0,0 mm 0,0 km/h (0 Bft) S 181 ° 0 min 0,000 mm 0,0 UV-I 0 W/m² -3,8 °C -2,4 °C 0,0 km/h (0 Bft)
02.04.2018 05:59 -2,4 °C 91 % 1014,4 hPa 0,0 mm 0,0 km/h (0 Bft) S 181 ° 0 min 0,000 mm 0,0 UV-I 0 W/m² -3,7 °C -2,4 °C 0,0 km/h (0 Bft)
02.04.2018 06:00 -2,4 °C 91 % 1014,4 hPa 0,0 mm 0,0 km/h (0 Bft) S 181 ° 0 min 0,000 mm 0,0 UV-I 0 W/m² -3,7 °C -2,4 °C 0,0 km/h (0 Bft)
02.04.2018 06:01 -2,4 °C 91 % 1014,4 hPa 0,0 mm 0,0 km/h (0 Bft) S 181 ° 0 min 0,000 mm 0,0 UV-I 0 W/m² -3,7 °C -2,4 °C 0,0 km/h (0 Bft)
02.04.2018 06:02 -2,3 °C 91 % 1014,4 hPa 0,0 mm 0,0 km/h (0 Bft) S 181 ° 0 min 0,000 mm 0,0 UV-I 0 W/m² -3,6 °C -2,3 °C 0,0 km/h (0 Bft)
02.04.2018 06:03 -2,2 °C 91 % 1014,4 hPa 0,0 mm 0,0 km/h (0 Bft) S 181 ° 0 min 0,000 mm 0,0 UV-I 0 W/m² -3,5 °C -2,2 °C 0,0 km/h (0 Bft)
02.04.2018 06:04 -2,1 °C 91 % 1014,4 hPa 0,0 mm 0,0 km/h (0 Bft) S 181 ° 0 min 0,000 mm 0,0 UV-I 0 W/m² -3,4 °C -2,1 °C 0,0 km/h (0 Bft)
02.04.2018 06:05 -2,1 °C 92 % 1014,4 hPa 0,0 mm 0,0 km/h (0 Bft) S 181 ° 0 min 0,000 mm 0,0 UV-I 0 W/m² -3,2 °C -2,1 °C 0,0 km/h (0 Bft)
02.04.2018 06:06 -2,1 °C 91 % 1014,3 hPa 0,0 mm 0,0 km/h (0 Bft) S 181 ° 0 min 0,000 mm 0,0 UV-I 0 W/m² -3,4 °C -2,1 °C 0,0 km/h (0 Bft)
02.04.2018 06:07 -2,0 °C 91 % 1014,3 hPa 0,0 mm 0,6 km/h (0 Bft) S 181 ° 0 min 0,000 mm 0,0 UV-I 0 W/m² -3,3 °C -2,0 °C 1,6 km/h (1 Bft)
02.04.2018 06:08 -1,9 °C 91 % 1014,2 hPa 0,0 mm 0,0 km/h (0 Bft) S 181 ° 0 min 0,000 mm 0,0 UV-I 0 W/m² -3,2 °C -1,9 °C 0,0 km/h (0 Bft)
02.04.2018 06:09 -1,9 °C 91 % 1014,2 hPa 0,0 mm 0,0 km/h (0 Bft) S 181 ° 0 min 0,000 mm 0,0 UV-I 0 W/m² -3,2 °C -1,9 °C 0,0 km/h (0 Bft)
02.04.2018 06:10 -2,0 °C 91 % 1014,3 hPa 0,0 mm 0,0 km/h (0 Bft) S 181 ° 0 min 0,000 mm 0,0 UV-I 0 W/m² -3,3 °C -2,0 °C 0,0 km/h (0 Bft)
02.04.2018 06:11 -2,0 °C 91 % 1014,3 hPa 0,0 mm 0,0 km/h (0 Bft) S 181 ° 0 min 0,000 mm 0,0 UV-I 0 W/m² -3,3 °C -2,0 °C 0,0 km/h (0 Bft)
02.04.2018 06:12 -2,1 °C 91 % 1014,3 hPa 0,0 mm 0,0 km/h (0 Bft) S 181 ° 0 min 0,000 mm 0,0 UV-I 0 W/m² -3,4 °C -2,1 °C 0,0 km/h (0 Bft)
02.04.2018 06:13 -2,2 °C 90 % 1014,3 hPa 0,0 mm 0,0 km/h (0 Bft) S 181 ° 0 min 0,000 mm 0,0 UV-I 0 W/m² -3,6 °C -2,2 °C 0,0 km/h (0 Bft)
02.04.2018 06:14 -2,3 °C 90 % 1014,3 hPa 0,0 mm 0,0 km/h (0 Bft) S 181 ° 0 min 0,000 mm 0,0 UV-I 0 W/m² -3,7 °C -2,3 °C 0,0 km/h (0 Bft)
02.04.2018 06:15 -2,3 °C 90 % 1014,3 hPa 0,0 mm 0,0 km/h (0 Bft) S 181 ° 0 min 0,000 mm 0,0 UV-I 0 W/m² -3,7 °C -2,3 °C 0,0 km/h (0 Bft)
02.04.2018 06:16 -2,3 °C 91 % 1014,3 hPa 0,0 mm 0,0 km/h (0 Bft) S 181 ° 0 min 0,000 mm 0,0 UV-I 0 W/m² -3,6 °C -2,3 °C 0,0 km/h (0 Bft)
02.04.2018 06:17 -2,3 °C 91 % 1014,3 hPa 0,0 mm 0,0 km/h (0 Bft) S 181 ° 0 min 0,000 mm 0,0 UV-I 0 W/m² -3,6 °C -2,3 °C 0,0 km/h (0 Bft)
02.04.2018 06:18 -2,2 °C 91 % 1014,3 hPa 0,0 mm 0,0 km/h (0 Bft) S 181 ° 0 min 0,000 mm 0,0 UV-I 0 W/m² -3,5 °C -2,2 °C 0,0 km/h (0 Bft)
02.04.2018 06:19 -2,1 °C 91 % 1014,3 hPa 0,0 mm 0,0 km/h (0 Bft) S 181 ° 0 min 0,000 mm 0,0 UV-I 0 W/m² -3,4 °C -2,1 °C 0,0 km/h (0 Bft)
02.04.2018 06:20 -2,0 °C 92 % 1014,3 hPa 0,0 mm 0,0 km/h (0 Bft) S 181 ° 0 min 0,000 mm 0,0 UV-I 0 W/m² -3,1 °C -2,0 °C 0,0 km/h (0 Bft)
02.04.2018 06:21 -1,9 °C 91 % 1014,3 hPa 0,0 mm 0,0 km/h (0 Bft) S 181 ° 0 min 0,000 mm 0,0 UV-I 0 W/m² -3,2 °C -1,9 °C 0,0 km/h (0 Bft)
02.04.2018 06:22 -1,8 °C 91 % 1014,3 hPa 0,0 mm 0,0 km/h (0 Bft) S 181 ° 0 min 0,000 mm 0,0 UV-I 0 W/m² -3,1 °C -1,8 °C 0,0 km/h (0 Bft)
02.04.2018 06:23 -1,8 °C 91 % 1014,3 hPa 0,0 mm 0,0 km/h (0 Bft) S 181 ° 0 min 0,000 mm 0,0 UV-I 0 W/m² -3,1 °C -1,8 °C 0,0 km/h (0 Bft)
02.04.2018 06:24 -1,9 °C 90 % 1014,3 hPa 0,0 mm 0,0 km/h (0 Bft) S 181 ° 0 min 0,000 mm 0,0 UV-I 0 W/m² -3,3 °C -1,9 °C 0,0 km/h (0 Bft)
02.04.2018 06:25 -2,1 °C 90 % 1014,3 hPa 0,0 mm 0,0 km/h (0 Bft) S 181 ° 0 min 0,000 mm 0,0 UV-I 0 W/m² -3,5 °C -2,1 °C 0,0 km/h (0 Bft)
02.04.2018 06:26 -2,2 °C 90 % 1014,3 hPa 0,0 mm 0,0 km/h (0 Bft) S 181 ° 0 min 0,000 mm 0,0 UV-I 0 W/m² -3,6 °C -2,2 °C 0,0 km/h (0 Bft)
02.04.2018 06:27 -2,2 °C 90 % 1014,3 hPa 0,0 mm 0,0 km/h (0 Bft) S 181 ° 0 min 0,000 mm 0,0 UV-I 0 W/m² -3,6 °C -2,2 °C 0,0 km/h (0 Bft)
02.04.2018 06:28 -2,3 °C 90 % 1014,3 hPa 0,0 mm 0,0 km/h (0 Bft) S 181 ° 0 min 0,000 mm 0,0 UV-I 0 W/m² -3,7 °C -2,3 °C 0,0 km/h (0 Bft)
02.04.2018 06:29 -2,3 °C 90 % 1014,3 hPa 0,0 mm 0,0 km/h (0 Bft) S 181 ° 0 min 0,000 mm 0,0 UV-I 0 W/m² -3,7 °C -2,3 °C 0,0 km/h (0 Bft)
02.04.2018 06:30 -2,3 °C 90 % 1014,3 hPa 0,0 mm 0,0 km/h (0 Bft) S 181 ° 0 min 0,000 mm 0,0 UV-I 0 W/m² -3,7 °C -2,3 °C 0,0 km/h (0 Bft)
02.04.2018 06:31 -2,3 °C 91 % 1014,3 hPa 0,0 mm 0,0 km/h (0 Bft) S 181 ° 0 min 0,000 mm 0,0 UV-I 0 W/m² -3,6 °C -2,3 °C 0,0 km/h (0 Bft)
02.04.2018 06:32 -2,3 °C 91 % 1014,3 hPa 0,0 mm 0,0 km/h (0 Bft) S 181 ° 0 min 0,000 mm 0,0 UV-I 0 W/m² -3,6 °C -2,3 °C 0,0 km/h (0 Bft)
02.04.2018 06:33 -2,3 °C 91 % 1014,3 hPa 0,0 mm 0,0 km/h (0 Bft) S 181 ° 0 min 0,000 mm 0,0 UV-I 0 W/m² -3,6 °C -2,3 °C 0,0 km/h (0 Bft)
02.04.2018 06:34 -2,3 °C 91 % 1014,3 hPa 0,0 mm 0,0 km/h (0 Bft) S 181 ° 0 min 0,000 mm 0,0 UV-I 0 W/m² -3,6 °C -2,3 °C 0,0 km/h (0 Bft)
02.04.2018 06:35 -2,4 °C 91 % 1014,3 hPa 0,0 mm 0,0 km/h (0 Bft) S 181 ° 0 min 0,000 mm 0,0 UV-I 0 W/m² -3,7 °C -2,4 °C 0,0 km/h (0 Bft)
02.04.2018 06:36 -2,5 °C 90 % 1014,3 hPa 0,0 mm 0,0 km/h (0 Bft) S 181 ° 0 min 0,000 mm 0,0 UV-I 0 W/m² -3,9 °C -2,5 °C 0,0 km/h (0 Bft)
02.04.2018 06:37 -2,6 °C 90 % 1014,2 hPa 0,0 mm 0,0 km/h (0 Bft) S 181 ° 0 min 0,000 mm 0,0 UV-I 0 W/m² -4,0 °C -2,6 °C 0,0 km/h (0 Bft)
02.04.2018 06:38 -2,7 °C 90 % 1014,2 hPa 0,0 mm 0,0 km/h (0 Bft) S 181 ° 0 min 0,000 mm 0,0 UV-I 0 W/m² -4,1 °C -2,7 °C 0,0 km/h (0 Bft)
02.04.2018 06:39 -2,7 °C 91 % 1014,3 hPa 0,0 mm 0,0 km/h (0 Bft) S 181 ° 0 min 0,000 mm 0,0 UV-I 0 W/m² -4,0 °C -2,7 °C 0,0 km/h (0 Bft)
02.04.2018 06:40 -2,7 °C 91 % 1014,2 hPa 0,0 mm 0,0 km/h (0 Bft) S 181 ° 0 min 0,000 mm 0,0 UV-I 0 W/m² -4,0 °C -2,7 °C 0,0 km/h (0 Bft)
02.04.2018 06:41 -2,8 °C 91 % 1014,2 hPa 0,0 mm 0,0 km/h (0 Bft) S 181 ° 0 min 0,000 mm 0,0 UV-I 0 W/m² -4,1 °C -2,8 °C 0,0 km/h (0 Bft)
02.04.2018 06:42 -2,8 °C 91 % 1014,2 hPa 0,0 mm 0,0 km/h (0 Bft) S 181 ° 0 min 0,000 mm 0,0 UV-I 0 W/m² -4,1 °C -2,8 °C 0,0 km/h (0 Bft)
02.04.2018 06:43 -2,8 °C 91 % 1014,2 hPa 0,0 mm 0,0 km/h (0 Bft) S 181 ° 0 min 0,000 mm 0,0 UV-I 0 W/m² -4,1 °C -2,8 °C 0,0 km/h (0 Bft)
02.04.2018 06:44 -2,8 °C 91 % 1014,2 hPa 0,0 mm 0,0 km/h (0 Bft) S 181 ° 0 min 0,000 mm 0,0 UV-I 0 W/m² -4,1 °C -2,8 °C 0,0 km/h (0 Bft)
02.04.2018 06:45 -2,9 °C 91 % 1014,2 hPa 0,0 mm 0,0 km/h (0 Bft) S 181 ° 0 min 0,000 mm 0,0 UV-I 0 W/m² -4,2 °C -2,9 °C 0,0 km/h (0 Bft)
02.04.2018 06:46 -2,9 °C 91 % 1014,2 hPa 0,0 mm 0,0 km/h (0 Bft) S 181 ° 0 min 0,000 mm 0,0 UV-I 0 W/m² -4,2 °C -2,9 °C 0,0 km/h (0 Bft)
02.04.2018 06:47 -2,9 °C 91 % 1014,2 hPa 0,0 mm 0,0 km/h (0 Bft) S 181 ° 0 min 0,000 mm 0,0 UV-I 0 W/m² -4,2 °C -2,9 °C 0,0 km/h (0 Bft)
02.04.2018 06:48 -2,8 °C 91 % 1014,2 hPa 0,0 mm 0,0 km/h (0 Bft) S 181 ° 0 min 0,000 mm 0,0 UV-I 0 W/m² -4,1 °C -2,8 °C 0,0 km/h (0 Bft)
02.04.2018 06:49 -2,8 °C 91 % 1014,2 hPa 0,0 mm 0,0 km/h (0 Bft) S 181 ° 0 min 0,000 mm 0,0 UV-I 0 W/m² -4,1 °C -2,8 °C 0,0 km/h (0 Bft)
02.04.2018 06:50 -2,8 °C 91 % 1014,2 hPa 0,0 mm 0,0 km/h (0 Bft) S 181 ° 0 min 0,000 mm 0,0 UV-I 0 W/m² -4,1 °C -2,8 °C 0,0 km/h (0 Bft)
02.04.2018 06:51 -2,7 °C 92 % 1014,2 hPa 0,0 mm 0,0 km/h (0 Bft) S 181 ° 0 min 0,000 mm 0,0 UV-I 0 W/m² -3,8 °C -2,7 °C 0,0 km/h (0 Bft)
02.04.2018 06:52 -2,7 °C 92 % 1014,1 hPa 0,0 mm 0,0 km/h (0 Bft) S 181 ° 0 min 0,000 mm 0,0 UV-I 0 W/m² -3,8 °C -2,7 °C 0,0 km/h (0 Bft)
02.04.2018 06:53 -2,7 °C 91 % 1014,1 hPa 0,0 mm 0,0 km/h (0 Bft) S 181 ° 0 min 0,000 mm 0,0 UV-I 0 W/m² -4,0 °C -2,7 °C 0,0 km/h (0 Bft)
02.04.2018 06:54 -2,8 °C 91 % 1014,1 hPa 0,0 mm 0,0 km/h (0 Bft) S 181 ° 0 min 0,000 mm 0,0 UV-I 0 W/m² -4,1 °C -2,8 °C 0,0 km/h (0 Bft)
02.04.2018 06:55 -2,8 °C 91 % 1014,1 hPa 0,0 mm 0,0 km/h (0 Bft) S 181 ° 0 min 0,000 mm 0,0 UV-I 0 W/m² -4,1 °C -2,8 °C 0,0 km/h (0 Bft)
02.04.2018 06:56 -2,8 °C 91 % 1014,1 hPa 0,0 mm 0,0 km/h (0 Bft) S 181 ° 0 min 0,000 mm 0,0 UV-I 5 W/m² -4,1 °C -2,8 °C 0,0 km/h (0 Bft)
02.04.2018 06:57 -2,8 °C 91 % 1014,1 hPa 0,0 mm 0,0 km/h (0 Bft) S 181 ° 0 min 0,000 mm 0,0 UV-I 5 W/m² -4,1 °C -2,8 °C 0,0 km/h (0 Bft)
02.04.2018 06:58 -2,9 °C 91 % 1014,0 hPa 0,0 mm 0,0 km/h (0 Bft) S 181 ° 0 min 0,000 mm 0,0 UV-I 5 W/m² -4,2 °C -2,9 °C 0,0 km/h (0 Bft)
02.04.2018 06:59 -2,9 °C 91 % 1014,0 hPa 0,0 mm 0,0 km/h (0 Bft) S 181 ° 0 min 0,000 mm 0,0 UV-I 5 W/m² -4,2 °C -2,9 °C 0,0 km/h (0 Bft)
02.04.2018 07:00 -2,9 °C 91 % 1014,0 hPa 0,0 mm 0,0 km/h (0 Bft) S 181 ° 0 min 0,000 mm 0,0 UV-I 5 W/m² -4,2 °C -2,9 °C 0,0 km/h (0 Bft)
02.04.2018 07:01 -2,9 °C 91 % 1014,1 hPa 0,0 mm 0,0 km/h (0 Bft) S 181 ° 0 min 0,000 mm 0,0 UV-I 5 W/m² -4,2 °C -2,9 °C 0,0 km/h (0 Bft)
02.04.2018 07:02 -2,9 °C 91 % 1014,0 hPa 0,0 mm 0,0 km/h (0 Bft) S 181 ° 0 min 0,000 mm 0,0 UV-I 5 W/m² -4,2 °C -2,9 °C 0,0 km/h (0 Bft)
02.04.2018 07:03 -2,8 °C 92 % 1014,0 hPa 0,0 mm 0,0 km/h (0 Bft) S 181 ° 0 min 0,000 mm 0,0 UV-I 5 W/m² -3,9 °C -2,8 °C 0,0 km/h (0 Bft)
02.04.2018 07:04 -2,8 °C 92 % 1014,0 hPa 0,0 mm 0,0 km/h (0 Bft) S 181 ° 0 min 0,000 mm 0,0 UV-I 7 W/m² -3,9 °C -2,8 °C 0,0 km/h (0 Bft)
02.04.2018 07:05 -2,7 °C 92 % 1014,0 hPa 0,0 mm 0,0 km/h (0 Bft) S 181 ° 0 min 0,000 mm 0,0 UV-I 7 W/m² -3,8 °C -2,7 °C 0,0 km/h (0 Bft)
02.04.2018 07:06 -2,6 °C 92 % 1014,0 hPa 0,0 mm 0,0 km/h (0 Bft) S 181 ° 0 min 0,000 mm 0,0 UV-I 7 W/m² -3,7 °C -2,6 °C 0,0 km/h (0 Bft)
02.04.2018 07:07 -2,6 °C 92 % 1014,0 hPa 0,0 mm 0,0 km/h (0 Bft) S 181 ° 0 min 0,000 mm 0,0 UV-I 7 W/m² -3,7 °C -2,6 °C 0,0 km/h (0 Bft)
02.04.2018 07:08 -2,6 °C 92 % 1014,0 hPa 0,0 mm 0,0 km/h (0 Bft) S 181 ° 0 min 0,000 mm 0,0 UV-I 9 W/m² -3,7 °C -2,6 °C 0,0 km/h (0 Bft)
02.04.2018 07:09 -2,6 °C 92 % 1014,0 hPa 0,0 mm 0,0 km/h (0 Bft) S 181 ° 0 min 0,000 mm 0,0 UV-I 9 W/m² -3,7 °C -2,6 °C 0,0 km/h (0 Bft)
02.04.2018 07:10 -2,6 °C 91 % 1014,0 hPa 0,0 mm 0,0 km/h (0 Bft) S 181 ° 0 min 0,000 mm 0,0 UV-I 9 W/m² -3,9 °C -2,6 °C 0,0 km/h (0 Bft)
02.04.2018 07:11 -2,6 °C 91 % 1014,0 hPa 0,0 mm 0,0 km/h (0 Bft) S 181 ° 0 min 0,000 mm 0,0 UV-I 9 W/m² -3,9 °C -2,6 °C 0,0 km/h (0 Bft)
02.04.2018 07:12 -2,7 °C 91 % 1014,0 hPa 0,0 mm 0,0 km/h (0 Bft) S 181 ° 0 min 0,000 mm 0,0 UV-I 9 W/m² -4,0 °C -2,7 °C 0,0 km/h (0 Bft)
02.04.2018 07:13 -2,7 °C 91 % 1014,0 hPa 0,0 mm 0,0 km/h (0 Bft) S 181 ° 0 min 0,000 mm 0,0 UV-I 11 W/m² -4,0 °C -2,7 °C 0,0 km/h (0 Bft)
02.04.2018 07:14 -2,7 °C 91 % 1014,0 hPa 0,0 mm 0,0 km/h (0 Bft) S 181 ° 0 min 0,000 mm 0,0 UV-I 11 W/m² -4,0 °C -2,7 °C 0,0 km/h (0 Bft)
02.04.2018 07:15 -2,7 °C 91 % 1014,0 hPa 0,0 mm 0,0 km/h (0 Bft) S 181 ° 0 min 0,000 mm 0,0 UV-I 11 W/m² -4,0 °C -2,7 °C 0,0 km/h (0 Bft)
02.04.2018 07:16 -2,6 °C 91 % 1014,0 hPa 0,0 mm 0,0 km/h (0 Bft) S 181 ° 0 min 0,000 mm 0,0 UV-I 11 W/m² -3,9 °C -2,6 °C 0,0 km/h (0 Bft)
02.04.2018 07:17 -2,6 °C 91 % 1014,0 hPa 0,0 mm 0,0 km/h (0 Bft) S 181 ° 0 min 0,000 mm 0,0 UV-I 11 W/m² -3,9 °C -2,6 °C 0,0 km/h (0 Bft)
02.04.2018 07:18 -2,6 °C 91 % 1014,1 hPa 0,0 mm 0,0 km/h (0 Bft) S 181 ° 0 min 0,000 mm 0,0 UV-I 12 W/m² -3,9 °C -2,6 °C 0,0 km/h (0 Bft)
02.04.2018 07:19 -2,6 °C 91 % 1014,0 hPa 0,0 mm 0,0 km/h (0 Bft) S 181 ° 0 min 0,000 mm 0,0 UV-I 12 W/m² -3,9 °C -2,6 °C 0,0 km/h (0 Bft)
02.04.2018 07:20 -2,4 °C 91 % 1014,1 hPa 0,0 mm 0,0 km/h (0 Bft) S 181 ° 0 min 0,000 mm 0,0 UV-I 12 W/m² -3,7 °C -2,4 °C 0,0 km/h (0 Bft)
02.04.2018 07:21 -2,4 °C 91 % 1014,1 hPa 0,0 mm 0,0 km/h (0 Bft) S 181 ° 0 min 0,000 mm 0,0 UV-I 12 W/m² -3,7 °C -2,4 °C 0,0 km/h (0 Bft)
02.04.2018 07:22 -2,5 °C 91 % 1014,1 hPa 0,0 mm 0,0 km/h (0 Bft) S 181 ° 0 min 0,000 mm 0,0 UV-I 12 W/m² -3,8 °C -2,5 °C 0,0 km/h (0 Bft)
02.04.2018 07:23 -2,6 °C 91 % 1014,1 hPa 0,0 mm 0,0 km/h (0 Bft) S 181 ° 0 min 0,000 mm 0,0 UV-I 12 W/m² -3,9 °C -2,6 °C 0,0 km/h (0 Bft)
02.04.2018 07:24 -2,6 °C 91 % 1014,1 hPa 0,0 mm 0,0 km/h (0 Bft) S 181 ° 0 min 0,000 mm 0,0 UV-I 14 W/m² -3,9 °C -2,6 °C 0,0 km/h (0 Bft)
02.04.2018 07:25 -2,7 °C 91 % 1014,1 hPa 0,0 mm 0,0 km/h (0 Bft) S 181 ° 0 min 0,000 mm 0,0 UV-I 14 W/m² -4,0 °C -2,7 °C 0,0 km/h (0 Bft)
02.04.2018 07:26 -2,7 °C 91 % 1014,1 hPa 0,0 mm 0,0 km/h (0 Bft) S 181 ° 0 min 0,000 mm 0,0 UV-I 14 W/m² -4,0 °C -2,7 °C 0,0 km/h (0 Bft)
02.04.2018 07:27 -2,7 °C 91 % 1014,1 hPa 0,0 mm 0,0 km/h (0 Bft) S 181 ° 0 min 0,000 mm 0,0 UV-I 14 W/m² -4,0 °C -2,7 °C 0,0 km/h (0 Bft)
02.04.2018 07:28 -2,8 °C 91 % 1014,1 hPa 0,0 mm 0,0 km/h (0 Bft) S 181 ° 0 min 0,000 mm 0,0 UV-I 14 W/m² -4,1 °C -2,8 °C 0,0 km/h (0 Bft)
02.04.2018 07:29 -2,8 °C 91 % 1014,1 hPa 0,0 mm 0,0 km/h (0 Bft) S 181 ° 0 min 0,000 mm 0,0 UV-I 16 W/m² -4,1 °C -2,8 °C 0,0 km/h (0 Bft)
02.04.2018 07:30 -2,8 °C 91 % 1014,1 hPa 0,0 mm 0,0 km/h (0 Bft) S 181 ° 0 min 0,000 mm 0,0 UV-I 16 W/m² -4,1 °C -2,8 °C 0,0 km/h (0 Bft)
02.04.2018 07:31 -2,8 °C 92 % 1014,0 hPa 0,0 mm 0,0 km/h (0 Bft) S 181 ° 0 min 0,000 mm 0,0 UV-I 16 W/m² -3,9 °C -2,8 °C 0,0 km/h (0 Bft)
02.04.2018 07:32 -2,8 °C 92 % 1014,0 hPa 0,0 mm 0,0 km/h (0 Bft) S 181 ° 0 min 0,000 mm 0,0 UV-I 16 W/m² -3,9 °C -2,8 °C 0,0 km/h (0 Bft)
02.04.2018 07:33 -2,7 °C 92 % 1014,0 hPa 0,0 mm 0,0 km/h (0 Bft) S 181 ° 0 min 0,000 mm 0,0 UV-I 16 W/m² -3,8 °C -2,7 °C 0,0 km/h (0 Bft)
02.04.2018 07:34 -2,6 °C 92 % 1014,0 hPa 0,0 mm 0,0 km/h (0 Bft) S 181 ° 0 min 0,000 mm 0,0 UV-I 18 W/m² -3,7 °C -2,6 °C 0,0 km/h (0 Bft)
02.04.2018 07:35 -2,6 °C 92 % 1014,0 hPa 0,0 mm 0,0 km/h (0 Bft) S 181 ° 0 min 0,000 mm 0,0 UV-I 18 W/m² -3,7 °C -2,6 °C 0,0 km/h (0 Bft)
02.04.2018 07:36 -2,6 °C 92 % 1014,0 hPa 0,0 mm 0,0 km/h (0 Bft) S 181 ° 0 min 0,000 mm 0,0 UV-I 18 W/m² -3,7 °C -2,6 °C 0,0 km/h (0 Bft)
02.04.2018 07:37 -2,4 °C 92 % 1014,0 hPa 0,0 mm 0,0 km/h (0 Bft) S 181 ° 0 min 0,000 mm 0,0 UV-I 18 W/m² -3,5 °C -2,4 °C 0,0 km/h (0 Bft)
02.04.2018 07:38 -2,4 °C 92 % 1014,0 hPa 0,0 mm 0,0 km/h (0 Bft) S 181 ° 0 min 0,000 mm 0,0 UV-I 18 W/m² -3,5 °C -2,4 °C 0,0 km/h (0 Bft)
02.04.2018 07:39 -2,3 °C 92 % 1014,0 hPa 0,0 mm 0,0 km/h (0 Bft) S 181 ° 0 min 0,000 mm 0,0 UV-I 19 W/m² -3,4 °C -2,3 °C 0,0 km/h (0 Bft)
02.04.2018 07:40 -2,3 °C 92 % 1014,0 hPa 0,0 mm 0,0 km/h (0 Bft) S 181 ° 0 min 0,000 mm 0,0 UV-I 19 W/m² -3,4 °C -2,3 °C 0,0 km/h (0 Bft)
02.04.2018 07:41 -2,3 °C 92 % 1014,0 hPa 0,0 mm 0,0 km/h (0 Bft) S 181 ° 0 min 0,000 mm 0,0 UV-I 19 W/m² -3,4 °C -2,3 °C 0,0 km/h (0 Bft)
02.04.2018 07:42 -2,2 °C 92 % 1014,0 hPa 0,0 mm 0,0 km/h (0 Bft) S 181 ° 0 min 0,000 mm 0,0 UV-I 19 W/m² -3,3 °C -2,2 °C 0,0 km/h (0 Bft)
02.04.2018 07:43 -2,2 °C 92 % 1014,0 hPa 0,0 mm 0,0 km/h (0 Bft) S 181 ° 0 min 0,000 mm 0,0 UV-I 19 W/m² -3,3 °C -2,2 °C 0,0 km/h (0 Bft)
02.04.2018 07:44 -2,3 °C 91 % 1014,0 hPa 0,0 mm 0,0 km/h (0 Bft) S 181 ° 0 min 0,000 mm 0,0 UV-I 19 W/m² -3,6 °C -2,3 °C 0,0 km/h (0 Bft)
02.04.2018 07:45 -2,3 °C 91 % 1014,0 hPa 0,0 mm 0,0 km/h (0 Bft) S 181 ° 0 min 0,000 mm 0,0 UV-I 19 W/m² -3,6 °C -2,3 °C 0,0 km/h (0 Bft)
02.04.2018 07:46 -2,3 °C 91 % 1014,0 hPa 0,0 mm 0,0 km/h (0 Bft) S 181 ° 0 min 0,000 mm 0,0 UV-I 19 W/m² -3,6 °C -2,3 °C 0,0 km/h (0 Bft)
02.04.2018 07:47 -2,3 °C 91 % 1014,0 hPa 0,0 mm 0,0 km/h (0 Bft) S 181 ° 0 min 0,000 mm 0,0 UV-I 21 W/m² -3,6 °C -2,3 °C 0,0 km/h (0 Bft)
02.04.2018 07:48 -2,4 °C 91 % 1014,0 hPa 0,0 mm 0,0 km/h (0 Bft) S 181 ° 0 min 0,000 mm 0,0 UV-I 21 W/m² -3,7 °C -2,4 °C 0,0 km/h (0 Bft)
02.04.2018 07:49 -2,4 °C 91 % 1014,0 hPa 0,0 mm 0,0 km/h (0 Bft) S 181 ° 0 min 0,000 mm 0,0 UV-I 21 W/m² -3,7 °C -2,4 °C 0,0 km/h (0 Bft)
02.04.2018 07:50 -2,3 °C 91 % 1014,0 hPa 0,0 mm 0,0 km/h (0 Bft) S 181 ° 0 min 0,000 mm 0,0 UV-I 21 W/m² -3,6 °C -2,3 °C 0,0 km/h (0 Bft)
02.04.2018 07:51 -2,3 °C 91 % 1014,0 hPa 0,0 mm 0,0 km/h (0 Bft) S 181 ° 0 min 0,000 mm 0,0 UV-I 21 W/m² -3,6 °C -2,3 °C 0,0 km/h (0 Bft)
02.04.2018 07:52 -2,3 °C 91 % 1013,9 hPa 0,0 mm 0,0 km/h (0 Bft) S 181 ° 0 min 0,000 mm 0,0 UV-I 21 W/m² -3,6 °C -2,3 °C 0,0 km/h (0 Bft)
02.04.2018 07:53 -2,3 °C 91 % 1013,9 hPa 0,0 mm 0,0 km/h (0 Bft) S 181 ° 0 min 0,000 mm 0,0 UV-I 21 W/m² -3,6 °C -2,3 °C 0,0 km/h (0 Bft)
02.04.2018 07:54 -2,3 °C 91 % 1013,9 hPa 0,0 mm 0,0 km/h (0 Bft) S 181 ° 0 min 0,000 mm 0,0 UV-I 23 W/m² -3,6 °C -2,3 °C 0,0 km/h (0 Bft)
02.04.2018 07:55 -2,3 °C 91 % 1013,9 hPa 0,0 mm 0,0 km/h (0 Bft) S 181 ° 0 min 0,000 mm 0,0 UV-I 23 W/m² -3,6 °C -2,3 °C 0,0 km/h (0 Bft)
02.04.2018 07:56 -2,2 °C 91 % 1013,9 hPa 0,0 mm 0,0 km/h (0 Bft) S 181 ° 0 min 0,000 mm 0,0 UV-I 23 W/m² -3,5 °C -2,2 °C 0,0 km/h (0 Bft)
02.04.2018 07:57 -2,2 °C 91 % 1013,9 hPa 0,0 mm 0,0 km/h (0 Bft) S 181 ° 0 min 0,000 mm 0,0 UV-I 23 W/m² -3,5 °C -2,2 °C 0,0 km/h (0 Bft)
02.04.2018 07:58 -2,1 °C 91 % 1013,9 hPa 0,0 mm 0,0 km/h (0 Bft) S 181 ° 0 min 0,000 mm 0,0 UV-I 23 W/m² -3,4 °C -2,1 °C 0,0 km/h (0 Bft)
02.04.2018 07:59 -2,0 °C 91 % 1014,0 hPa 0,0 mm 0,0 km/h (0 Bft) S 181 ° 0 min 0,000 mm 0,0 UV-I 23 W/m² -3,3 °C -2,0 °C 0,0 km/h (0 Bft)
02.04.2018 08:00 -1,9 °C 91 % 1014,0 hPa 0,0 mm 0,0 km/h (0 Bft) S 181 ° 0 min 0,000 mm 0,0 UV-I 23 W/m² -3,2 °C -1,9 °C 0,0 km/h (0 Bft)
02.04.2018 08:01 -1,8 °C 91 % 1013,9 hPa 0,0 mm 0,0 km/h (0 Bft) S 181 ° 0 min 0,000 mm 0,0 UV-I 23 W/m² -3,1 °C -1,8 °C 0,0 km/h (0 Bft)
02.04.2018 08:02 -1,8 °C 91 % 1013,9 hPa 0,0 mm 0,0 km/h (0 Bft) S 181 ° 0 min 0,000 mm 0,0 UV-I 23 W/m² -3,1 °C -1,8 °C 0,0 km/h (0 Bft)
02.04.2018 08:03 -1,8 °C 91 % 1013,9 hPa 0,0 mm 0,0 km/h (0 Bft) S 181 ° 0 min 0,000 mm 0,0 UV-I 23 W/m² -3,1 °C -1,8 °C 0,0 km/h (0 Bft)
02.04.2018 08:04 -1,7 °C 91 % 1013,9 hPa 0,0 mm 0,0 km/h (0 Bft) S 181 ° 0 min 0,000 mm 0,0 UV-I 25 W/m² -3,0 °C -1,7 °C 0,0 km/h (0 Bft)
02.04.2018 08:05 -1,7 °C 91 % 1014,0 hPa 0,0 mm 0,0 km/h (0 Bft) S 181 ° 0 min 0,000 mm 0,0 UV-I 25 W/m² -3,0 °C -1,7 °C 0,0 km/h (0 Bft)
02.04.2018 08:06 -1,6 °C 90 % 1013,9 hPa 0,0 mm 0,0 km/h (0 Bft) S 181 ° 0 min 0,000 mm 0,0 UV-I 25 W/m² -3,0 °C -1,6 °C 0,0 km/h (0 Bft)
02.04.2018 08:07 -1,7 °C 90 % 1013,9 hPa 0,0 mm 0,0 km/h (0 Bft) S 181 ° 0 min 0,000 mm 0,0 UV-I 28 W/m² -3,1 °C -1,7 °C 0,0 km/h (0 Bft)
02.04.2018 08:08 -1,7 °C 90 % 1013,9 hPa 0,0 mm 0,0 km/h (0 Bft) S 181 ° 0 min 0,000 mm 0,0 UV-I 39 W/m² -3,1 °C -1,7 °C 0,0 km/h (0 Bft)
02.04.2018 08:09 -1,6 °C 90 % 1013,9 hPa 0,0 mm 0,0 km/h (0 Bft) S 181 ° 0 min 0,000 mm 0,5 UV-I 74 W/m² -3,0 °C -1,6 °C 0,0 km/h (0 Bft)
02.04.2018 08:10 -1,5 °C 90 % 1013,9 hPa 0,0 mm 0,0 km/h (0 Bft) S 181 ° 0 min 0,000 mm 0,5 UV-I 120 W/m² -2,9 °C -1,5 °C 0,0 km/h (0 Bft)
02.04.2018 08:11 -1,3 °C 90 % 1013,9 hPa 0,0 mm 0,0 km/h (0 Bft) S 181 ° 0 min 0,000 mm 0,5 UV-I 149 W/m² -2,7 °C -1,3 °C 0,0 km/h (0 Bft)
02.04.2018 08:12 -1,2 °C 90 % 1013,8 hPa 0,0 mm 0,0 km/h (0 Bft) S 181 ° 0 min 0,000 mm 0,6 UV-I 169 W/m² -2,6 °C -1,2 °C 0,0 km/h (0 Bft)
02.04.2018 08:13 -1,2 °C 90 % 1013,9 hPa 0,0 mm 0,0 km/h (0 Bft) S 181 ° 0 min 0,000 mm 0,6 UV-I 172 W/m² -2,6 °C -1,2 °C 0,0 km/h (0 Bft)
02.04.2018 08:14 -1,1 °C 90 % 1013,8 hPa 0,0 mm 0,0 km/h (0 Bft) S 181 ° 0 min 0,000 mm 0,6 UV-I 178 W/m² -2,5 °C -1,1 °C 0,0 km/h (0 Bft)
02.04.2018 08:15 -1,1 °C 90 % 1013,9 hPa 0,0 mm 0,0 km/h (0 Bft) S 181 ° 0 min 0,000 mm 0,6 UV-I 183 W/m² -2,5 °C -1,1 °C 0,0 km/h (0 Bft)
02.04.2018 08:16 -1,1 °C 90 % 1013,9 hPa 0,0 mm 0,0 km/h (0 Bft) S 181 ° 0 min 0,000 mm 0,6 UV-I 185 W/m² -2,5 °C -1,1 °C 0,0 km/h (0 Bft)
02.04.2018 08:17 -0,9 °C 90 % 1013,9 hPa 0,0 mm 0,1 km/h (0 Bft) S 181 ° 0 min 0,000 mm 0,6 UV-I 186 W/m² -2,3 °C -0,9 °C 1,6 km/h (1 Bft)
02.04.2018 08:18 -0,8 °C 90 % 1013,9 hPa 0,0 mm 0,0 km/h (0 Bft) S 181 ° 0 min 0,000 mm 0,6 UV-I 186 W/m² -2,2 °C -0,8 °C 0,0 km/h (0 Bft)
02.04.2018 08:19 -0,9 °C 90 % 1013,9 hPa 0,0 mm 0,0 km/h (0 Bft) S 181 ° 0 min 0,000 mm 0,6 UV-I 188 W/m² -2,3 °C -0,9 °C 0,0 km/h (0 Bft)
02.04.2018 08:20 -0,9 °C 90 % 1013,9 hPa 0,0 mm 0,0 km/h (0 Bft) S 181 ° 0 min 0,000 mm 0,7 UV-I 192 W/m² -2,3 °C -0,9 °C 0,0 km/h (0 Bft)
02.04.2018 08:21 -0,9 °C 90 % 1013,9 hPa 0,0 mm 0,0 km/h (0 Bft) S 181 ° 0 min 0,000 mm 0,7 UV-I 197 W/m² -2,3 °C -0,9 °C 0,0 km/h (0 Bft)
02.04.2018 08:22 -0,8 °C 90 % 1013,9 hPa 0,0 mm 0,0 km/h (0 Bft) S 181 ° 0 min 0,000 mm 0,7 UV-I 199 W/m² -2,2 °C -0,8 °C 0,0 km/h (0 Bft)
02.04.2018 08:23 -0,7 °C 90 % 1013,8 hPa 0,0 mm 0,0 km/h (0 Bft) S 181 ° 0 min 0,000 mm 0,7 UV-I 197 W/m² -2,1 °C -0,7 °C 0,0 km/h (0 Bft)
02.04.2018 08:24 -0,7 °C 90 % 1013,8 hPa 0,0 mm 0,0 km/h (0 Bft) S 181 ° 0 min 0,000 mm 0,7 UV-I 199 W/m² -2,1 °C -0,7 °C 0,0 km/h (0 Bft)
02.04.2018 08:25 -0,6 °C 89 % 1013,8 hPa 0,0 mm 0,0 km/h (0 Bft) S 181 ° 0 min 0,000 mm 0,7 UV-I 199 W/m² -2,2 °C -0,6 °C 0,0 km/h (0 Bft)
02.04.2018 08:26 -0,6 °C 89 % 1013,8 hPa 0,0 mm 0,0 km/h (0 Bft) S 181 ° 0 min 0,000 mm 0,7 UV-I 199 W/m² -2,2 °C -0,6 °C 0,0 km/h (0 Bft)
02.04.2018 08:27 -0,5 °C 89 % 1013,8 hPa 0,0 mm 0,0 km/h (0 Bft) S 181 ° 0 min 0,000 mm 0,7 UV-I 193 W/m² -2,1 °C -0,5 °C 0,0 km/h (0 Bft)
02.04.2018 08:28 -0,5 °C 89 % 1013,8 hPa 0,0 mm 0,0 km/h (0 Bft) S 181 ° 0 min 0,000 mm 0,7 UV-I 199 W/m² -2,1 °C -0,5 °C 0,0 km/h (0 Bft)
02.04.2018 08:29 -0,5 °C 88 % 1013,8 hPa 0,0 mm 0,0 km/h (0 Bft) S 181 ° 0 min 0,000 mm 0,7 UV-I 195 W/m² -2,2 °C -0,5 °C 0,0 km/h (0 Bft)
02.04.2018 08:30 -0,4 °C 88 % 1013,8 hPa 0,0 mm 0,0 km/h (0 Bft) S 181 ° 0 min 0,000 mm 0,7 UV-I 137 W/m² -2,1 °C -0,4 °C 0,0 km/h (0 Bft)
02.04.2018 08:31 -0,3 °C 88 % 1013,8 hPa 0,0 mm 0,0 km/h (0 Bft) S 181 ° 0 min 0,000 mm 0,7 UV-I 121 W/m² -2,0 °C -0,3 °C 0,0 km/h (0 Bft)
02.04.2018 08:32 -0,3 °C 88 % 1013,9 hPa 0,0 mm 0,0 km/h (0 Bft) S 181 ° 0 min 0,000 mm 0,8 UV-I 155 W/m² -2,0 °C -0,3 °C 0,0 km/h (0 Bft)
02.04.2018 08:33 -0,2 °C 88 % 1013,9 hPa 0,0 mm 0,0 km/h (0 Bft) S 181 ° 0 min 0,000 mm 0,8 UV-I 142 W/m² -1,9 °C -0,2 °C 0,0 km/h (0 Bft)
02.04.2018 08:34 -0,2 °C 87 % 1013,8 hPa 0,0 mm 0,0 km/h (0 Bft) S 181 ° 0 min 0,000 mm 0,8 UV-I 135 W/m² -2,1 °C -0,2 °C 0,0 km/h (0 Bft)
02.04.2018 08:35 -0,2 °C 87 % 1013,8 hPa 0,0 mm 0,0 km/h (0 Bft) S 181 ° 0 min 0,000 mm 0,7 UV-I 111 W/m² -2,1 °C -0,2 °C 0,0 km/h (0 Bft)
02.04.2018 08:36 -0,1 °C 87 % 1013,7 hPa 0,0 mm 0,0 km/h (0 Bft) S 181 ° 0 min 0,000 mm 0,7 UV-I 95 W/m² -2,0 °C -0,1 °C 0,0 km/h (0 Bft)
02.04.2018 08:37 -0,1 °C 87 % 1013,8 hPa 0,0 mm 0,0 km/h (0 Bft) S 181 ° 0 min 0,000 mm 0,7 UV-I 67 W/m² -2,0 °C -0,1 °C 0,0 km/h (0 Bft)
02.04.2018 08:38 -0,1 °C 86 % 1013,8 hPa 0,0 mm 0,0 km/h (0 Bft) S 181 ° 0 min 0,000 mm 0,0 UV-I 53 W/m² -2,2 °C -0,1 °C 0,0 km/h (0 Bft)
02.04.2018 08:39 0,0 °C 86 % 1013,8 hPa 0,0 mm 0,0 km/h (0 Bft) S 181 ° 0 min 0,000 mm 0,7 UV-I 56 W/m² -2,1 °C 0,0 °C 0,0 km/h (0 Bft)
02.04.2018 08:40 0,1 °C 85 % 1013,7 hPa 0,0 mm 0,0 km/h (0 Bft) S 181 ° 0 min 0,000 mm 0,0 UV-I 44 W/m² -2,1 °C 0,1 °C 0,0 km/h (0 Bft)
02.04.2018 08:41 0,1 °C 85 % 1013,8 hPa 0,0 mm 0,0 km/h (0 Bft) S 181 ° 0 min 0,000 mm 0,0 UV-I 42 W/m² -2,1 °C 0,1 °C 0,0 km/h (0 Bft)
02.04.2018 08:42 0,1 °C 85 % 1013,7 hPa 0,0 mm 0,0 km/h (0 Bft) S 181 ° 0 min 0,000 mm 0,0 UV-I 35 W/m² -2,1 °C 0,1 °C 0,0 km/h (0 Bft)
02.04.2018 08:43 0,2 °C 85 % 1013,7 hPa 0,0 mm 0,0 km/h (0 Bft) S 181 ° 0 min 0,000 mm 0,0 UV-I 33 W/m² -2,0 °C 0,2 °C 0,0 km/h (0 Bft)
02.04.2018 08:44 0,2 °C 85 % 1013,9 hPa 0,0 mm 0,0 km/h (0 Bft) S 181 ° 0 min 0,000 mm 0,0 UV-I 35 W/m² -2,0 °C 0,2 °C 0,0 km/h (0 Bft)
02.04.2018 08:45 0,2 °C 84 % 1013,9 hPa 0,0 mm 0,0 km/h (0 Bft) S 181 ° 0 min 0,000 mm 0,0 UV-I 39 W/m² -2,2 °C 0,2 °C 0,0 km/h (0 Bft)
02.04.2018 08:46 0,3 °C 84 % 1013,8 hPa 0,0 mm 0,0 km/h (0 Bft) S 181 ° 0 min 0,000 mm 0,8 UV-I 65 W/m² -2,1 °C 0,3 °C 0,0 km/h (0 Bft)
02.04.2018 08:47 0,2 °C 84 % 1013,8 hPa 0,0 mm 0,0 km/h (0 Bft) S 181 ° 0 min 0,000 mm 0,9 UV-I 127 W/m² -2,2 °C 0,2 °C 0,0 km/h (0 Bft)
02.04.2018 08:48 0,3 °C 84 % 1013,9 hPa 0,0 mm 0,0 km/h (0 Bft) S 181 ° 0 min 0,000 mm 1,0 UV-I 243 W/m² -2,1 °C 0,3 °C 0,0 km/h (0 Bft)
02.04.2018 08:49 0,4 °C 84 % 1013,9 hPa 0,0 mm 0,0 km/h (0 Bft) S 181 ° 0 min 0,000 mm 1,0 UV-I 253 W/m² -2,0 °C 0,4 °C 0,0 km/h (0 Bft)
02.04.2018 08:50 0,4 °C 84 % 1013,8 hPa 0,0 mm 0,0 km/h (0 Bft) S 181 ° 0 min 0,000 mm 1,0 UV-I 246 W/m² -2,0 °C 0,4 °C 0,0 km/h (0 Bft)
02.04.2018 08:51 0,3 °C 83 % 1013,9 hPa 0,0 mm 0,0 km/h (0 Bft) S 181 ° 0 min 0,000 mm 1,1 UV-I 250 W/m² -2,2 °C 0,3 °C 0,0 km/h (0 Bft)
02.04.2018 08:52 0,3 °C 84 % 1013,9 hPa 0,0 mm 0,0 km/h (0 Bft) S 181 ° 0 min 0,000 mm 1,1 UV-I 262 W/m² -2,1 °C 0,3 °C 0,0 km/h (0 Bft)
02.04.2018 08:53 0,4 °C 85 % 1013,7 hPa 0,0 mm 0,0 km/h (0 Bft) S 181 ° 0 min 0,000 mm 1,1 UV-I 244 W/m² -1,8 °C 0,4 °C 0,0 km/h (0 Bft)
02.04.2018 08:54 0,5 °C 84 % 1013,7 hPa 0,0 mm 0,0 km/h (0 Bft) S 181 ° 0 min 0,000 mm 1,1 UV-I 251 W/m² -1,9 °C 0,5 °C 0,0 km/h (0 Bft)
02.04.2018 08:55 0,7 °C 84 % 1013,7 hPa 0,0 mm 0,0 km/h (0 Bft) S 181 ° 0 min 0,000 mm 1,1 UV-I 271 W/m² -1,7 °C 0,7 °C 0,0 km/h (0 Bft)
02.04.2018 08:56 0,8 °C 83 % 1013,7 hPa 0,0 mm 0,0 km/h (0 Bft) S 181 ° 0 min 0,000 mm 1,2 UV-I 272 W/m² -1,8 °C 0,8 °C 0,0 km/h (0 Bft)
02.04.2018 08:57 0,8 °C 82 % 1013,8 hPa 0,0 mm 0,0 km/h (0 Bft) S 181 ° 0 min 0,000 mm 1,2 UV-I 276 W/m² -1,9 °C 0,8 °C 0,0 km/h (0 Bft)
02.04.2018 08:58 0,9 °C 82 % 1013,8 hPa 0,0 mm 0,0 km/h (0 Bft) S 181 ° 0 min 0,000 mm 1,2 UV-I 278 W/m² -1,8 °C 0,9 °C 0,0 km/h (0 Bft)
02.04.2018 08:59 0,9 °C 81 % 1013,7 hPa 0,0 mm 0,0 km/h (0 Bft) S 181 ° 0 min 0,000 mm 1,2 UV-I 281 W/m² -2,0 °C 0,9 °C 0,0 km/h (0 Bft)
02.04.2018 09:00 0,9 °C 81 % 1013,8 hPa 0,0 mm 0,1 km/h (0 Bft) S 181 ° 0 min 0,000 mm 1,2 UV-I 283 W/m² -2,0 °C 0,9 °C 1,6 km/h (1 Bft)
02.04.2018 09:01 0,8 °C 82 % 1013,8 hPa 0,2 mm 0,0 km/h (0 Bft) S 181 ° 0 min 0,051 mm 1,3 UV-I 288 W/m² -1,9 °C 0,8 °C 0,0 km/h (0 Bft)
02.04.2018 09:02 0,9 °C 82 % 1013,8 hPa 0,0 mm 0,0 km/h (0 Bft) S 181 ° 1 min 0,000 mm 1,3 UV-I 292 W/m² -1,8 °C 0,9 °C 0,0 km/h (0 Bft)
02.04.2018 09:03 1,0 °C 82 % 1013,7 hPa 0,0 mm 0,0 km/h (0 Bft) S 181 ° 1 min 0,000 mm 1,3 UV-I 295 W/m² -1,7 °C 1,0 °C 0,0 km/h (0 Bft)
02.04.2018 09:04 1,1 °C 83 % 1013,7 hPa 0,0 mm 0,0 km/h (0 Bft) S 181 ° 1 min 0,000 mm 1,3 UV-I 297 W/m² -1,5 °C 1,1 °C 0,0 km/h (0 Bft)
02.04.2018 09:05 1,2 °C 81 % 1013,7 hPa 0,0 mm 0,0 km/h (0 Bft) S 181 ° 1 min 0,000 mm 1,3 UV-I 302 W/m² -1,7 °C 1,2 °C 0,0 km/h (0 Bft)
02.04.2018 09:06 1,3 °C 81 % 1013,7 hPa 0,0 mm 0,0 km/h (0 Bft) S 181 ° 1 min 0,000 mm 1,3 UV-I 306 W/m² -1,6 °C 1,3 °C 0,0 km/h (0 Bft)
02.04.2018 09:07 1,3 °C 80 % 1013,6 hPa 0,0 mm 0,0 km/h (0 Bft) S 181 ° 1 min 0,000 mm 1,3 UV-I 309 W/m² -1,8 °C 1,3 °C 0,0 km/h (0 Bft)
02.04.2018 09:08 1,4 °C 79 % 1013,7 hPa 0,0 mm 0,0 km/h (0 Bft) S 181 ° 1 min 0,000 mm 1,3 UV-I 297 W/m² -1,8 °C 1,4 °C 0,0 km/h (0 Bft)
02.04.2018 09:09 1,6 °C 78 % 1013,7 hPa 0,0 mm 0,1 km/h (0 Bft) S 181 ° 1 min 0,000 mm 1,3 UV-I 308 W/m² -1,8 °C 1,6 °C 1,6 km/h (1 Bft)
02.04.2018 09:10 1,7 °C 78 % 1013,6 hPa 0,0 mm 0,0 km/h (0 Bft) S 181 ° 1 min 0,000 mm 1,4 UV-I 309 W/m² -1,7 °C 1,7 °C 0,0 km/h (0 Bft)
02.04.2018 09:11 1,8 °C 78 % 1013,6 hPa 0,0 mm 0,0 km/h (0 Bft) S 181 ° 1 min 0,000 mm 1,4 UV-I 309 W/m² -1,6 °C 1,8 °C 0,0 km/h (0 Bft)
02.04.2018 09:12 1,9 °C 77 % 1013,6 hPa 0,0 mm 0,0 km/h (0 Bft) S 181 ° 1 min 0,000 mm 1,4 UV-I 316 W/m² -1,7 °C 1,9 °C 0,0 km/h (0 Bft)
02.04.2018 09:13 1,9 °C 77 % 1013,6 hPa 0,0 mm 0,0 km/h (0 Bft) S 181 ° 1 min 0,000 mm 1,4 UV-I 322 W/m² -1,7 °C 1,9 °C 0,0 km/h (0 Bft)
02.04.2018 09:14 2,0 °C 76 % 1013,6 hPa 0,0 mm 0,0 km/h (0 Bft) S 181 ° 1 min 0,000 mm 1,5 UV-I 325 W/m² -1,8 °C 2,0 °C 0,0 km/h (0 Bft)
02.04.2018 09:15 2,1 °C 76 % 1013,7 hPa 0,0 mm 0,0 km/h (0 Bft) S 181 ° 1 min 0,000 mm 1,5 UV-I 327 W/m² -1,7 °C 2,1 °C 0,0 km/h (0 Bft)
02.04.2018 09:16 2,1 °C 76 % 1013,7 hPa 0,0 mm 0,0 km/h (0 Bft) S 181 ° 1 min 0,000 mm 1,5 UV-I 320 W/m² -1,7 °C 2,1 °C 0,0 km/h (0 Bft)
02.04.2018 09:17 2,1 °C 77 % 1013,7 hPa 0,0 mm 0,0 km/h (0 Bft) S 181 ° 1 min 0,000 mm 1,5 UV-I 334 W/m² -1,5 °C 2,1 °C 0,0 km/h (0 Bft)
02.04.2018 09:18 2,2 °C 78 % 1013,7 hPa 0,0 mm 0,0 km/h (0 Bft) S 181 ° 1 min 0,000 mm 1,5 UV-I 329 W/m² -1,2 °C 2,2 °C 0,0 km/h (0 Bft)
02.04.2018 09:19 2,2 °C 77 % 1013,6 hPa 0,0 mm 0,0 km/h (0 Bft) S 181 ° 1 min 0,000 mm 1,6 UV-I 341 W/m² -1,4 °C 2,2 °C 0,0 km/h (0 Bft)
02.04.2018 09:20 2,2 °C 76 % 1013,6 hPa 0,0 mm 0,0 km/h (0 Bft) S 181 ° 1 min 0,000 mm 1,6 UV-I 343 W/m² -1,6 °C 2,2 °C 0,0 km/h (0 Bft)
02.04.2018 09:21 2,2 °C 76 % 1013,5 hPa 0,0 mm 0,0 km/h (0 Bft) S 181 ° 1 min 0,000 mm 1,6 UV-I 348 W/m² -1,6 °C 2,2 °C 0,0 km/h (0 Bft)
02.04.2018 09:22 2,3 °C 76 % 1013,6 hPa 0,0 mm 0,0 km/h (0 Bft) S 181 ° 1 min 0,000 mm 1,6 UV-I 350 W/m² -1,5 °C 2,3 °C 0,0 km/h (0 Bft)
02.04.2018 09:23 2,3 °C 76 % 1013,6 hPa 0,0 mm 0,0 km/h (0 Bft) S 181 ° 1 min 0,000 mm 1,6 UV-I 355 W/m² -1,5 °C 2,3 °C 0,0 km/h (0 Bft)
02.04.2018 09:24 2,4 °C 77 % 1013,6 hPa 0,0 mm 0,0 km/h (0 Bft) S 181 ° 1 min 0,000 mm 1,6 UV-I 325 W/m² -1,2 °C 2,4 °C 0,0 km/h (0 Bft)
02.04.2018 09:25 2,5 °C 78 % 1013,6 hPa 0,0 mm 0,0 km/h (0 Bft) S 181 ° 1 min 0,000 mm 1,7 UV-I 360 W/m² -0,9 °C 2,5 °C 0,0 km/h (0 Bft)
02.04.2018 09:26 2,5 °C 76 % 1013,5 hPa 0,0 mm 0,0 km/h (0 Bft) S 181 ° 1 min 0,000 mm 1,7 UV-I 364 W/m² -1,3 °C 2,5 °C 0,0 km/h (0 Bft)
02.04.2018 09:27 2,6 °C 76 % 1013,6 hPa 0,0 mm 0,0 km/h (0 Bft) S 181 ° 1 min 0,000 mm 1,7 UV-I 364 W/m² -1,2 °C 2,6 °C 0,0 km/h (0 Bft)
02.04.2018 09:28 2,7 °C 76 % 1013,6 hPa 0,0 mm 0,0 km/h (0 Bft) S 181 ° 1 min 0,000 mm 1,7 UV-I 369 W/m² -1,1 °C 2,7 °C 0,0 km/h (0 Bft)
02.04.2018 09:29 2,7 °C 76 % 1013,5 hPa 0,0 mm 0,0 km/h (0 Bft) S 181 ° 1 min 0,000 mm 1,7 UV-I 369 W/m² -1,1 °C 2,7 °C 0,0 km/h (0 Bft)
02.04.2018 09:30 2,8 °C 75 % 1013,5 hPa 0,0 mm 0,0 km/h (0 Bft) S 181 ° 1 min 0,000 mm 1,8 UV-I 374 W/m² -1,2 °C 2,8 °C 0,0 km/h (0 Bft)
02.04.2018 09:31 2,8 °C 74 % 1013,5 hPa 0,0 mm 0,0 km/h (0 Bft) S 181 ° 1 min 0,000 mm 1,8 UV-I 369 W/m² -1,4 °C 2,8 °C 0,0 km/h (0 Bft)
02.04.2018 09:32 2,8 °C 76 % 1013,5 hPa 0,0 mm 0,0 km/h (0 Bft) S 181 ° 1 min 0,000 mm 1,8 UV-I 364 W/m² -1,0 °C 2,8 °C 0,0 km/h (0 Bft)
02.04.2018 09:33 2,8 °C 77 % 1013,6 hPa 0,0 mm 0,0 km/h (0 Bft) S 181 ° 1 min 0,000 mm 1,8 UV-I 383 W/m² -0,8 °C 2,8 °C 0,0 km/h (0 Bft)
02.04.2018 09:34 2,8 °C 76 % 1013,5 hPa 0,0 mm 0,0 km/h (0 Bft) S 181 ° 1 min 0,000 mm 1,9 UV-I 387 W/m² -1,0 °C 2,8 °C 0,0 km/h (0 Bft)
02.04.2018 09:35 2,7 °C 75 % 1013,5 hPa 0,0 mm 0,0 km/h (0 Bft) S 181 ° 1 min 0,000 mm 1,9 UV-I 396 W/m² -1,3 °C 2,7 °C 0,0 km/h (0 Bft)
02.04.2018 09:36 2,7 °C 74 % 1013,5 hPa 0,0 mm 0,0 km/h (0 Bft) S 181 ° 1 min 0,000 mm 1,9 UV-I 399 W/m² -1,5 °C 2,7 °C 0,0 km/h (0 Bft)
02.04.2018 09:37 2,7 °C 74 % 1013,5 hPa 0,0 mm 0,0 km/h (0 Bft) S 181 ° 1 min 0,000 mm 1,9 UV-I 404 W/m² -1,5 °C 2,7 °C 0,0 km/h (0 Bft)
02.04.2018 09:38 2,7 °C 74 % 1013,5 hPa 0,0 mm 0,8 km/h (0 Bft) S 181 ° 1 min 0,000 mm 1,9 UV-I 410 W/m² -1,5 °C 2,7 °C 3,2 km/h (1 Bft)
02.04.2018 09:39 2,7 °C 74 % 1013,5 hPa 0,0 mm 2,7 km/h (1 Bft) S 181 ° 1 min 0,000 mm 1,9 UV-I 394 W/m² -1,5 °C 2,7 °C 4,8 km/h (1 Bft)
02.04.2018 09:40 2,7 °C 74 % 1013,5 hPa 0,0 mm 3,7 km/h (1 Bft) S 181 ° 1 min 0,000 mm 2,0 UV-I 418 W/m² -1,5 °C 2,7 °C 4,8 km/h (1 Bft)
02.04.2018 09:41 2,8 °C 73 % 1013,5 hPa 0,0 mm 3,6 km/h (1 Bft) S 180 ° 1 min 0,000 mm 2,0 UV-I 420 W/m² -1,5 °C 2,8 °C 4,8 km/h (1 Bft)
02.04.2018 09:42 2,8 °C 72 % 1013,5 hPa 0,0 mm 1,6 km/h (1 Bft) S 180 ° 1 min 0,000 mm 2,0 UV-I 424 W/m² -1,7 °C 2,8 °C 3,2 km/h (1 Bft)
02.04.2018 09:43 2,8 °C 71 % 1013,4 hPa 0,0 mm 2,1 km/h (1 Bft) S 180 ° 1 min 0,000 mm 2,0 UV-I 417 W/m² -1,9 °C 2,8 °C 3,2 km/h (1 Bft)
02.04.2018 09:44 2,9 °C 70 % 1013,4 hPa 0,0 mm 1,7 km/h (1 Bft) S 180 ° 1 min 0,000 mm 2,0 UV-I 417 W/m² -2,0 °C 2,9 °C 3,2 km/h (1 Bft)
02.04.2018 09:45 3,2 °C 74 % 1013,4 hPa 0,0 mm 0,6 km/h (0 Bft) S 180 ° 1 min 0,000 mm 2,0 UV-I 422 W/m² -1,0 °C 3,2 °C 1,6 km/h (1 Bft)
02.04.2018 09:46 3,2 °C 72 % 1013,4 hPa 0,0 mm 0,0 km/h (0 Bft) S 180 ° 1 min 0,000 mm 2,1 UV-I 434 W/m² -1,3 °C 3,2 °C 0,0 km/h (0 Bft)
02.04.2018 09:47 3,2 °C 70 % 1013,4 hPa 0,0 mm 1,6 km/h (1 Bft) S 180 ° 1 min 0,000 mm 2,1 UV-I 434 W/m² -1,7 °C 3,2 °C 3,2 km/h (1 Bft)
02.04.2018 09:48 3,1 °C 69 % 1013,5 hPa 0,0 mm 1,6 km/h (1 Bft) S 180 ° 1 min 0,000 mm 2,1 UV-I 443 W/m² -2,0 °C 3,1 °C 3,2 km/h (1 Bft)
02.04.2018 09:49 3,0 °C 70 % 1013,5 hPa 0,0 mm 0,1 km/h (0 Bft) S 180 ° 1 min 0,000 mm 2,1 UV-I 443 W/m² -1,9 °C 3,0 °C 1,6 km/h (1 Bft)
02.04.2018 09:50 3,1 °C 72 % 1013,4 hPa 0,0 mm 0,0 km/h (0 Bft) S 180 ° 1 min 0,000 mm 2,1 UV-I 434 W/m² -1,4 °C 3,1 °C 0,0 km/h (0 Bft)
02.04.2018 09:51 3,3 °C 75 % 1013,5 hPa 0,0 mm 0,0 km/h (0 Bft) S 180 ° 1 min 0,000 mm 2,2 UV-I 450 W/m² -0,7 °C 3,3 °C 0,0 km/h (0 Bft)
02.04.2018 09:52 3,7 °C 76 % 1013,4 hPa 0,0 mm 0,0 km/h (0 Bft) S 180 ° 1 min 0,000 mm 2,2 UV-I 436 W/m² -0,1 °C 3,7 °C 0,0 km/h (0 Bft)
02.04.2018 09:53 3,8 °C 74 % 1013,4 hPa 0,0 mm 0,0 km/h (0 Bft) S 180 ° 1 min 0,000 mm 2,2 UV-I 443 W/m² -0,4 °C 3,8 °C 0,0 km/h (0 Bft)
02.04.2018 09:54 3,9 °C 72 % 1013,4 hPa 0,0 mm 0,7 km/h (0 Bft) S 180 ° 1 min 0,000 mm 2,2 UV-I 459 W/m² -0,7 °C 3,9 °C 1,6 km/h (1 Bft)
02.04.2018 09:55 4,1 °C 73 % 1013,4 hPa 0,0 mm 1,4 km/h (1 Bft) S 180 ° 1 min 0,000 mm 2,2 UV-I 455 W/m² -0,3 °C 4,1 °C 3,2 km/h (1 Bft)
02.04.2018 09:56 4,2 °C 72 % 1013,4 hPa 0,0 mm 1,9 km/h (1 Bft) S 180 ° 1 min 0,000 mm 2,1 UV-I 413 W/m² -0,4 °C 4,2 °C 3,2 km/h (1 Bft)
02.04.2018 09:57 4,1 °C 72 % 1013,5 hPa 0,0 mm 1,9 km/h (1 Bft) S 180 ° 1 min 0,000 mm 2,1 UV-I 394 W/m² -0,5 °C 4,1 °C 3,2 km/h (1 Bft)
02.04.2018 09:58 4,1 °C 70 % 1013,4 hPa 0,0 mm 0,9 km/h (0 Bft) S 180 ° 1 min 0,000 mm 2,1 UV-I 374 W/m² -0,9 °C 4,1 °C 3,2 km/h (1 Bft)
02.04.2018 09:59 4,1 °C 73 % 1013,4 hPa 0,0 mm 1,6 km/h (1 Bft) S 180 ° 1 min 0,000 mm 2,1 UV-I 330 W/m² -0,3 °C 4,1 °C 3,2 km/h (1 Bft)
02.04.2018 10:00 4,1 °C 71 % 1013,5 hPa 0,0 mm 1,7 km/h (1 Bft) SW 227 ° 1 min 0,000 mm 2,2 UV-I 380 W/m² -0,7 °C 4,1 °C 3,2 km/h (1 Bft)
02.04.2018 10:01 4,1 °C 70 % 1013,5 hPa 0,0 mm 1,3 km/h (1 Bft) SW 227 ° 1 min 0,127 mm 2,3 UV-I 445 W/m² -0,9 °C 4,1 °C 3,2 km/h (1 Bft)
02.04.2018 10:02 4,2 °C 73 % 1013,5 hPa 0,0 mm 0,8 km/h (0 Bft) SW 227 ° 1 min 0,000 mm 2,3 UV-I 431 W/m² -0,2 °C 4,2 °C 1,6 km/h (1 Bft)
02.04.2018 10:03 4,2 °C 72 % 1013,4 hPa 0,0 mm 1,9 km/h (1 Bft) W 275 ° 1 min 0,000 mm 2,3 UV-I 455 W/m² -0,4 °C 4,2 °C 3,2 km/h (1 Bft)
02.04.2018 10:04 4,1 °C 70 % 1013,4 hPa 0,0 mm 2,4 km/h (1 Bft) W 281 ° 1 min 0,000 mm 2,4 UV-I 446 W/m² -0,9 °C 4,1 °C 3,2 km/h (1 Bft)
02.04.2018 10:05 3,9 °C 71 % 1013,4 hPa 0,0 mm 0,1 km/h (0 Bft) W 281 ° 1 min 0,000 mm 2,4 UV-I 454 W/m² -0,9 °C 3,9 °C 1,6 km/h (1 Bft)
02.04.2018 10:06 3,9 °C 72 % 1013,4 hPa 0,0 mm 2,2 km/h (1 Bft) W-NW 289 ° 1 min 0,000 mm 2,4 UV-I 461 W/m² -0,7 °C 3,9 °C 3,2 km/h (1 Bft)
02.04.2018 10:07 3,9 °C 72 % 1013,4 hPa 0,0 mm 1,8 km/h (1 Bft) W-NW 289 ° 1 min 0,000 mm 2,5 UV-I 466 W/m² -0,7 °C 3,9 °C 3,2 km/h (1 Bft)
02.04.2018 10:08 3,8 °C 71 % 1013,4 hPa 0,0 mm 1,0 km/h (0 Bft) W-NW 289 ° 1 min 0,000 mm 2,6 UV-I 489 W/m² -1,0 °C 3,8 °C 1,6 km/h (1 Bft)
02.04.2018 10:09 3,9 °C 74 % 1013,4 hPa 0,0 mm 0,3 km/h (0 Bft) W-NW 289 ° 1 min 0,000 mm 2,4 UV-I 487 W/m² -0,3 °C 3,9 °C 1,6 km/h (1 Bft)
02.04.2018 10:10 4,0 °C 72 % 1013,4 hPa 0,0 mm 1,8 km/h (1 Bft) W-NW 295 ° 1 min 0,000 mm 2,6 UV-I 503 W/m² -0,6 °C 4,0 °C 3,2 km/h (1 Bft)
02.04.2018 10:11 4,1 °C 74 % 1013,5 hPa 0,0 mm 2,5 km/h (1 Bft) W-NW 298 ° 1 min 0,000 mm 2,6 UV-I 482 W/m² -0,1 °C 4,1 °C 3,2 km/h (1 Bft)
02.04.2018 10:12 4,2 °C 75 % 1013,4 hPa 0,0 mm 0,7 km/h (0 Bft) W-NW 298 ° 1 min 0,000 mm 2,7 UV-I 506 W/m² 0,2 °C 4,2 °C 3,2 km/h (1 Bft)
02.04.2018 10:13 4,2 °C 71 % 1013,4 hPa 0,0 mm 0,0 km/h (0 Bft) W-NW 298 ° 1 min 0,000 mm 2,7 UV-I 513 W/m² -0,6 °C 4,2 °C 0,0 km/h (0 Bft)
02.04.2018 10:14 4,3 °C 70 % 1013,4 hPa 0,0 mm 0,8 km/h (0 Bft) NW 319 ° 1 min 0,000 mm 2,6 UV-I 490 W/m² -0,7 °C 4,3 °C 4,8 km/h (1 Bft)
02.04.2018 10:15 4,3 °C 70 % 1013,4 hPa 0,0 mm 3,8 km/h (1 Bft) N-NW 337 ° 1 min 0,000 mm 2,6 UV-I 490 W/m² -0,7 °C 4,3 °C 6,4 km/h (2 Bft)
02.04.2018 10:16 4,4 °C 72 % 1013,4 hPa 0,0 mm 3,3 km/h (1 Bft) N 360 ° 1 min 0,000 mm 2,7 UV-I 504 W/m² -0,2 °C 4,4 °C 4,8 km/h (1 Bft)
02.04.2018 10:17 4,7 °C 74 % 1013,4 hPa 0,0 mm 3,3 km/h (1 Bft) N-NO 17 ° 1 min 0,000 mm 2,8 UV-I 527 W/m² 0,5 °C 4,7 °C 4,8 km/h (1 Bft)
02.04.2018 10:18 4,7 °C 73 % 1013,4 hPa 0,0 mm 3,4 km/h (1 Bft) NO 42 ° 1 min 0,000 mm 2,8 UV-I 531 W/m² 0,3 °C 4,7 °C 4,8 km/h (1 Bft)
02.04.2018 10:19 4,7 °C 64 % 1013,4 hPa 0,0 mm 2,5 km/h (1 Bft) NO 44 ° 1 min 0,000 mm 2,8 UV-I 533 W/m² -1,5 °C 4,7 °C 4,8 km/h (1 Bft)
02.04.2018 10:20 4,7 °C 64 % 1013,4 hPa 0,0 mm 4,7 km/h (1 Bft) O 92 ° 1 min 0,000 mm 2,8 UV-I 534 W/m² -1,5 °C 3,9 °C 6,4 km/h (2 Bft)
02.04.2018 10:21 4,8 °C 64 % 1013,3 hPa 0,0 mm 6,2 km/h (2 Bft) O 81 ° 1 min 0,000 mm 2,8 UV-I 531 W/m² -1,4 °C 3,4 °C 9,7 km/h (2 Bft)
02.04.2018 10:22 4,8 °C 65 % 1013,3 hPa 0,0 mm 3,0 km/h (1 Bft) O-NO 63 ° 1 min 0,000 mm 2,8 UV-I 534 W/m² -1,2 °C 4,8 °C 4,8 km/h (1 Bft)
02.04.2018 10:23 4,9 °C 66 % 1013,3 hPa 0,0 mm 2,5 km/h (1 Bft) O-NO 67 ° 1 min 0,000 mm 2,8 UV-I 541 W/m² -0,9 °C 4,9 °C 3,2 km/h (1 Bft)
02.04.2018 10:24 4,9 °C 66 % 1013,3 hPa 0,0 mm 2,3 km/h (1 Bft) O-NO 74 ° 1 min 0,000 mm 2,9 UV-I 545 W/m² -0,9 °C 4,9 °C 4,8 km/h (1 Bft)
02.04.2018 10:25 4,9 °C 67 % 1013,3 hPa 0,0 mm 2,1 km/h (1 Bft) O-NO 71 ° 1 min 0,000 mm 2,9 UV-I 550 W/m² -0,7 °C 4,9 °C 3,2 km/h (1 Bft)
02.04.2018 10:26 5,1 °C 66 % 1013,3 hPa 0,0 mm 2,7 km/h (1 Bft) NO 51 ° 1 min 0,000 mm 2,9 UV-I 555 W/m² -0,7 °C 5,1 °C 3,2 km/h (1 Bft)
02.04.2018 10:27 5,1 °C 64 % 1013,2 hPa 0,0 mm 2,0 km/h (1 Bft) O-NO 69 ° 1 min 0,000 mm 2,9 UV-I 524 W/m² -1,1 °C 5,1 °C 4,8 km/h (1 Bft)
02.04.2018 10:28 5,1 °C 64 % 1013,3 hPa 0,0 mm 3,6 km/h (1 Bft) O-NO 69 ° 1 min 0,000 mm 2,8 UV-I 494 W/m² -1,1 °C 5,1 °C 4,8 km/h (1 Bft)
02.04.2018 10:29 5,1 °C 63 % 1013,3 hPa 0,0 mm 4,3 km/h (1 Bft) O-NO 69 ° 1 min 0,000 mm 2,9 UV-I 541 W/m² -1,4 °C 5,1 °C 6,4 km/h (2 Bft)
02.04.2018 10:30 5,1 °C 63 % 1013,4 hPa 0,0 mm 4,9 km/h (1 Bft) O-NO 74 ° 1 min 0,000 mm 3,0 UV-I 555 W/m² -1,4 °C 4,2 °C 6,4 km/h (2 Bft)
02.04.2018 10:31 5,1 °C 64 % 1013,4 hPa 0,0 mm 2,8 km/h (1 Bft) O-NO 74 ° 1 min 0,000 mm 2,9 UV-I 526 W/m² -1,1 °C 5,1 °C 4,8 km/h (1 Bft)
02.04.2018 10:32 5,1 °C 64 % 1013,4 hPa 0,0 mm 2,7 km/h (1 Bft) O-NO 73 ° 1 min 0,000 mm 2,9 UV-I 522 W/m² -1,1 °C 5,1 °C 4,8 km/h (1 Bft)
02.04.2018 10:33 5,2 °C 66 % 1013,4 hPa 0,0 mm 1,8 km/h (1 Bft) O-NO 73 ° 1 min 0,000 mm 2,9 UV-I 555 W/m² -0,6 °C 5,2 °C 3,2 km/h (1 Bft)
02.04.2018 10:34 5,2 °C 64 % 1013,4 hPa 0,0 mm 0,5 km/h (0 Bft) O-NO 73 ° 1 min 0,000 mm 3,0 UV-I 541 W/m² -1,0 °C 5,2 °C 1,6 km/h (1 Bft)
02.04.2018 10:35 5,3 °C 65 % 1013,3 hPa 0,0 mm 2,1 km/h (1 Bft) O-NO 73 ° 1 min 0,000 mm 2,8 UV-I 517 W/m² -0,7 °C 5,3 °C 3,2 km/h (1 Bft)
02.04.2018 10:36 5,4 °C 65 % 1013,4 hPa 0,0 mm 1,7 km/h (1 Bft) O-NO 57 ° 1 min 0,000 mm 3,0 UV-I 536 W/m² -0,6 °C 5,4 °C 3,2 km/h (1 Bft)
02.04.2018 10:37 5,6 °C 69 % 1013,3 hPa 0,0 mm 1,9 km/h (1 Bft) NO 42 ° 1 min 0,000 mm 3,0 UV-I 550 W/m² 0,4 °C 5,6 °C 3,2 km/h (1 Bft)
02.04.2018 10:38 5,7 °C 68 % 1013,3 hPa 0,0 mm 2,3 km/h (1 Bft) NO 40 ° 1 min 0,000 mm 3,0 UV-I 555 W/m² 0,3 °C 5,7 °C 4,8 km/h (1 Bft)
02.04.2018 10:39 5,8 °C 68 % 1013,3 hPa 0,0 mm 1,7 km/h (1 Bft) N 360 ° 1 min 0,000 mm 3,1 UV-I 559 W/m² 0,4 °C 5,8 °C 3,2 km/h (1 Bft)
02.04.2018 10:40 5,7 °C 67 % 1013,4 hPa 0,0 mm 2,7 km/h (1 Bft) N-NO 17 ° 1 min 0,000 mm 3,1 UV-I 571 W/m² 0,1 °C 5,7 °C 4,8 km/h (1 Bft)
02.04.2018 10:41 5,8 °C 68 % 1013,3 hPa 0,0 mm 3,2 km/h (1 Bft) N-NO 15 ° 1 min 0,000 mm 3,1 UV-I 566 W/m² 0,4 °C 5,8 °C 4,8 km/h (1 Bft)
02.04.2018 10:42 5,8 °C 69 % 1013,3 hPa 0,0 mm 4,2 km/h (1 Bft) N-NO 15 ° 1 min 0,000 mm 3,1 UV-I 575 W/m² 0,6 °C 5,8 °C 6,4 km/h (2 Bft)
02.04.2018 10:43 5,9 °C 68 % 1013,4 hPa 0,0 mm 4,6 km/h (1 Bft) N-NO 15 ° 1 min 0,000 mm 3,1 UV-I 570 W/m² 0,5 °C 5,3 °C 8,0 km/h (2 Bft)
02.04.2018 10:44 5,9 °C 67 % 1013,3 hPa 0,0 mm 2,3 km/h (1 Bft) N-NO 15 ° 1 min 0,000 mm 3,1 UV-I 582 W/m² 0,3 °C 5,9 °C 4,8 km/h (1 Bft)
02.04.2018 10:45 6,0 °C 70 % 1013,4 hPa 0,0 mm 3,3 km/h (1 Bft) N-NO 15 ° 1 min 0,000 mm 3,1 UV-I 591 W/m² 1,0 °C 6,0 °C 6,4 km/h (2 Bft)
02.04.2018 10:46 6,2 °C 74 % 1013,4 hPa 0,0 mm 4,5 km/h (1 Bft) N-NO 15 ° 1 min 0,000 mm 3,2 UV-I 592 W/m² 1,9 °C 6,2 °C 6,4 km/h (2 Bft)
02.04.2018 10:47 6,2 °C 70 % 1013,3 hPa 0,0 mm 5,0 km/h (1 Bft) N-NO 15 ° 1 min 0,000 mm 3,3 UV-I 592 W/m² 1,1 °C 5,4 °C 6,4 km/h (2 Bft)
02.04.2018 10:48 6,3 °C 69 % 1013,3 hPa 0,0 mm 2,4 km/h (1 Bft) N-NO 15 ° 1 min 0,000 mm 3,3 UV-I 594 W/m² 1,0 °C 6,3 °C 4,8 km/h (1 Bft)
02.04.2018 10:49 6,2 °C 68 % 1013,3 hPa 0,0 mm 1,5 km/h (1 Bft) N-NO 15 ° 1 min 0,000 mm 3,3 UV-I 596 W/m² 0,7 °C 6,2 °C 4,8 km/h (1 Bft)
02.04.2018 10:50 6,1 °C 71 % 1013,3 hPa 0,0 mm 4,4 km/h (1 Bft) N-NO 16 ° 1 min 0,000 mm 3,3 UV-I 584 W/m² 1,2 °C 6,1 °C 6,4 km/h (2 Bft)
02.04.2018 10:51 6,1 °C 70 % 1013,3 hPa 0,0 mm 2,7 km/h (1 Bft) N-NO 16 ° 1 min 0,000 mm 3,3 UV-I 601 W/m² 1,0 °C 6,1 °C 4,8 km/h (1 Bft)
02.04.2018 10:52 6,1 °C 69 % 1013,3 hPa 0,0 mm 5,0 km/h (1 Bft) N 10 ° 1 min 0,000 mm 3,3 UV-I 603 W/m² 0,8 °C 5,3 °C 8,0 km/h (2 Bft)
02.04.2018 10:53 6,3 °C 71 % 1013,3 hPa 0,0 mm 3,5 km/h (1 Bft) N 10 ° 1 min 0,000 mm 3,4 UV-I 605 W/m² 1,4 °C 6,3 °C 6,4 km/h (2 Bft)
02.04.2018 10:54 6,4 °C 71 % 1013,3 hPa 0,0 mm 4,4 km/h (1 Bft) N-NO 13 ° 1 min 0,000 mm 3,4 UV-I 608 W/m² 1,5 °C 6,4 °C 8,0 km/h (2 Bft)
02.04.2018 10:55 6,4 °C 67 % 1013,3 hPa 0,0 mm 2,6 km/h (1 Bft) N-NO 13 ° 1 min 0,000 mm 3,4 UV-I 608 W/m² 0,7 °C 6,4 °C 4,8 km/h (1 Bft)
02.04.2018 10:56 6,6 °C 69 % 1013,3 hPa 0,0 mm 5,3 km/h (1 Bft) NO 56 ° 1 min 0,000 mm 3,4 UV-I 615 W/m² 1,3 °C 5,8 °C 9,7 km/h (2 Bft)
02.04.2018 10:57 6,6 °C 67 % 1013,2 hPa 0,0 mm 4,8 km/h (1 Bft) O-NO 71 ° 1 min 0,000 mm 3,4 UV-I 617 W/m² 0,9 °C 6,0 °C 6,4 km/h (2 Bft)
02.04.2018 10:58 6,4 °C 64 % 1013,3 hPa 0,0 mm 2,7 km/h (1 Bft) O-NO 71 ° 1 min 0,000 mm 3,5 UV-I 619 W/m² 0,1 °C 6,4 °C 4,8 km/h (1 Bft)
02.04.2018 10:59 6,3 °C 65 % 1013,2 hPa 0,0 mm 2,9 km/h (1 Bft) O-NO 71 ° 1 min 0,000 mm 3,5 UV-I 621 W/m² 0,2 °C 6,3 °C 4,8 km/h (1 Bft)
02.04.2018 11:00 6,3 °C 72 % 1013,2 hPa 0,0 mm 3,6 km/h (1 Bft) O-NO 63 ° 1 min 0,228 mm 3,5 UV-I 622 W/m² 1,6 °C 6,3 °C 6,4 km/h (2 Bft)
02.04.2018 11:01 6,3 °C 68 % 1013,2 hPa 0,0 mm 2,0 km/h (1 Bft) O-NO 61 ° 1 min 0,000 mm 3,5 UV-I 624 W/m² 0,8 °C 6,3 °C 4,8 km/h (1 Bft)
02.04.2018 11:02 6,3 °C 68 % 1013,2 hPa 0,0 mm 3,8 km/h (1 Bft) O-NO 57 ° 1 min 0,000 mm 3,5 UV-I 629 W/m² 0,8 °C 6,3 °C 4,8 km/h (1 Bft)
02.04.2018 11:03 6,4 °C 71 % 1013,2 hPa 0,0 mm 4,5 km/h (1 Bft) NO 34 ° 1 min 0,000 mm 3,5 UV-I 628 W/m² 1,5 °C 6,4 °C 9,7 km/h (2 Bft)
02.04.2018 11:04 6,6 °C 71 % 1013,2 hPa 0,0 mm 8,5 km/h (2 Bft) NO 49 ° 1 min 0,000 mm 3,5 UV-I 631 W/m² 1,7 °C 4,9 °C 11,3 km/h (2 Bft)
02.04.2018 11:05 6,7 °C 66 % 1013,2 hPa 0,0 mm 6,0 km/h (2 Bft) NO 46 ° 1 min 0,000 mm 3,6 UV-I 631 W/m² 0,8 °C 5,7 °C 8,0 km/h (2 Bft)
02.04.2018 11:06 6,6 °C 62 % 1013,1 hPa 0,0 mm 3,0 km/h (1 Bft) NO 46 ° 1 min 0,000 mm 3,6 UV-I 631 W/m² -0,1 °C 6,6 °C 3,2 km/h (1 Bft)
02.04.2018 11:07 6,6 °C 65 % 1013,2 hPa 0,0 mm 4,7 km/h (1 Bft) N-NO 24 ° 1 min 0,000 mm 3,6 UV-I 633 W/m² 0,5 °C 6,0 °C 8,0 km/h (2 Bft)
02.04.2018 11:08 6,8 °C 65 % 1013,2 hPa 0,0 mm 2,6 km/h (1 Bft) O-NO 65 ° 1 min 0,000 mm 3,6 UV-I 640 W/m² 0,7 °C 6,8 °C 6,4 km/h (2 Bft)
02.04.2018 11:09 6,8 °C 61 % 1013,2 hPa 0,0 mm 5,6 km/h (1 Bft) O 81 ° 1 min 0,000 mm 3,6 UV-I 643 W/m² -0,2 °C 5,9 °C 9,7 km/h (2 Bft)
02.04.2018 11:10 6,8 °C 63 % 1013,2 hPa 0,0 mm 6,3 km/h (2 Bft) NO 38 ° 1 min 0,000 mm 3,6 UV-I 647 W/m² 0,3 °C 5,7 °C 8,0 km/h (2 Bft)
02.04.2018 11:11 6,8 °C 62 % 1013,2 hPa 0,0 mm 4,3 km/h (1 Bft) NO 42 ° 1 min 0,000 mm 3,7 UV-I 647 W/m² 0,0 °C 6,8 °C 6,4 km/h (2 Bft)
02.04.2018 11:12 6,8 °C 59 % 1013,2 hPa 0,0 mm 5,8 km/h (2 Bft) O 94 ° 1 min 0,000 mm 3,7 UV-I 654 W/m² -0,6 °C 5,9 °C 11,3 km/h (2 Bft)
02.04.2018 11:13 6,8 °C 57 % 1013,2 hPa 0,0 mm 7,4 km/h (2 Bft) O 94 ° 1 min 0,000 mm 3,7 UV-I 650 W/m² -1,1 °C 5,4 °C 11,3 km/h (2 Bft)
02.04.2018 11:14 6,8 °C 58 % 1013,2 hPa 0,0 mm 3,0 km/h (1 Bft) O 98 ° 1 min 0,000 mm 3,7 UV-I 645 W/m² -0,9 °C 6,8 °C 6,4 km/h (2 Bft)
02.04.2018 11:15 6,9 °C 61 % 1013,1 hPa 0,0 mm 2,6 km/h (1 Bft) O-SO 111 ° 1 min 0,000 mm 3,7 UV-I 656 W/m² -0,1 °C 6,9 °C 6,4 km/h (2 Bft)
02.04.2018 11:16 6,9 °C 58 % 1013,2 hPa 0,0 mm 1,2 km/h (1 Bft) O-SO 111 ° 1 min 0,000 mm 3,7 UV-I 643 W/m² -0,8 °C 6,9 °C 3,2 km/h (1 Bft)
02.04.2018 11:17 7,0 °C 62 % 1013,1 hPa 0,0 mm 4,8 km/h (1 Bft) NO 55 ° 1 min 0,000 mm 3,7 UV-I 647 W/m² 0,2 °C 6,4 °C 8,0 km/h (2 Bft)
02.04.2018 11:18 7,1 °C 61 % 1013,1 hPa 0,0 mm 5,6 km/h (1 Bft) O-NO 65 ° 1 min 0,000 mm 3,7 UV-I 647 W/m² 0,1 °C 6,3 °C 9,7 km/h (2 Bft)
02.04.2018 11:19 7,2 °C 62 % 1013,1 hPa 0,0 mm 3,0 km/h (1 Bft) O-NO 65 ° 1 min 0,000 mm 3,7 UV-I 654 W/m² 0,4 °C 7,2 °C 8,0 km/h (2 Bft)
02.04.2018 11:20 7,2 °C 56 % 1013,1 hPa 0,0 mm 3,0 km/h (1 Bft) O-NO 67 ° 1 min 0,000 mm 3,7 UV-I 640 W/m² -1,0 °C 7,2 °C 6,4 km/h (2 Bft)
02.04.2018 11:21 7,2 °C 56 % 1013,1 hPa 0,0 mm 5,0 km/h (1 Bft) O-NO 58 ° 1 min 0,000 mm 3,8 UV-I 650 W/m² -1,0 °C 6,6 °C 8,0 km/h (2 Bft)
02.04.2018 11:22 7,3 °C 55 % 1013,1 hPa 0,0 mm 5,0 km/h (1 Bft) NO 36 ° 1 min 0,000 mm 3,8 UV-I 666 W/m² -1,1 °C 6,7 °C 8,0 km/h (2 Bft)
02.04.2018 11:23 7,4 °C 51 % 1013,1 hPa 0,0 mm 5,8 km/h (2 Bft) O-NO 67 ° 1 min 0,000 mm 3,8 UV-I 668 W/m² -2,1 °C 6,5 °C 8,0 km/h (2 Bft)
02.04.2018 11:24 7,4 °C 51 % 1013,1 hPa 0,0 mm 4,7 km/h (1 Bft) NO 54 ° 1 min 0,000 mm 3,8 UV-I 656 W/m² -2,1 °C 6,9 °C 9,7 km/h (2 Bft)
02.04.2018 11:25 7,5 °C 60 % 1013,1 hPa 0,0 mm 1,2 km/h (1 Bft) O-NO 57 ° 1 min 0,000 mm 3,9 UV-I 668 W/m² 0,2 °C 7,5 °C 4,8 km/h (1 Bft)
02.04.2018 11:26 7,6 °C 55 % 1013,0 hPa 0,0 mm 1,7 km/h (1 Bft) O 88 ° 1 min 0,000 mm 3,9 UV-I 675 W/m² -0,9 °C 7,6 °C 3,2 km/h (1 Bft)
02.04.2018 11:27 7,7 °C 59 % 1013,1 hPa 0,0 mm 4,5 km/h (1 Bft) O 85 ° 1 min 0,000 mm 3,9 UV-I 675 W/m² 0,2 °C 7,7 °C 6,4 km/h (2 Bft)
02.04.2018 11:28 7,6 °C 51 % 1013,1 hPa 0,0 mm 3,3 km/h (1 Bft) O-NO 76 ° 1 min 0,000 mm 3,9 UV-I 686 W/m² -1,9 °C 7,6 °C 4,8 km/h (1 Bft)
02.04.2018 11:29 7,6 °C 56 % 1013,1 hPa 0,0 mm 4,2 km/h (1 Bft) NO 53 ° 1 min 0,000 mm 3,9 UV-I 679 W/m² -0,6 °C 7,6 °C 8,0 km/h (2 Bft)
02.04.2018 11:30 7,7 °C 56 % 1013,0 hPa 0,0 mm 7,0 km/h (2 Bft) O-NO 66 ° 1 min 0,000 mm 3,9 UV-I 675 W/m² -0,5 °C 6,6 °C 9,7 km/h (2 Bft)
02.04.2018 11:31 7,7 °C 55 % 1013,0 hPa 0,0 mm 3,8 km/h (1 Bft) O-NO 68 ° 1 min 0,000 mm 4,0 UV-I 670 W/m² -0,8 °C 7,7 °C 6,4 km/h (2 Bft)
02.04.2018 11:32 7,7 °C 56 % 1013,0 hPa 0,0 mm 5,2 km/h (1 Bft) O-NO 73 ° 1 min 0,000 mm 3,8 UV-I 656 W/m² -0,5 °C 7,1 °C 8,0 km/h (2 Bft)
02.04.2018 11:33 7,6 °C 53 % 1013,0 hPa 0,0 mm 3,5 km/h (1 Bft) O-NO 73 ° 1 min 0,000 mm 3,8 UV-I 617 W/m² -1,4 °C 7,6 °C 4,8 km/h (1 Bft)
02.04.2018 11:34 7,5 °C 53 % 1013,0 hPa 0,0 mm 4,0 km/h (1 Bft) O-NO 75 ° 1 min 0,000 mm 3,9 UV-I 680 W/m² -1,4 °C 7,5 °C 6,4 km/h (2 Bft)
02.04.2018 11:35 7,4 °C 49 % 1013,0 hPa 0,0 mm 2,2 km/h (1 Bft) O-NO 75 ° 1 min 0,000 mm 4,0 UV-I 689 W/m² -2,6 °C 7,4 °C 4,8 km/h (1 Bft)
02.04.2018 11:36 7,4 °C 51 % 1012,9 hPa 0,0 mm 0,9 km/h (0 Bft) O-NO 75 ° 1 min 0,000 mm 4,0 UV-I 682 W/m² -2,1 °C 7,4 °C 3,2 km/h (1 Bft)
02.04.2018 11:37 7,6 °C 52 % 1012,9 hPa 0,0 mm 1,5 km/h (1 Bft) O-NO 75 ° 1 min 0,000 mm 3,8 UV-I 684 W/m² -1,6 °C 7,6 °C 3,2 km/h (1 Bft)
02.04.2018 11:38 7,6 °C 51 % 1012,8 hPa 0,0 mm 3,8 km/h (1 Bft) NO 40 ° 1 min 0,000 mm 4,0 UV-I 682 W/m² -1,9 °C 7,6 °C 6,4 km/h (2 Bft)
02.04.2018 11:39 7,7 °C 53 % 1012,9 hPa 0,0 mm 5,0 km/h (1 Bft) N-NO 32 ° 1 min 0,000 mm 4,0 UV-I 680 W/m² -1,3 °C 7,1 °C 8,0 km/h (2 Bft)
02.04.2018 11:40 7,8 °C 54 % 1012,9 hPa 0,0 mm 4,0 km/h (1 Bft) N-NO 17 ° 1 min 0,000 mm 3,9 UV-I 645 W/m² -0,9 °C 7,8 °C 8,0 km/h (2 Bft)
02.04.2018 11:41 7,9 °C 54 % 1012,9 hPa 0,0 mm 2,1 km/h (1 Bft) N-NO 17 ° 1 min 0,000 mm 4,0 UV-I 663 W/m² -0,8 °C 7,9 °C 6,4 km/h (2 Bft)
02.04.2018 11:42 8,1 °C 57 % 1012,9 hPa 0,0 mm 4,5 km/h (1 Bft) NO 42 ° 1 min 0,000 mm 4,0 UV-I 686 W/m² 0,1 °C 8,1 °C 8,0 km/h (2 Bft)
02.04.2018 11:43 8,3 °C 55 % 1012,9 hPa 0,0 mm 7,7 km/h (2 Bft) SO 126 ° 1 min 0,000 mm 4,1 UV-I 689 W/m² -0,2 °C 7,1 °C 11,3 km/h (2 Bft)
02.04.2018 11:44 8,2 °C 51 % 1012,8 hPa 0,0 mm 5,3 km/h (1 Bft) NO 50 ° 1 min 0,000 mm 4,0 UV-I 684 W/m² -1,3 °C 7,6 °C 9,7 km/h (2 Bft)
02.04.2018 11:45 8,0 °C 50 % 1012,8 hPa 0,0 mm 5,4 km/h (1 Bft) O-NO 78 ° 1 min 0,000 mm 4,1 UV-I 689 W/m² -1,8 °C 7,4 °C 8,0 km/h (2 Bft)
02.04.2018 11:46 7,9 °C 48 % 1012,8 hPa 0,0 mm 3,5 km/h (1 Bft) O-NO 78 ° 1 min 0,000 mm 4,1 UV-I 693 W/m² -2,4 °C 7,9 °C 4,8 km/h (1 Bft)
02.04.2018 11:47 7,8 °C 51 % 1012,8 hPa 0,0 mm 5,3 km/h (1 Bft) N-NO 29 ° 1 min 0,000 mm 4,1 UV-I 693 W/m² -1,7 °C 7,2 °C 6,4 km/h (2 Bft)
02.04.2018 11:48 7,9 °C 51 % 1012,8 hPa 0,0 mm 6,2 km/h (2 Bft) O-NO 69 ° 1 min 0,000 mm 4,1 UV-I 696 W/m² -1,6 °C 7,0 °C 8,0 km/h (2 Bft)
02.04.2018 11:49 7,9 °C 53 % 1012,8 hPa 0,0 mm 6,6 km/h (2 Bft) O 90 ° 1 min 0,000 mm 4,1 UV-I 701 W/m² -1,1 °C 6,9 °C 8,0 km/h (2 Bft)
02.04.2018 11:50 7,9 °C 54 % 1012,8 hPa 0,0 mm 6,0 km/h (2 Bft) O 94 ° 1 min 0,000 mm 4,1 UV-I 701 W/m² -0,8 °C 7,1 °C 11,3 km/h (2 Bft)
02.04.2018 11:51 7,9 °C 56 % 1012,8 hPa 0,0 mm 4,2 km/h (1 Bft) O 86 ° 1 min 0,000 mm 4,2 UV-I 701 W/m² -0,3 °C 7,9 °C 6,4 km/h (2 Bft)
02.04.2018 11:52 7,9 °C 53 % 1012,8 hPa 0,0 mm 2,3 km/h (1 Bft) N-NO 26 ° 1 min 0,000 mm 4,1 UV-I 694 W/m² -1,1 °C 7,9 °C 6,4 km/h (2 Bft)
02.04.2018 11:53 8,0 °C 54 % 1012,8 hPa 0,0 mm 4,9 km/h (1 Bft) N-NO 21 ° 1 min 0,000 mm 4,2 UV-I 696 W/m² -0,7 °C 7,5 °C 6,4 km/h (2 Bft)
02.04.2018 11:54 8,2 °C 58 % 1012,8 hPa 0,0 mm 4,2 km/h (1 Bft) NO 34 ° 1 min 0,000 mm 4,2 UV-I 719 W/m² 0,4 °C 8,2 °C 6,4 km/h (2 Bft)
02.04.2018 11:55 8,2 °C 54 % 1012,8 hPa 0,0 mm 6,2 km/h (2 Bft) N-NO 26 ° 1 min 0,000 mm 4,2 UV-I 700 W/m² -0,5 °C 7,3 °C 8,0 km/h (2 Bft)
02.04.2018 11:56 8,3 °C 55 % 1012,8 hPa 0,0 mm 6,2 km/h (2 Bft) N-NO 30 ° 1 min 0,000 mm 4,2 UV-I 698 W/m² -0,2 °C 7,5 °C 8,0 km/h (2 Bft)
02.04.2018 11:57 8,4 °C 56 % 1012,8 hPa 0,0 mm 5,6 km/h (1 Bft) NO 49 ° 1 min 0,000 mm 4,3 UV-I 714 W/m² 0,1 °C 7,7 °C 8,0 km/h (2 Bft)
02.04.2018 11:58 8,3 °C 51 % 1012,7 hPa 0,0 mm 5,9 km/h (2 Bft) N-NO 24 ° 1 min 0,000 mm 4,3 UV-I 721 W/m² -1,2 °C 7,5 °C 11,3 km/h (2 Bft)
02.04.2018 11:59 8,2 °C 52 % 1012,7 hPa 0,0 mm 7,7 km/h (2 Bft) NO 36 ° 1 min 0,000 mm 4,3 UV-I 722 W/m² -1,1 °C 7,0 °C 11,3 km/h (2 Bft)
02.04.2018 12:00 8,3 °C 53 % 1012,7 hPa 0,0 mm 5,8 km/h (2 Bft) NO 44 ° 1 min 0,305 mm 4,3 UV-I 715 W/m² -0,7 °C 7,6 °C 9,7 km/h (2 Bft)
02.04.2018 12:01 8,4 °C 53 % 1012,7 hPa 0,0 mm 6,5 km/h (2 Bft) NO 38 ° 1 min 0,000 mm 4,3 UV-I 733 W/m² -0,6 °C 7,5 °C 8,0 km/h (2 Bft)
02.04.2018 12:02 8,4 °C 52 % 1012,7 hPa 0,0 mm 6,3 km/h (2 Bft) NO 43 ° 1 min 0,000 mm 4,2 UV-I 724 W/m² -0,9 °C 7,5 °C 9,7 km/h (2 Bft)
02.04.2018 12:03 8,3 °C 53 % 1012,7 hPa 0,0 mm 3,4 km/h (1 Bft) N-NO 27 ° 1 min 0,000 mm 4,3 UV-I 705 W/m² -0,7 °C 8,3 °C 4,8 km/h (1 Bft)
02.04.2018 12:04 8,3 °C 52 % 1012,7 hPa 0,0 mm 2,9 km/h (1 Bft) O-NO 57 ° 1 min 0,000 mm 4,3 UV-I 724 W/m² -1,0 °C 8,3 °C 4,8 km/h (1 Bft)
02.04.2018 12:05 8,3 °C 55 % 1012,7 hPa 0,0 mm 2,1 km/h (1 Bft) O-NO 57 ° 1 min 0,000 mm 4,3 UV-I 707 W/m² -0,2 °C 8,3 °C 4,8 km/h (1 Bft)
02.04.2018 12:06 8,3 °C 55 % 1012,6 hPa 0,0 mm 3,6 km/h (1 Bft) N-NO 28 ° 1 min 0,000 mm 4,3 UV-I 722 W/m² -0,2 °C 8,3 °C 8,0 km/h (2 Bft)
02.04.2018 12:07 8,6 °C 56 % 1012,7 hPa 0,0 mm 5,2 km/h (1 Bft) N-NO 27 ° 1 min 0,000 mm 4,3 UV-I 729 W/m² 0,3 °C 8,1 °C 8,0 km/h (2 Bft)
02.04.2018 12:08 8,7 °C 53 % 1012,6 hPa 0,0 mm 5,7 km/h (1 Bft) NO 34 ° 1 min 0,000 mm 4,4 UV-I 729 W/m² -0,3 °C 8,1 °C 8,0 km/h (2 Bft)
02.04.2018 12:09 8,8 °C 55 % 1012,6 hPa 0,0 mm 4,0 km/h (1 Bft) O-NO 61 ° 1 min 0,000 mm 4,4 UV-I 737 W/m² 0,3 °C 8,8 °C 6,4 km/h (2 Bft)
02.04.2018 12:10 8,8 °C 50 % 1012,6 hPa 0,0 mm 1,3 km/h (1 Bft) O-NO 62 ° 1 min 0,000 mm 4,4 UV-I 737 W/m² -1,0 °C 8,8 °C 4,8 km/h (1 Bft)
02.04.2018 12:11 8,8 °C 49 % 1012,6 hPa 0,0 mm 5,4 km/h (1 Bft) O-NO 71 ° 1 min 0,000 mm 4,4 UV-I 735 W/m² -1,3 °C 8,3 °C 8,0 km/h (2 Bft)
02.04.2018 12:12 8,8 °C 52 % 1012,5 hPa 0,0 mm 6,7 km/h (2 Bft) N-NO 13 ° 1 min 0,000 mm 4,4 UV-I 733 W/m² -0,5 °C 7,9 °C 8,0 km/h (2 Bft)
02.04.2018 12:13 8,9 °C 52 % 1012,6 hPa 0,0 mm 7,4 km/h (2 Bft) N-NO 25 ° 1 min 0,000 mm 4,4 UV-I 740 W/m² -0,4 °C 7,9 °C 12,9 km/h (3 Bft)
02.04.2018 12:14 9,1 °C 51 % 1012,6 hPa 0,0 mm 7,7 km/h (2 Bft) N-NO 17 ° 1 min 0,000 mm 4,5 UV-I 740 W/m² -0,5 °C 8,0 °C 11,3 km/h (2 Bft)
02.04.2018 12:15 9,1 °C 50 % 1012,6 hPa 0,0 mm 6,6 km/h (2 Bft) O-NO 58 ° 1 min 0,000 mm 4,5 UV-I 744 W/m² -0,8 °C 8,3 °C 9,7 km/h (2 Bft)
02.04.2018 12:16 9,1 °C 49 % 1012,6 hPa 0,0 mm 7,7 km/h (2 Bft) NO 44 ° 1 min 0,000 mm 4,5 UV-I 745 W/m² -1,0 °C 8,0 °C 12,9 km/h (3 Bft)
02.04.2018 12:17 9,2 °C 51 % 1012,5 hPa 0,0 mm 5,4 km/h (1 Bft) O 96 ° 1 min 0,000 mm 4,4 UV-I 749 W/m² -0,4 °C 8,7 °C 6,4 km/h (2 Bft)
02.04.2018 12:18 9,1 °C 47 % 1012,6 hPa 0,0 mm 4,0 km/h (1 Bft) O 82 ° 1 min 0,000 mm 4,5 UV-I 751 W/m² -1,6 °C 9,1 °C 8,0 km/h (2 Bft)
02.04.2018 12:19 9,0 °C 48 % 1012,5 hPa 0,0 mm 2,3 km/h (1 Bft) N-NW 343 ° 1 min 0,000 mm 4,4 UV-I 691 W/m² -1,4 °C 9,0 °C 6,4 km/h (2 Bft)
02.04.2018 12:20 9,0 °C 48 % 1012,5 hPa 0,0 mm 3,7 km/h (1 Bft) N 5 ° 1 min 0,000 mm 4,5 UV-I 744 W/m² -1,4 °C 9,0 °C 4,8 km/h (1 Bft)
02.04.2018 12:21 9,2 °C 48 % 1012,5 hPa 0,0 mm 5,7 km/h (1 Bft) NO 41 ° 1 min 0,000 mm 4,5 UV-I 751 W/m² -1,2 °C 8,6 °C 8,0 km/h (2 Bft)
02.04.2018 12:22 9,2 °C 50 % 1012,5 hPa 0,0 mm 2,5 km/h (1 Bft) NO 40 ° 1 min 0,000 mm 4,5 UV-I 749 W/m² -0,7 °C 9,2 °C 4,8 km/h (1 Bft)
02.04.2018 12:23 9,2 °C 49 % 1012,4 hPa 0,0 mm 4,6 km/h (1 Bft) N-NO 22 ° 1 min 0,000 mm 4,5 UV-I 749 W/m² -0,9 °C 9,0 °C 6,4 km/h (2 Bft)
02.04.2018 12:24 9,3 °C 48 % 1012,5 hPa 0,0 mm 7,2 km/h (2 Bft) O-NO 69 ° 1 min 0,000 mm 4,5 UV-I 752 W/m² -1,1 °C 8,4 °C 9,7 km/h (2 Bft)
02.04.2018 12:25 9,2 °C 47 % 1012,4 hPa 0,0 mm 5,5 km/h (1 Bft) N-NO 20 ° 1 min 0,000 mm 4,6 UV-I 752 W/m² -1,5 °C 8,7 °C 8,0 km/h (2 Bft)
02.04.2018 12:26 9,2 °C 45 % 1012,4 hPa 0,0 mm 5,3 km/h (1 Bft) NO 34 ° 1 min 0,000 mm 4,6 UV-I 758 W/m² -2,1 °C 8,8 °C 6,4 km/h (2 Bft)
02.04.2018 12:27 9,3 °C 50 % 1012,4 hPa 0,0 mm 5,1 km/h (1 Bft) N-NO 27 ° 1 min 0,000 mm 4,6 UV-I 761 W/m² -0,6 °C 8,9 °C 9,7 km/h (2 Bft)
02.04.2018 12:28 9,3 °C 46 % 1012,4 hPa 0,0 mm 6,4 km/h (2 Bft) N-NO 20 ° 1 min 0,000 mm 4,3 UV-I 729 W/m² -1,7 °C 8,6 °C 8,0 km/h (2 Bft)
02.04.2018 12:29 9,3 °C 48 % 1012,4 hPa 0,0 mm 4,4 km/h (1 Bft) N-NO 26 ° 1 min 0,000 mm 4,4 UV-I 705 W/m² -1,1 °C 9,3 °C 6,4 km/h (2 Bft)
02.04.2018 12:30 9,4 °C 48 % 1012,3 hPa 0,0 mm 3,6 km/h (1 Bft) N-NO 26 ° 1 min 0,000 mm 4,5 UV-I 761 W/m² -1,0 °C 9,4 °C 4,8 km/h (1 Bft)
02.04.2018 12:31 9,4 °C 46 % 1012,3 hPa 0,0 mm 2,3 km/h (1 Bft) N-NO 26 ° 1 min 0,000 mm 4,6 UV-I 758 W/m² -1,6 °C 9,4 °C 4,8 km/h (1 Bft)
02.04.2018 12:32 9,4 °C 47 % 1012,3 hPa 0,0 mm 4,8 km/h (1 Bft) N-NO 23 ° 1 min 0,000 mm 4,6 UV-I 761 W/m² -1,3 °C 9,1 °C 6,4 km/h (2 Bft)
02.04.2018 12:33 9,4 °C 46 % 1012,3 hPa 0,0 mm 4,0 km/h (1 Bft) N-NO 19 ° 1 min 0,000 mm 4,6 UV-I 752 W/m² -1,6 °C 9,4 °C 6,4 km/h (2 Bft)
02.04.2018 12:34 9,4 °C 48 % 1012,2 hPa 0,0 mm 3,9 km/h (1 Bft) N-NO 18 ° 1 min 0,000 mm 4,6 UV-I 756 W/m² -1,0 °C 9,4 °C 4,8 km/h (1 Bft)
02.04.2018 12:35 9,7 °C 50 % 1012,3 hPa 0,0 mm 4,4 km/h (1 Bft) N 9 ° 1 min 0,000 mm 4,6 UV-I 754 W/m² -0,2 °C 9,7 °C 6,4 km/h (2 Bft)
02.04.2018 12:36 9,8 °C 46 % 1012,2 hPa 0,0 mm 5,0 km/h (1 Bft) N 9 ° 1 min 0,000 mm 4,6 UV-I 759 W/m² -1,3 °C 9,5 °C 8,0 km/h (2 Bft)
02.04.2018 12:37 9,9 °C 46 % 1012,2 hPa 0,0 mm 5,8 km/h (2 Bft) N 5 ° 1 min 0,000 mm 4,7 UV-I 763 W/m² -1,2 °C 9,4 °C 8,0 km/h (2 Bft)
02.04.2018 12:38 10,0 °C 48 % 1012,2 hPa 0,0 mm 4,2 km/h (1 Bft) N 5 ° 1 min 0,000 mm 4,7 UV-I 766 W/m² -0,5 °C 10,0 °C 6,4 km/h (2 Bft)
02.04.2018 12:39 10,1 °C 50 % 1012,2 hPa 0,0 mm 3,2 km/h (1 Bft) N 5 ° 1 min 0,000 mm 4,7 UV-I 765 W/m² 0,2 °C 10,1 °C 4,8 km/h (1 Bft)
02.04.2018 12:40 10,1 °C 47 % 1012,2 hPa 0,0 mm 5,6 km/h (1 Bft) N 360 ° 1 min 0,000 mm 4,8 UV-I 768 W/m² -0,7 °C 10,1 °C 8,0 km/h (2 Bft)
02.04.2018 12:41 10,2 °C 46 % 1012,2 hPa 0,0 mm 6,6 km/h (2 Bft) N 10 ° 1 min 0,000 mm 4,8 UV-I 770 W/m² -0,9 °C 10,2 °C 8,0 km/h (2 Bft)
02.04.2018 12:42 10,2 °C 46 % 1012,2 hPa 0,0 mm 4,6 km/h (1 Bft) N 355 ° 1 min 0,000 mm 4,8 UV-I 773 W/m² -0,9 °C 10,2 °C 6,4 km/h (2 Bft)
02.04.2018 12:43 10,1 °C 45 % 1012,2 hPa 0,0 mm 2,7 km/h (1 Bft) N 9 ° 1 min 0,000 mm 4,8 UV-I 773 W/m² -1,3 °C 10,1 °C 4,8 km/h (1 Bft)
02.04.2018 12:44 10,2 °C 46 % 1012,2 hPa 0,0 mm 6,8 km/h (2 Bft) N 10 ° 1 min 0,000 mm 4,9 UV-I 773 W/m² -0,9 °C 10,2 °C 11,3 km/h (2 Bft)
02.04.2018 12:45 10,3 °C 44 % 1012,2 hPa 0,0 mm 5,2 km/h (1 Bft) N 11 ° 1 min 0,000 mm 4,9 UV-I 773 W/m² -1,4 °C 10,3 °C 8,0 km/h (2 Bft)
02.04.2018 12:46 10,3 °C 45 % 1012,1 hPa 0,0 mm 4,7 km/h (1 Bft) N-NO 15 ° 1 min 0,000 mm 4,9 UV-I 777 W/m² -1,1 °C 10,3 °C 6,4 km/h (2 Bft)
02.04.2018 12:47 10,4 °C 48 % 1012,0 hPa 0,0 mm 2,8 km/h (1 Bft) NO 46 ° 1 min 0,000 mm 4,8 UV-I 779 W/m² -0,1 °C 10,4 °C 6,4 km/h (2 Bft)
02.04.2018 12:48 10,4 °C 46 % 1012,0 hPa 0,0 mm 6,6 km/h (2 Bft) N 11 ° 1 min 0,000 mm 4,9 UV-I 751 W/m² -0,7 °C 10,4 °C 12,9 km/h (3 Bft)
02.04.2018 12:49 10,4 °C 47 % 1012,0 hPa 0,0 mm 7,6 km/h (2 Bft) N 355 ° 1 min 0,000 mm 5,0 UV-I 798 W/m² -0,4 °C 10,4 °C 11,3 km/h (2 Bft)
02.04.2018 12:50 10,4 °C 44 % 1012,0 hPa 0,0 mm 6,3 km/h (2 Bft) N-NW 328 ° 1 min 0,000 mm 5,0 UV-I 802 W/m² -1,3 °C 10,4 °C 8,0 km/h (2 Bft)
02.04.2018 12:51 10,5 °C 45 % 1012,0 hPa 0,0 mm 4,1 km/h (1 Bft) N 11 ° 1 min 0,000 mm 4,4 UV-I 802 W/m² -0,9 °C 10,5 °C 8,0 km/h (2 Bft)
02.04.2018 12:52 10,4 °C 41 % 1012,0 hPa 0,0 mm 6,2 km/h (2 Bft) NO 35 ° 1 min 0,000 mm 4,9 UV-I 802 W/m² -2,3 °C 10,4 °C 8,0 km/h (2 Bft)
02.04.2018 12:53 10,3 °C 43 % 1012,0 hPa 0,0 mm 5,0 km/h (1 Bft) NO 55 ° 1 min 0,000 mm 4,9 UV-I 773 W/m² -1,7 °C 10,3 °C 8,0 km/h (2 Bft)
02.04.2018 12:54 10,3 °C 45 % 1012,0 hPa 0,0 mm 1,6 km/h (1 Bft) NO 55 ° 1 min 0,000 mm 4,9 UV-I 756 W/m² -1,1 °C 10,3 °C 3,2 km/h (1 Bft)
02.04.2018 12:55 10,4 °C 45 % 1012,0 hPa 0,0 mm 2,3 km/h (1 Bft) O-NO 59 ° 1 min 0,000 mm 4,5 UV-I 714 W/m² -1,0 °C 10,4 °C 4,8 km/h (1 Bft)
02.04.2018 12:56 10,4 °C 45 % 1011,9 hPa 0,0 mm 4,6 km/h (1 Bft) O 80 ° 1 min 0,000 mm 4,6 UV-I 657 W/m² -1,0 °C 10,4 °C 6,4 km/h (2 Bft)
02.04.2018 12:57 10,3 °C 46 % 1012,0 hPa 0,0 mm 4,8 km/h (1 Bft) O-NO 65 ° 1 min 0,000 mm 4,7 UV-I 738 W/m² -0,8 °C 10,3 °C 8,0 km/h (2 Bft)
02.04.2018 12:58 10,2 °C 44 % 1011,9 hPa 0,0 mm 1,7 km/h (1 Bft) O-NO 65 ° 1 min 0,000 mm 4,3 UV-I 705 W/m² -1,5 °C 10,2 °C 3,2 km/h (1 Bft)
02.04.2018 12:59 10,2 °C 43 % 1011,9 hPa 0,0 mm 1,7 km/h (1 Bft) O-NO 65 ° 1 min 0,000 mm 4,3 UV-I 642 W/m² -1,8 °C 10,2 °C 3,2 km/h (1 Bft)
02.04.2018 13:00 10,2 °C 45 % 1011,9 hPa 0,0 mm 0,1 km/h (0 Bft) O-NO 65 ° 1 min 0,000 mm 4,0 UV-I 624 W/m² -1,2 °C 10,2 °C 1,6 km/h (1 Bft)
02.04.2018 13:01 10,2 °C 43 % 1011,9 hPa 0,0 mm 3,2 km/h (1 Bft) NO 34 ° 1 min 0,356 mm 3,7 UV-I 527 W/m² -1,8 °C 10,2 °C 4,8 km/h (1 Bft)
02.04.2018 13:02 10,2 °C 42 % 1011,9 hPa 0,0 mm 3,8 km/h (1 Bft) N-NO 19 ° 1 min 0,000 mm 3,5 UV-I 496 W/m² -2,1 °C 10,2 °C 8,0 km/h (2 Bft)
02.04.2018 13:03 10,3 °C 44 % 1011,8 hPa 0,0 mm 6,1 km/h (2 Bft) N-NO 17 ° 1 min 0,000 mm 4,0 UV-I 570 W/m² -1,4 °C 10,3 °C 8,0 km/h (2 Bft)
02.04.2018 13:04 10,4 °C 41 % 1011,8 hPa 0,0 mm 6,3 km/h (2 Bft) N-NO 17 ° 1 min 0,000 mm 3,7 UV-I 510 W/m² -2,3 °C 10,4 °C 8,0 km/h (2 Bft)
02.04.2018 13:05 10,4 °C 40 % 1011,8 hPa 0,0 mm 4,6 km/h (1 Bft) N-NO 17 ° 1 min 0,000 mm 4,4 UV-I 689 W/m² -2,6 °C 10,4 °C 4,8 km/h (1 Bft)
02.04.2018 13:06 10,4 °C 41 % 1011,8 hPa 0,0 mm 3,8 km/h (1 Bft) N-NO 17 ° 1 min 0,000 mm 4,6 UV-I 664 W/m² -2,3 °C 10,4 °C 6,4 km/h (2 Bft)
02.04.2018 13:07 10,6 °C 41 % 1011,8 hPa 0,0 mm 2,4 km/h (1 Bft) N-NO 17 ° 1 min 0,000 mm 4,2 UV-I 693 W/m² -2,1 °C 10,6 °C 3,2 km/h (1 Bft)
02.04.2018 13:08 10,7 °C 41 % 1011,8 hPa 0,0 mm 3,8 km/h (1 Bft) N-NO 19 ° 1 min 0,000 mm 4,5 UV-I 650 W/m² -2,0 °C 10,7 °C 6,4 km/h (2 Bft)
02.04.2018 13:09 10,8 °C 43 % 1011,7 hPa 0,0 mm 4,2 km/h (1 Bft) N-NO 19 ° 1 min 0,000 mm 4,5 UV-I 703 W/m² -1,3 °C 10,8 °C 6,4 km/h (2 Bft)
02.04.2018 13:10 10,9 °C 43 % 1011,7 hPa 0,0 mm 6,4 km/h (2 Bft) N-NO 15 ° 1 min 0,000 mm 4,5 UV-I 698 W/m² -1,2 °C 10,9 °C 8,0 km/h (2 Bft)
02.04.2018 13:11 11,1 °C 46 % 1011,6 hPa 0,0 mm 3,6 km/h (1 Bft) NO 36 ° 1 min 0,000 mm 4,5 UV-I 675 W/m² -0,1 °C 11,1 °C 6,4 km/h (2 Bft)
02.04.2018 13:12 11,2 °C 45 % 1011,6 hPa 0,0 mm 2,8 km/h (1 Bft) NO 48 ° 1 min 0,000 mm 4,5 UV-I 696 W/m² -0,3 °C 11,2 °C 4,8 km/h (1 Bft)
02.04.2018 13:13 11,1 °C 45 % 1011,6 hPa 0,0 mm 3,6 km/h (1 Bft) NO 36 ° 1 min 0,000 mm 4,6 UV-I 710 W/m² -0,4 °C 11,1 °C 8,0 km/h (2 Bft)
02.04.2018 13:14 10,9 °C 47 % 1011,6 hPa 0,0 mm 4,4 km/h (1 Bft) O-NO 75 ° 1 min 0,000 mm 4,6 UV-I 696 W/m² 0,0 °C 10,9 °C 8,0 km/h (2 Bft)
02.04.2018 13:15 10,8 °C 45 % 1011,7 hPa 0,0 mm 5,7 km/h (1 Bft) N-NO 26 ° 1 min 0,000 mm 4,7 UV-I 724 W/m² -0,6 °C 10,8 °C 9,7 km/h (2 Bft)
02.04.2018 13:16 10,7 °C 45 % 1011,6 hPa 0,0 mm 5,4 km/h (1 Bft) N-NO 17 ° 1 min 0,000 mm 4,8 UV-I 756 W/m² -0,7 °C 10,7 °C 8,0 km/h (2 Bft)
02.04.2018 13:17 10,8 °C 45 % 1011,6 hPa 0,0 mm 5,2 km/h (1 Bft) NO 44 ° 1 min 0,000 mm 4,8 UV-I 777 W/m² -0,6 °C 10,8 °C 6,4 km/h (2 Bft)
02.04.2018 13:18 10,8 °C 46 % 1011,6 hPa 0,0 mm 3,9 km/h (1 Bft) NO 51 ° 1 min 0,000 mm 4,9 UV-I 791 W/m² -0,3 °C 10,8 °C 6,4 km/h (2 Bft)
02.04.2018 13:19 10,8 °C 44 % 1011,6 hPa 0,0 mm 3,4 km/h (1 Bft) NO 42 ° 1 min 0,000 mm 4,9 UV-I 795 W/m² -1,0 °C 10,8 °C 6,4 km/h (2 Bft)
02.04.2018 13:20 10,7 °C 44 % 1011,6 hPa 0,0 mm 3,6 km/h (1 Bft) NO 41 ° 1 min 0,000 mm 4,9 UV-I 788 W/m² -1,0 °C 10,7 °C 6,4 km/h (2 Bft)
02.04.2018 13:21 10,9 °C 45 % 1011,5 hPa 0,0 mm 3,9 km/h (1 Bft) N 360 ° 1 min 0,000 mm 4,9 UV-I 791 W/m² -0,6 °C 10,9 °C 6,4 km/h (2 Bft)
02.04.2018 13:22 11,0 °C 45 % 1011,5 hPa 0,0 mm 5,2 km/h (1 Bft) O 80 ° 1 min 0,000 mm 4,9 UV-I 786 W/m² -0,5 °C 11,0 °C 11,3 km/h (2 Bft)
02.04.2018 13:23 11,1 °C 46 % 1011,5 hPa 0,0 mm 6,6 km/h (2 Bft) O-NO 57 ° 1 min 0,000 mm 4,9 UV-I 756 W/m² -0,1 °C 11,1 °C 12,9 km/h (3 Bft)
02.04.2018 13:24 11,1 °C 46 % 1011,5 hPa 0,0 mm 4,8 km/h (1 Bft) NO 53 ° 1 min 0,000 mm 4,8 UV-I 758 W/m² -0,1 °C 11,1 °C 8,0 km/h (2 Bft)
02.04.2018 13:25 10,9 °C 45 % 1011,5 hPa 0,0 mm 2,5 km/h (1 Bft) NO 53 ° 1 min 0,000 mm 4,7 UV-I 754 W/m² -0,6 °C 10,9 °C 3,2 km/h (1 Bft)
02.04.2018 13:26 11,0 °C 44 % 1011,4 hPa 0,0 mm 5,3 km/h (1 Bft) N-NO 15 ° 1 min 0,000 mm 4,8 UV-I 758 W/m² -0,8 °C 11,0 °C 8,0 km/h (2 Bft)
02.04.2018 13:27 11,1 °C 45 % 1011,5 hPa 0,0 mm 6,0 km/h (2 Bft) N 11 ° 1 min 0,000 mm 4,9 UV-I 780 W/m² -0,4 °C 11,1 °C 9,7 km/h (2 Bft)
02.04.2018 13:28 11,3 °C 49 % 1011,4 hPa 0,0 mm 2,8 km/h (1 Bft) N 11 ° 1 min 0,000 mm 4,9 UV-I 786 W/m² 1,0 °C 11,3 °C 4,8 km/h (1 Bft)
02.04.2018 13:29 11,6 °C 48 % 1011,4 hPa 0,0 mm 4,5 km/h (1 Bft) NO 34 ° 1 min 0,000 mm 4,9 UV-I 784 W/m² 1,0 °C 11,6 °C 8,0 km/h (2 Bft)
02.04.2018 13:30 11,7 °C 47 % 1011,4 hPa 0,0 mm 8,4 km/h (2 Bft) NO 40 ° 1 min 0,000 mm 4,9 UV-I 775 W/m² 0,8 °C 11,7 °C 11,3 km/h (2 Bft)
02.04.2018 13:31 11,6 °C 45 % 1011,3 hPa 0,0 mm 7,0 km/h (2 Bft) NO 46 ° 1 min 0,000 mm 4,8 UV-I 765 W/m² 0,1 °C 11,6 °C 14,5 km/h (3 Bft)
02.04.2018 13:32 11,4 °C 48 % 1011,3 hPa 0,0 mm 6,0 km/h (2 Bft) NO 54 ° 1 min 0,000 mm 4,9 UV-I 770 W/m² 0,8 °C 11,4 °C 9,7 km/h (2 Bft)
02.04.2018 13:33 11,4 °C 44 % 1011,4 hPa 0,0 mm 5,6 km/h (1 Bft) NO 38 ° 1 min 0,000 mm 4,9 UV-I 784 W/m² -0,4 °C 11,4 °C 8,0 km/h (2 Bft)
02.04.2018 13:34 11,4 °C 49 % 1011,3 hPa 0,0 mm 4,4 km/h (1 Bft) N 360 ° 1 min 0,000 mm 4,9 UV-I 784 W/m² 1,1 °C 11,4 °C 9,7 km/h (2 Bft)
02.04.2018 13:35 11,5 °C 46 % 1011,4 hPa 0,0 mm 6,0 km/h (2 Bft) NO 47 ° 1 min 0,000 mm 4,9 UV-I 782 W/m² 0,3 °C 11,5 °C 8,0 km/h (2 Bft)
02.04.2018 13:36 11,5 °C 46 % 1011,3 hPa 0,0 mm 2,5 km/h (1 Bft) NO 46 ° 1 min 0,000 mm 4,8 UV-I 770 W/m² 0,3 °C 11,5 °C 4,8 km/h (1 Bft)
02.04.2018 13:37 11,5 °C 48 % 1011,3 hPa 0,0 mm 3,0 km/h (1 Bft) NO 44 ° 1 min 0,000 mm 4,7 UV-I 752 W/m² 0,9 °C 11,5 °C 4,8 km/h (1 Bft)
02.04.2018 13:38 11,6 °C 50 % 1011,3 hPa 0,0 mm 3,0 km/h (1 Bft) O-NO 72 ° 1 min 0,000 mm 4,7 UV-I 751 W/m² 1,5 °C 11,6 °C 6,4 km/h (2 Bft)
02.04.2018 13:39 11,6 °C 49 % 1011,3 hPa 0,0 mm 2,8 km/h (1 Bft) O-NO 75 ° 1 min 0,000 mm 4,8 UV-I 751 W/m² 1,3 °C 11,6 °C 8,0 km/h (2 Bft)
02.04.2018 13:40 11,6 °C 47 % 1011,3 hPa 0,0 mm 7,0 km/h (2 Bft) O-NO 65 ° 1 min 0,000 mm 4,8 UV-I 759 W/m² 0,7 °C 11,6 °C 11,3 km/h (2 Bft)
02.04.2018 13:41 11,7 °C 50 % 1011,3 hPa 0,0 mm 8,1 km/h (2 Bft) NO 39 ° 1 min 0,000 mm 4,8 UV-I 772 W/m² 1,6 °C 11,7 °C 12,9 km/h (3 Bft)
02.04.2018 13:42 11,7 °C 49 % 1011,3 hPa 0,0 mm 6,7 km/h (2 Bft) N-NO 23 ° 1 min 0,000 mm 4,9 UV-I 788 W/m² 1,3 °C 11,7 °C 12,9 km/h (3 Bft)
02.04.2018 13:43 11,8 °C 48 % 1011,3 hPa 0,0 mm 5,3 km/h (1 Bft) NO 48 ° 1 min 0,000 mm 4,9 UV-I 788 W/m² 1,2 °C 11,8 °C 8,0 km/h (2 Bft)
02.04.2018 13:44 11,7 °C 45 % 1011,3 hPa 0,0 mm 7,0 km/h (2 Bft) NO 42 ° 1 min 0,000 mm 4,9 UV-I 784 W/m² 0,2 °C 11,7 °C 11,3 km/h (2 Bft)
02.04.2018 13:45 11,7 °C 46 % 1011,2 hPa 0,0 mm 7,5 km/h (2 Bft) NO 38 ° 1 min 0,000 mm 4,9 UV-I 780 W/m² 0,5 °C 11,7 °C 14,5 km/h (3 Bft)
02.04.2018 13:46 11,8 °C 46 % 1011,3 hPa 0,0 mm 9,2 km/h (2 Bft) NO 43 ° 1 min 0,000 mm 4,9 UV-I 779 W/m² 0,6 °C 11,8 °C 16,1 km/h (3 Bft)
02.04.2018 13:47 11,7 °C 44 % 1011,3 hPa 0,0 mm 5,5 km/h (1 Bft) O-NO 57 ° 1 min 0,000 mm 4,9 UV-I 777 W/m² -0,1 °C 11,7 °C 8,0 km/h (2 Bft)
02.04.2018 13:48 11,7 °C 45 % 1011,3 hPa 0,0 mm 3,3 km/h (1 Bft) NO 53 ° 1 min 0,000 mm 4,8 UV-I 779 W/m² 0,2 °C 11,7 °C 4,8 km/h (1 Bft)
02.04.2018 13:49 11,7 °C 45 % 1011,2 hPa 0,0 mm 5,0 km/h (1 Bft) NO 38 ° 1 min 0,000 mm 4,8 UV-I 777 W/m² 0,2 °C 11,7 °C 8,0 km/h (2 Bft)
02.04.2018 13:50 11,7 °C 46 % 1011,2 hPa 0,0 mm 4,6 km/h (1 Bft) N-NO 14 ° 1 min 0,000 mm 4,9 UV-I 779 W/m² 0,5 °C 11,7 °C 6,4 km/h (2 Bft)
02.04.2018 13:51 11,8 °C 46 % 1011,2 hPa 0,0 mm 3,8 km/h (1 Bft) N 11 ° 1 min 0,000 mm 4,8 UV-I 777 W/m² 0,6 °C 11,8 °C 6,4 km/h (2 Bft)
02.04.2018 13:52 12,0 °C 46 % 1011,1 hPa 0,0 mm 6,4 km/h (2 Bft) N-NO 28 ° 1 min 0,000 mm 4,8 UV-I 777 W/m² 0,7 °C 12,0 °C 12,9 km/h (3 Bft)
02.04.2018 13:53 12,1 °C 46 % 1011,1 hPa 0,0 mm 4,9 km/h (1 Bft) O-NO 67 ° 1 min 0,000 mm 4,9 UV-I 775 W/m² 0,8 °C 12,1 °C 11,3 km/h (2 Bft)
02.04.2018 13:54 12,1 °C 44 % 1011,1 hPa 0,0 mm 6,7 km/h (2 Bft) O-NO 58 ° 1 min 0,000 mm 4,8 UV-I 773 W/m² 0,2 °C 12,1 °C 9,7 km/h (2 Bft)
02.04.2018 13:55 11,9 °C 44 % 1011,2 hPa 0,0 mm 7,4 km/h (2 Bft) O-NO 57 ° 1 min 0,000 mm 4,8 UV-I 773 W/m² 0,0 °C 11,9 °C 9,7 km/h (2 Bft)
02.04.2018 13:56 11,8 °C 44 % 1011,2 hPa 0,0 mm 4,3 km/h (1 Bft) NO 44 ° 1 min 0,000 mm 4,8 UV-I 770 W/m² -0,0 °C 11,8 °C 8,0 km/h (2 Bft)
02.04.2018 13:57 11,8 °C 44 % 1011,1 hPa 0,0 mm 5,6 km/h (1 Bft) NO 52 ° 1 min 0,000 mm 4,8 UV-I 770 W/m² -0,0 °C 11,8 °C 11,3 km/h (2 Bft)
02.04.2018 13:58 11,8 °C 45 % 1011,1 hPa 0,0 mm 5,9 km/h (2 Bft) NO 38 ° 1 min 0,000 mm 4,8 UV-I 765 W/m² 0,3 °C 11,8 °C 8,0 km/h (2 Bft)
02.04.2018 13:59 11,8 °C 43 % 1011,1 hPa 0,0 mm 6,3 km/h (2 Bft) N 9 ° 1 min 0,000 mm 4,8 UV-I 766 W/m² -0,4 °C 11,8 °C 12,9 km/h (3 Bft)
02.04.2018 14:00 11,9 °C 44 % 1011,0 hPa 0,0 mm 6,4 km/h (2 Bft) N-NO 33 ° 1 min 0,000 mm 4,8 UV-I 768 W/m² 0,0 °C 11,9 °C 9,7 km/h (2 Bft)
02.04.2018 14:01 12,0 °C 44 % 1011,0 hPa 0,0 mm 4,5 km/h (1 Bft) N 5 ° 1 min 0,381 mm 4,8 UV-I 766 W/m² 0,1 °C 12,0 °C 8,0 km/h (2 Bft)
02.04.2018 14:02 12,2 °C 45 % 1011,0 hPa 0,0 mm 3,2 km/h (1 Bft) N 360 ° 1 min 0,000 mm 4,8 UV-I 768 W/m² 0,6 °C 12,2 °C 4,8 km/h (1 Bft)
02.04.2018 14:03 12,3 °C 44 % 1011,0 hPa 0,0 mm 5,1 km/h (1 Bft) N 5 ° 1 min 0,000 mm 4,8 UV-I 766 W/m² 0,4 °C 12,3 °C 8,0 km/h (2 Bft)
02.04.2018 14:04 12,4 °C 44 % 1010,9 hPa 0,0 mm 6,8 km/h (2 Bft) N-NO 23 ° 1 min 0,000 mm 4,8 UV-I 766 W/m² 0,5 °C 12,4 °C 9,7 km/h (2 Bft)
02.04.2018 14:05 12,4 °C 42 % 1011,0 hPa 0,0 mm 4,1 km/h (1 Bft) NO 47 ° 1 min 0,000 mm 4,7 UV-I 751 W/m² -0,1 °C 12,4 °C 6,4 km/h (2 Bft)
02.04.2018 14:06 12,4 °C 45 % 1011,0 hPa 0,0 mm 8,0 km/h (2 Bft) O-NO 70 ° 1 min 0,000 mm 4,8 UV-I 761 W/m² 0,8 °C 12,4 °C 14,5 km/h (3 Bft)
02.04.2018 14:07 12,3 °C 43 % 1011,0 hPa 0,0 mm 6,8 km/h (2 Bft) O-NO 75 ° 1 min 0,000 mm 4,7 UV-I 758 W/m² 0,1 °C 12,3 °C 8,0 km/h (2 Bft)
02.04.2018 14:08 12,2 °C 43 % 1011,0 hPa 0,0 mm 8,9 km/h (2 Bft) O-NO 69 ° 1 min 0,000 mm 4,7 UV-I 747 W/m² -0,0 °C 12,2 °C 12,9 km/h (3 Bft)
02.04.2018 14:09 12,1 °C 42 % 1011,0 hPa 0,0 mm 4,8 km/h (1 Bft) O-NO 76 ° 1 min 0,000 mm 4,7 UV-I 765 W/m² -0,4 °C 12,1 °C 6,4 km/h (2 Bft)
02.04.2018 14:10 12,1 °C 43 % 1011,0 hPa 0,0 mm 3,0 km/h (1 Bft) NO 46 ° 1 min 0,000 mm 4,7 UV-I 770 W/m² -0,1 °C 12,1 °C 6,4 km/h (2 Bft)
02.04.2018 14:11 12,1 °C 44 % 1011,0 hPa 0,0 mm 4,8 km/h (1 Bft) NO 56 ° 1 min 0,000 mm 4,7 UV-I 779 W/m² 0,2 °C 12,1 °C 8,0 km/h (2 Bft)
02.04.2018 14:12 12,2 °C 43 % 1011,0 hPa 0,0 mm 3,6 km/h (1 Bft) O-NO 75 ° 1 min 0,000 mm 4,8 UV-I 786 W/m² -0,0 °C 12,2 °C 6,4 km/h (2 Bft)
02.04.2018 14:13 12,2 °C 42 % 1010,9 hPa 0,0 mm 5,1 km/h (1 Bft) NO 41 ° 1 min 0,000 mm 4,8 UV-I 789 W/m² -0,3 °C 12,2 °C 6,4 km/h (2 Bft)
02.04.2018 14:14 12,2 °C 40 % 1011,0 hPa 0,0 mm 2,6 km/h (1 Bft) NO 46 ° 1 min 0,000 mm 4,8 UV-I 805 W/m² -1,0 °C 12,2 °C 3,2 km/h (1 Bft)
02.04.2018 14:15 12,2 °C 41 % 1011,0 hPa 0,0 mm 3,0 km/h (1 Bft) O-NO 63 ° 1 min 0,000 mm 4,9 UV-I 809 W/m² -0,7 °C 12,2 °C 4,8 km/h (1 Bft)
02.04.2018 14:16 12,1 °C 40 % 1011,0 hPa 0,0 mm 0,0 km/h (0 Bft) O-NO 63 ° 1 min 0,000 mm 4,9 UV-I 819 W/m² -1,1 °C 12,1 °C 0,0 km/h (0 Bft)
02.04.2018 14:17 12,1 °C 40 % 1010,9 hPa 0,0 mm 4,2 km/h (1 Bft) NO 48 ° 1 min 0,000 mm 4,7 UV-I 819 W/m² -1,1 °C 12,1 °C 8,0 km/h (2 Bft)
02.04.2018 14:18 12,4 °C 42 % 1010,9 hPa 0,0 mm 6,0 km/h (2 Bft) O-SO 108 ° 1 min 0,000 mm 5,0 UV-I 819 W/m² -0,1 °C 12,4 °C 11,3 km/h (2 Bft)
02.04.2018 14:19 12,6 °C 43 % 1010,9 hPa 0,0 mm 5,0 km/h (1 Bft) SO 138 ° 1 min 0,000 mm 5,1 UV-I 842 W/m² 0,4 °C 12,6 °C 9,7 km/h (2 Bft)
02.04.2018 14:20 12,6 °C 40 % 1010,8 hPa 0,0 mm 1,0 km/h (0 Bft) SO 138 ° 1 min 0,000 mm 5,1 UV-I 851 W/m² -0,6 °C 12,6 °C 1,6 km/h (1 Bft)
02.04.2018 14:21 12,6 °C 44 % 1010,8 hPa 0,0 mm 5,7 km/h (1 Bft) N-NO 16 ° 1 min 0,000 mm 5,1 UV-I 884 W/m² 0,7 °C 12,6 °C 8,0 km/h (2 Bft)
02.04.2018 14:22 12,8 °C 39 % 1010,8 hPa 0,0 mm 6,4 km/h (2 Bft) NO 38 ° 1 min 0,000 mm 5,3 UV-I 919 W/m² -0,8 °C 12,8 °C 8,0 km/h (2 Bft)
02.04.2018 14:23 13,1 °C 42 % 1010,8 hPa 0,0 mm 4,9 km/h (1 Bft) N 355 ° 1 min 0,000 mm 5,3 UV-I 919 W/m² 0,5 °C 13,1 °C 8,0 km/h (2 Bft)
02.04.2018 14:24 13,2 °C 41 % 1010,8 hPa 0,0 mm 6,2 km/h (2 Bft) N 5 ° 1 min 0,000 mm 4,6 UV-I 919 W/m² 0,2 °C 13,2 °C 11,3 km/h (2 Bft)
02.04.2018 14:25 13,3 °C 42 % 1010,8 hPa 0,0 mm 7,0 km/h (2 Bft) N 5 ° 1 min 0,000 mm 5,3 UV-I 939 W/m² 0,7 °C 13,3 °C 11,3 km/h (2 Bft)
02.04.2018 14:26 13,3 °C 38 % 1010,9 hPa 0,0 mm 4,2 km/h (1 Bft) N 360 ° 1 min 0,000 mm 5,6 UV-I 958 W/m² -0,7 °C 13,3 °C 8,0 km/h (2 Bft)
02.04.2018 14:27 13,4 °C 39 % 1010,8 hPa 0,0 mm 3,3 km/h (1 Bft) O 97 ° 1 min 0,000 mm 5,0 UV-I 911 W/m² -0,3 °C 13,4 °C 6,4 km/h (2 Bft)
02.04.2018 14:28 13,1 °C 40 % 1010,8 hPa 0,0 mm 5,3 km/h (1 Bft) O 93 ° 1 min 0,000 mm 4,9 UV-I 911 W/m² -0,2 °C 13,1 °C 9,7 km/h (2 Bft)
02.04.2018 14:29 12,8 °C 38 % 1010,8 hPa 0,0 mm 3,1 km/h (1 Bft) O-SO 119 ° 1 min 0,000 mm 3,8 UV-I 911 W/m² -1,2 °C 12,8 °C 4,8 km/h (1 Bft)
02.04.2018 14:30 12,6 °C 38 % 1010,8 hPa 0,0 mm 5,7 km/h (1 Bft) SO 142 ° 1 min 0,000 mm 4,4 UV-I 615 W/m² -1,3 °C 12,6 °C 8,0 km/h (2 Bft)
02.04.2018 14:31 12,7 °C 39 % 1010,7 hPa 0,0 mm 0,6 km/h (0 Bft) O-SO 109 ° 1 min 0,000 mm 3,8 UV-I 615 W/m² -0,9 °C 12,7 °C 3,2 km/h (1 Bft)
02.04.2018 14:32 12,7 °C 41 % 1010,8 hPa 0,0 mm 2,0 km/h (1 Bft) O-NO 63 ° 1 min 0,000 mm 4,0 UV-I 591 W/m² -0,2 °C 12,7 °C 4,8 km/h (1 Bft)
02.04.2018 14:33 12,9 °C 43 % 1010,7 hPa 0,0 mm 4,2 km/h (1 Bft) O 83 ° 1 min 0,000 mm 4,2 UV-I 494 W/m² 0,6 °C 12,9 °C 6,4 km/h (2 Bft)
02.04.2018 14:34 13,0 °C 43 % 1010,7 hPa 0,0 mm 2,4 km/h (1 Bft) S-SO 150 ° 1 min 0,000 mm 4,5 UV-I 494 W/m² 0,7 °C 13,0 °C 4,8 km/h (1 Bft)
02.04.2018 14:35 13,1 °C 44 % 1010,7 hPa 0,0 mm 4,2 km/h (1 Bft) O-NO 64 ° 1 min 0,000 mm 4,9 UV-I 494 W/m² 1,1 °C 13,1 °C 9,7 km/h (2 Bft)
02.04.2018 14:36 13,1 °C 38 % 1010,7 hPa 0,0 mm 5,6 km/h (1 Bft) N-NO 28 ° 1 min 0,000 mm 4,8 UV-I 647 W/m² -0,9 °C 13,1 °C 8,0 km/h (2 Bft)
02.04.2018 14:37 13,2 °C 43 % 1010,7 hPa 0,0 mm 5,4 km/h (1 Bft) O 80 ° 1 min 0,000 mm 5,3 UV-I 647 W/m² 0,9 °C 13,2 °C 11,3 km/h (2 Bft)
02.04.2018 14:38 13,2 °C 39 % 1010,7 hPa 0,0 mm 8,2 km/h (2 Bft) NO 54 ° 1 min 0,000 mm 4,2 UV-I 647 W/m² -0,4 °C 13,2 °C 12,9 km/h (3 Bft)
02.04.2018 14:39 13,2 °C 38 % 1010,7 hPa 0,0 mm 3,1 km/h (1 Bft) O-NO 65 ° 1 min 0,000 mm 5,3 UV-I 940 W/m² -0,8 °C 13,2 °C 4,8 km/h (1 Bft)
02.04.2018 14:40 13,1 °C 37 % 1010,7 hPa 0,0 mm 2,3 km/h (1 Bft) O-NO 67 ° 1 min 0,000 mm 5,8 UV-I 940 W/m² -1,2 °C 13,1 °C 3,2 km/h (1 Bft)
02.04.2018 14:41 13,1 °C 41 % 1010,8 hPa 0,0 mm 1,8 km/h (1 Bft) O-NO 66 ° 1 min 0,000 mm 5,1 UV-I 940 W/m² 0,2 °C 13,1 °C 3,2 km/h (1 Bft)
02.04.2018 14:42 13,1 °C 40 % 1010,7 hPa 0,0 mm 0,9 km/h (0 Bft) O-NO 57 ° 1 min 0,000 mm 5,0 UV-I 940 W/m² -0,2 °C 13,1 °C 3,2 km/h (1 Bft)
02.04.2018 14:43 13,2 °C 40 % 1010,7 hPa 0,0 mm 3,2 km/h (1 Bft) NO 46 ° 1 min 0,000 mm 4,2 UV-I 940 W/m² -0,1 °C 13,2 °C 9,7 km/h (2 Bft)
02.04.2018 14:44 13,1 °C 37 % 1010,7 hPa 0,0 mm 3,8 km/h (1 Bft) N 9 ° 1 min 0,000 mm 3,9 UV-I 940 W/m² -1,2 °C 13,1 °C 6,4 km/h (2 Bft)
02.04.2018 14:45 13,1 °C 37 % 1010,7 hPa 0,0 mm 7,0 km/h (2 Bft) NO 41 ° 1 min 0,000 mm 4,4 UV-I 496 W/m² -1,2 °C 13,1 °C 11,3 km/h (2 Bft)
02.04.2018 14:46 13,1 °C 36 % 1010,8 hPa 0,0 mm 2,9 km/h (1 Bft) NO 41 ° 1 min 0,000 mm 4,2 UV-I 496 W/m² -1,6 °C 13,1 °C 4,8 km/h (1 Bft)
02.04.2018 14:47 13,1 °C 38 % 1010,8 hPa 0,0 mm 4,9 km/h (1 Bft) O-NO 70 ° 1 min 0,000 mm 4,0 UV-I 561 W/m² -0,9 °C 13,1 °C 8,0 km/h (2 Bft)
02.04.2018 14:48 13,1 °C 37 % 1010,8 hPa 0,0 mm 5,2 km/h (1 Bft) O-SO 105 ° 1 min 0,000 mm 5,6 UV-I 561 W/m² -1,2 °C 13,1 °C 6,4 km/h (2 Bft)
02.04.2018 14:49 12,9 °C 40 % 1010,7 hPa 0,0 mm 2,9 km/h (1 Bft) O-SO 105 ° 1 min 0,000 mm 4,2 UV-I 561 W/m² -0,4 °C 12,9 °C 4,8 km/h (1 Bft)
02.04.2018 14:50 12,8 °C 37 % 1010,7 hPa 0,0 mm 0,0 km/h (0 Bft) O-SO 105 ° 1 min 0,000 mm 4,6 UV-I 561 W/m² -1,5 °C 12,8 °C 0,0 km/h (0 Bft)
02.04.2018 14:51 13,1 °C 44 % 1010,7 hPa 0,0 mm 1,0 km/h (0 Bft) S-SW 205 ° 1 min 0,000 mm 5,3 UV-I 942 W/m² 1,1 °C 13,1 °C 3,2 km/h (1 Bft)
02.04.2018 14:52 13,2 °C 38 % 1010,7 hPa 0,0 mm 4,0 km/h (1 Bft) W-SW 250 ° 1 min 0,000 mm 4,5 UV-I 624 W/m² -0,8 °C 13,2 °C 4,8 km/h (1 Bft)
02.04.2018 14:53 13,2 °C 36 % 1010,6 hPa 0,0 mm 7,2 km/h (2 Bft) SW 235 ° 1 min 0,000 mm 3,6 UV-I 624 W/m² -1,5 °C 13,2 °C 9,7 km/h (2 Bft)
02.04.2018 14:54 13,1 °C 37 % 1010,6 hPa 0,0 mm 5,0 km/h (1 Bft) SW 221 ° 1 min 0,000 mm 4,9 UV-I 629 W/m² -1,2 °C 13,1 °C 6,4 km/h (2 Bft)
02.04.2018 14:55 13,1 °C 36 % 1010,6 hPa 0,0 mm 3,9 km/h (1 Bft) W-SW 244 ° 1 min 0,000 mm 5,2 UV-I 629 W/m² -1,6 °C 13,1 °C 6,4 km/h (2 Bft)
02.04.2018 14:56 13,0 °C 36 % 1010,6 hPa 0,0 mm 3,8 km/h (1 Bft) W-SW 255 ° 1 min 0,000 mm 3,9 UV-I 629 W/m² -1,7 °C 13,0 °C 6,4 km/h (2 Bft)
02.04.2018 14:57 12,9 °C 37 % 1010,5 hPa 0,0 mm 3,1 km/h (1 Bft) W 261 ° 1 min 0,000 mm 3,8 UV-I 793 W/m² -1,4 °C 12,9 °C 4,8 km/h (1 Bft)
02.04.2018 14:58 12,8 °C 36 % 1010,5 hPa 0,0 mm 3,3 km/h (1 Bft) W 262 ° 1 min 0,000 mm 3,9 UV-I 793 W/m² -1,9 °C 12,8 °C 4,8 km/h (1 Bft)
02.04.2018 14:59 12,9 °C 37 % 1010,5 hPa 0,0 mm 0,8 km/h (0 Bft) W 262 ° 1 min 0,000 mm 5,1 UV-I 793 W/m² -1,4 °C 12,9 °C 1,6 km/h (1 Bft)
02.04.2018 15:00 13,1 °C 39 % 1010,5 hPa 0,0 mm 2,8 km/h (1 Bft) W 261 ° 1 min 0,406 mm 4,0 UV-I 793 W/m² -0,5 °C 13,1 °C 4,8 km/h (1 Bft)
02.04.2018 15:01 13,1 °C 37 % 1010,5 hPa 0,0 mm 6,0 km/h (2 Bft) W 261 ° 1 min 0,000 mm 5,0 UV-I 793 W/m² -1,2 °C 13,1 °C 9,7 km/h (2 Bft)
02.04.2018 15:02 13,2 °C 39 % 1010,5 hPa 0,0 mm 4,9 km/h (1 Bft) W 268 ° 1 min 0,000 mm 5,1 UV-I 882 W/m² -0,4 °C 13,2 °C 6,4 km/h (2 Bft)
02.04.2018 15:03 13,3 °C 40 % 1010,4 hPa 0,0 mm 3,0 km/h (1 Bft) W 267 ° 1 min 0,000 mm 5,1 UV-I 872 W/m² -0,0 °C 13,3 °C 4,8 km/h (1 Bft)
02.04.2018 15:04 13,4 °C 38 % 1010,5 hPa 0,0 mm 2,6 km/h (1 Bft) W 267 ° 1 min 0,000 mm 4,9 UV-I 838 W/m² -0,6 °C 13,4 °C 4,8 km/h (1 Bft)
02.04.2018 15:05 13,5 °C 35 % 1010,5 hPa 0,0 mm 1,0 km/h (0 Bft) W 267 ° 1 min 0,000 mm 4,9 UV-I 840 W/m² -1,6 °C 13,5 °C 3,2 km/h (1 Bft)
02.04.2018 15:06 13,6 °C 35 % 1010,4 hPa 0,0 mm 1,7 km/h (1 Bft) W 265 ° 1 min 0,000 mm 4,8 UV-I 819 W/m² -1,6 °C 13,6 °C 3,2 km/h (1 Bft)
02.04.2018 15:07 13,6 °C 37 % 1010,4 hPa 0,0 mm 4,6 km/h (1 Bft) N-NO 27 ° 1 min 0,000 mm 4,7 UV-I 819 W/m² -0,8 °C 13,6 °C 8,0 km/h (2 Bft)
02.04.2018 15:08 13,7 °C 36 % 1010,4 hPa 0,0 mm 5,7 km/h (1 Bft) N 5 ° 1 min 0,000 mm 4,0 UV-I 728 W/m² -1,1 °C 13,7 °C 8,0 km/h (2 Bft)
02.04.2018 15:09 13,9 °C 36 % 1010,4 hPa 0,0 mm 5,8 km/h (2 Bft) N 355 ° 1 min 0,000 mm 3,8 UV-I 464 W/m² -0,9 °C 13,9 °C 8,0 km/h (2 Bft)
02.04.2018 15:10 13,9 °C 35 % 1010,3 hPa 0,0 mm 3,8 km/h (1 Bft) N 10 ° 1 min 0,000 mm 2,9 UV-I 369 W/m² -1,3 °C 13,9 °C 6,4 km/h (2 Bft)
02.04.2018 15:11 13,9 °C 36 % 1010,4 hPa 0,0 mm 3,7 km/h (1 Bft) O-NO 69 ° 1 min 0,000 mm 2,7 UV-I 330 W/m² -0,9 °C 13,9 °C 6,4 km/h (2 Bft)
02.04.2018 15:12 13,7 °C 34 % 1010,3 hPa 0,0 mm 2,1 km/h (1 Bft) O-NO 77 ° 1 min 0,000 mm 2,6 UV-I 297 W/m² -1,9 °C 13,7 °C 6,4 km/h (2 Bft)
02.04.2018 15:13 13,4 °C 34 % 1010,4 hPa 0,0 mm 0,1 km/h (0 Bft) O-NO 77 ° 0 min 0,000 mm 2,5 UV-I 285 W/m² -2,1 °C 13,4 °C 1,6 km/h (1 Bft)
02.04.2018 15:14 13,2 °C 35 % 1010,3 hPa 0,0 mm 0,0 km/h (0 Bft) O-NO 77 ° 1 min 0,000 mm 2,7 UV-I 346 W/m² -1,9 °C 13,2 °C 0,0 km/h (0 Bft)
02.04.2018 15:15 13,0 °C 36 % 1010,3 hPa 0,0 mm 0,8 km/h (0 Bft) O-NO 77 ° 1 min 0,000 mm 3,0 UV-I 385 W/m² -1,7 °C 13,0 °C 4,8 km/h (1 Bft)
02.04.2018 15:16 13,1 °C 39 % 1010,3 hPa 0,0 mm 4,3 km/h (1 Bft) N 5 ° 1 min 0,000 mm 3,2 UV-I 431 W/m² -0,5 °C 13,1 °C 8,0 km/h (2 Bft)
02.04.2018 15:17 13,2 °C 37 % 1010,3 hPa 0,0 mm 5,9 km/h (2 Bft) N-NO 17 ° 1 min 0,000 mm 3,3 UV-I 469 W/m² -1,2 °C 13,2 °C 8,0 km/h (2 Bft)
02.04.2018 15:18 13,3 °C 37 % 1010,3 hPa 0,0 mm 4,1 km/h (1 Bft) N-NO 17 ° 1 min 0,000 mm 3,3 UV-I 489 W/m² -1,1 °C 13,3 °C 6,4 km/h (2 Bft)
02.04.2018 15:19 13,4 °C 39 % 1010,2 hPa 0,0 mm 5,3 km/h (1 Bft) N-NO 13 ° 1 min 0,000 mm 3,4 UV-I 527 W/m² -0,3 °C 13,4 °C 11,3 km/h (2 Bft)
02.04.2018 15:20 13,6 °C 37 % 1010,2 hPa 0,0 mm 7,6 km/h (2 Bft) N-NO 18 ° 1 min 0,000 mm 3,0 UV-I 380 W/m² -0,8 °C 13,6 °C 9,7 km/h (2 Bft)
02.04.2018 15:21 13,6 °C 36 % 1010,2 hPa 0,0 mm 4,8 km/h (1 Bft) O-NO 67 ° 1 min 0,000 mm 3,2 UV-I 457 W/m² -1,2 °C 13,6 °C 6,4 km/h (2 Bft)
02.04.2018 15:22 13,6 °C 37 % 1010,2 hPa 0,0 mm 5,8 km/h (2 Bft) NO 46 ° 1 min 0,000 mm 3,3 UV-I 443 W/m² -0,8 °C 13,6 °C 8,0 km/h (2 Bft)
02.04.2018 15:23 13,6 °C 36 % 1010,2 hPa 0,0 mm 5,8 km/h (2 Bft) O-NO 76 ° 1 min 0,000 mm 3,6 UV-I 443 W/m² -1,2 °C 13,6 °C 11,3 km/h (2 Bft)
02.04.2018 15:24 13,6 °C 37 % 1010,1 hPa 0,0 mm 4,0 km/h (1 Bft) O-NO 66 ° 1 min 0,000 mm 3,5 UV-I 501 W/m² -0,8 °C 13,6 °C 6,4 km/h (2 Bft)
02.04.2018 15:25 13,5 °C 37 % 1010,2 hPa 0,0 mm 4,5 km/h (1 Bft) O-NO 74 ° 1 min 0,000 mm 3,8 UV-I 501 W/m² -0,9 °C 13,5 °C 8,0 km/h (2 Bft)
02.04.2018 15:26 13,5 °C 36 % 1010,2 hPa 0,0 mm 1,8 km/h (1 Bft) O-NO 74 ° 1 min 0,000 mm 4,5 UV-I 501 W/m² -1,3 °C 13,5 °C 4,8 km/h (1 Bft)
02.04.2018 15:27 13,6 °C 43 % 1010,1 hPa 0,0 mm 6,2 km/h (2 Bft) NO 42 ° 1 min 0,000 mm 3,5 UV-I 691 W/m² 1,3 °C 13,6 °C 8,0 km/h (2 Bft)
02.04.2018 15:28 13,7 °C 38 % 1010,1 hPa 0,0 mm 5,6 km/h (1 Bft) O-NO 57 ° 1 min 0,000 mm 3,1 UV-I 691 W/m² -0,4 °C 13,7 °C 8,0 km/h (2 Bft)
02.04.2018 15:29 13,7 °C 36 % 1010,1 hPa 0,0 mm 1,8 km/h (1 Bft) O-NO 57 ° 1 min 0,000 mm 3,3 UV-I 691 W/m² -1,1 °C 13,7 °C 3,2 km/h (1 Bft)
02.04.2018 15:30 13,7 °C 37 % 1010,0 hPa 0,0 mm 3,3 km/h (1 Bft) N-NW 339 ° 1 min 0,000 mm 2,8 UV-I 357 W/m² -0,7 °C 13,7 °C 4,8 km/h (1 Bft)
02.04.2018 15:31 13,8 °C 39 % 1010,0 hPa 0,0 mm 1,5 km/h (1 Bft) N-NW 339 ° 1 min 0,000 mm 2,6 UV-I 323 W/m² 0,1 °C 13,8 °C 3,2 km/h (1 Bft)
02.04.2018 15:32 13,8 °C 37 % 1010,1 hPa 0,0 mm 3,8 km/h (1 Bft) O-NO 73 ° 1 min 0,000 mm 3,0 UV-I 385 W/m² -0,6 °C 13,8 °C 8,0 km/h (2 Bft)
02.04.2018 15:33 13,8 °C 38 % 1010,0 hPa 0,0 mm 6,4 km/h (2 Bft) O-NO 67 ° 1 min 0,000 mm 3,3 UV-I 517 W/m² -0,3 °C 13,8 °C 11,3 km/h (2 Bft)
02.04.2018 15:34 13,7 °C 39 % 1010,0 hPa 0,0 mm 6,6 km/h (2 Bft) O-NO 71 ° 1 min 0,000 mm 3,7 UV-I 482 W/m² 0,0 °C 13,7 °C 11,3 km/h (2 Bft)
02.04.2018 15:35 13,6 °C 36 % 1010,0 hPa 0,0 mm 7,0 km/h (2 Bft) O 80 ° 1 min 0,000 mm 3,3 UV-I 538 W/m² -1,2 °C 13,6 °C 11,3 km/h (2 Bft)
02.04.2018 15:36 13,5 °C 35 % 1010,1 hPa 0,0 mm 9,2 km/h (2 Bft) O 86 ° 1 min 0,000 mm 3,7 UV-I 487 W/m² -1,6 °C 13,5 °C 14,5 km/h (3 Bft)
02.04.2018 15:37 13,3 °C 35 % 1010,1 hPa 0,0 mm 6,5 km/h (2 Bft) O-NO 71 ° 1 min 0,000 mm 3,1 UV-I 432 W/m² -1,8 °C 13,3 °C 11,3 km/h (2 Bft)
02.04.2018 15:38 13,3 °C 38 % 1010,1 hPa 0,0 mm 3,1 km/h (1 Bft) O 101 ° 1 min 0,000 mm 3,9 UV-I 737 W/m² -0,7 °C 13,3 °C 6,4 km/h (2 Bft)
02.04.2018 15:39 13,3 °C 36 % 1010,0 hPa 0,0 mm 0,4 km/h (0 Bft) O 101 ° 1 min 0,000 mm 4,1 UV-I 726 W/m² -1,4 °C 13,3 °C 1,6 km/h (1 Bft)
02.04.2018 15:40 13,5 °C 37 % 1010,0 hPa 0,0 mm 3,6 km/h (1 Bft) O-NO 74 ° 1 min 0,000 mm 4,0 UV-I 717 W/m² -0,9 °C 13,5 °C 8,0 km/h (2 Bft)
02.04.2018 15:41 13,7 °C 38 % 1010,0 hPa 0,0 mm 6,7 km/h (2 Bft) O-NO 67 ° 1 min 0,000 mm 4,0 UV-I 700 W/m² -0,4 °C 13,7 °C 8,0 km/h (2 Bft)
02.04.2018 15:42 13,7 °C 37 % 1010,0 hPa 0,0 mm 7,1 km/h (2 Bft) NO 54 ° 1 min 0,000 mm 3,9 UV-I 680 W/m² -0,7 °C 13,7 °C 9,7 km/h (2 Bft)
02.04.2018 15:43 13,6 °C 36 % 1009,9 hPa 0,0 mm 7,7 km/h (2 Bft) O 91 ° 1 min 0,000 mm 3,9 UV-I 684 W/m² -1,2 °C 13,6 °C 12,9 km/h (3 Bft)
02.04.2018 15:44 13,5 °C 37 % 1009,9 hPa 0,0 mm 4,4 km/h (1 Bft) O-NO 57 ° 1 min 0,000 mm 3,8 UV-I 657 W/m² -0,9 °C 13,5 °C 8,0 km/h (2 Bft)
02.04.2018 15:45 13,5 °C 37 % 1009,9 hPa 0,0 mm 9,3 km/h (2 Bft) O-NO 73 ° 1 min 0,000 mm 3,7 UV-I 654 W/m² -0,9 °C 13,5 °C 14,5 km/h (3 Bft)
02.04.2018 15:46 13,7 °C 39 % 1009,9 hPa 0,0 mm 8,4 km/h (2 Bft) O 92 ° 1 min 0,000 mm 3,7 UV-I 649 W/m² 0,0 °C 13,7 °C 12,9 km/h (3 Bft)
02.04.2018 15:47 13,7 °C 43 % 1009,9 hPa 0,0 mm 6,4 km/h (2 Bft) S 179 ° 1 min 0,000 mm 3,6 UV-I 640 W/m² 1,4 °C 13,7 °C 9,7 km/h (2 Bft)
02.04.2018 15:48 13,7 °C 38 % 1009,9 hPa 0,0 mm 4,4 km/h (1 Bft) O-NO 66 ° 1 min 0,000 mm 3,6 UV-I 640 W/m² -0,4 °C 13,7 °C 6,4 km/h (2 Bft)
02.04.2018 15:49 13,7 °C 39 % 1009,9 hPa 0,0 mm 7,8 km/h (2 Bft) O-NO 71 ° 1 min 0,000 mm 3,6 UV-I 629 W/m² 0,0 °C 13,7 °C 12,9 km/h (3 Bft)
02.04.2018 15:50 13,7 °C 37 % 1009,9 hPa 0,0 mm 11,8 km/h (2 Bft) O-NO 74 ° 1 min 0,000 mm 3,6 UV-I 626 W/m² -0,7 °C 13,7 °C 14,5 km/h (3 Bft)
02.04.2018 15:51 13,6 °C 37 % 1009,9 hPa 0,0 mm 8,3 km/h (2 Bft) O-NO 58 ° 1 min 0,000 mm 3,5 UV-I 622 W/m² -0,8 °C 13,6 °C 12,9 km/h (3 Bft)
02.04.2018 15:52 13,5 °C 37 % 1009,8 hPa 0,0 mm 12,1 km/h (2 Bft) O 90 ° 1 min 0,000 mm 3,4 UV-I 596 W/m² -0,9 °C 13,5 °C 16,1 km/h (3 Bft)
02.04.2018 15:53 13,5 °C 37 % 1009,8 hPa 0,0 mm 8,8 km/h (2 Bft) O-NO 69 ° 1 min 0,000 mm 3,3 UV-I 596 W/m² -0,9 °C 13,5 °C 14,5 km/h (3 Bft)
02.04.2018 15:54 13,7 °C 44 % 1009,8 hPa 0,0 mm 7,7 km/h (2 Bft) O-SO 102 ° 1 min 0,000 mm 3,3 UV-I 594 W/m² 1,7 °C 13,7 °C 11,3 km/h (2 Bft)
02.04.2018 15:55 13,8 °C 39 % 1009,8 hPa 0,0 mm 7,1 km/h (2 Bft) NO 55 ° 1 min 0,000 mm 3,3 UV-I 594 W/m² 0,1 °C 13,8 °C 8,0 km/h (2 Bft)
02.04.2018 15:56 13,8 °C 43 % 1009,8 hPa 0,0 mm 7,8 km/h (2 Bft) O 79 ° 1 min 0,000 mm 3,3 UV-I 603 W/m² 1,4 °C 13,8 °C 12,9 km/h (3 Bft)
02.04.2018 15:57 13,8 °C 43 % 1009,8 hPa 0,0 mm 6,0 km/h (2 Bft) O-NO 72 ° 1 min 0,000 mm 3,3 UV-I 612 W/m² 1,4 °C 13,8 °C 8,0 km/h (2 Bft)
02.04.2018 15:58 13,7 °C 37 % 1009,7 hPa 0,0 mm 6,2 km/h (2 Bft) O 90 ° 1 min 0,000 mm 3,3 UV-I 580 W/m² -0,7 °C 13,7 °C 9,7 km/h (2 Bft)
02.04.2018 15:59 13,7 °C 37 % 1009,8 hPa 0,0 mm 4,4 km/h (1 Bft) O-NO 71 ° 1 min 0,000 mm 3,2 UV-I 599 W/m² -0,7 °C 13,7 °C 8,0 km/h (2 Bft)
02.04.2018 16:00 13,6 °C 37 % 1009,8 hPa 0,0 mm 6,2 km/h (2 Bft) O-NO 74 ° 1 min 0,000 mm 3,1 UV-I 543 W/m² -0,8 °C 13,6 °C 8,0 km/h (2 Bft)
02.04.2018 16:01 13,6 °C 36 % 1009,8 hPa 0,0 mm 5,7 km/h (1 Bft) O-NO 78 ° 1 min 0,330 mm 3,2 UV-I 584 W/m² -1,2 °C 13,6 °C 6,4 km/h (2 Bft)
02.04.2018 16:02 13,4 °C 35 % 1009,8 hPa 0,0 mm 5,7 km/h (1 Bft) O 91 ° 1 min 0,000 mm 3,2 UV-I 570 W/m² -1,7 °C 13,4 °C 6,4 km/h (2 Bft)
02.04.2018 16:03 13,4 °C 35 % 1009,8 hPa 0,0 mm 4,1 km/h (1 Bft) O 91 ° 1 min 0,000 mm 3,1 UV-I 563 W/m² -1,7 °C 13,4 °C 6,4 km/h (2 Bft)
02.04.2018 16:04 13,4 °C 39 % 1009,8 hPa 0,0 mm 5,1 km/h (1 Bft) O 94 ° 1 min 0,000 mm 3,1 UV-I 563 W/m² -0,3 °C 13,4 °C 6,4 km/h (2 Bft)
02.04.2018 16:05 13,4 °C 38 % 1009,8 hPa 0,0 mm 6,4 km/h (2 Bft) O-NO 75 ° 1 min 0,000 mm 2,9 UV-I 520 W/m² -0,6 °C 13,4 °C 8,0 km/h (2 Bft)
02.04.2018 16:06 13,5 °C 37 % 1009,8 hPa 0,0 mm 5,4 km/h (1 Bft) O 90 ° 1 min 0,000 mm 2,8 UV-I 483 W/m² -0,9 °C 13,5 °C 6,4 km/h (2 Bft)
02.04.2018 16:07 13,5 °C 37 % 1009,7 hPa 0,0 mm 3,4 km/h (1 Bft) O 91 ° 1 min 0,000 mm 2,9 UV-I 497 W/m² -0,9 °C 13,5 °C 4,8 km/h (1 Bft)
02.04.2018 16:08 13,5 °C 38 % 1009,7 hPa 0,0 mm 4,9 km/h (1 Bft) O-NO 57 ° 1 min 0,000 mm 2,8 UV-I 485 W/m² -0,5 °C 13,5 °C 6,4 km/h (2 Bft)
02.04.2018 16:09 13,6 °C 37 % 1009,7 hPa 0,0 mm 3,7 km/h (1 Bft) O-NO 73 ° 1 min 0,000 mm 2,7 UV-I 462 W/m² -0,8 °C 13,6 °C 6,4 km/h (2 Bft)
02.04.2018 16:10 13,6 °C 36 % 1009,7 hPa 0,0 mm 0,5 km/h (0 Bft) O-NO 73 ° 1 min 0,000 mm 2,5 UV-I 410 W/m² -1,2 °C 13,6 °C 1,6 km/h (1 Bft)
02.04.2018 16:11 13,6 °C 36 % 1009,7 hPa 0,0 mm 1,8 km/h (1 Bft) O-NO 73 ° 1 min 0,000 mm 2,5 UV-I 383 W/m² -1,2 °C 13,6 °C 3,2 km/h (1 Bft)
02.04.2018 16:12 13,6 °C 36 % 1009,6 hPa 0,0 mm 3,4 km/h (1 Bft) O-NO 69 ° 1 min 0,000 mm 2,2 UV-I 348 W/m² -1,2 °C 13,6 °C 4,8 km/h (1 Bft)
02.04.2018 16:13 13,6 °C 36 % 1009,7 hPa 0,0 mm 2,2 km/h (1 Bft) O-NO 69 ° 0 min 0,000 mm 2,0 UV-I 285 W/m² -1,2 °C 13,6 °C 3,2 km/h (1 Bft)
02.04.2018 16:14 13,4 °C 38 % 1009,6 hPa 0,0 mm 0,6 km/h (0 Bft) O-NO 69 ° 0 min 0,000 mm 1,9 UV-I 241 W/m² -0,6 °C 13,4 °C 1,6 km/h (1 Bft)
02.04.2018 16:15 13,4 °C 38 % 1009,6 hPa 0,0 mm 1,1 km/h (1 Bft) O-NO 69 ° 0 min 0,000 mm 1,8 UV-I 197 W/m² -0,6 °C 13,4 °C 1,6 km/h (1 Bft)
02.04.2018 16:16 13,3 °C 39 % 1009,6 hPa 0,0 mm 0,5 km/h (0 Bft) O-NO 69 ° 0 min 0,000 mm 1,8 UV-I 193 W/m² -0,4 °C 13,3 °C 3,2 km/h (1 Bft)
02.04.2018 16:17 13,2 °C 37 % 1009,6 hPa 0,0 mm 1,4 km/h (1 Bft) O-NO 69 ° 0 min 0,000 mm 1,8 UV-I 181 W/m² -1,2 °C 13,2 °C 3,2 km/h (1 Bft)
02.04.2018 16:18 13,0 °C 40 % 1009,6 hPa 0,0 mm 0,7 km/h (0 Bft) O-NO 69 ° 0 min 0,000 mm 1,7 UV-I 188 W/m² -0,3 °C 13,0 °C 1,6 km/h (1 Bft)
02.04.2018 16:19 12,8 °C 41 % 1009,5 hPa 0,0 mm 1,0 km/h (0 Bft) O-NO 69 ° 0 min 0,000 mm 1,7 UV-I 239 W/m² -0,1 °C 12,8 °C 3,2 km/h (1 Bft)
02.04.2018 16:20 12,7 °C 40 % 1009,5 hPa 0,0 mm 1,5 km/h (1 Bft) O-NO 69 ° 0 min 0,000 mm 2,4 UV-I 239 W/m² -0,5 °C 12,7 °C 3,2 km/h (1 Bft)
02.04.2018 16:21 12,8 °C 41 % 1009,5 hPa 0,0 mm 0,1 km/h (0 Bft) O-NO 69 ° 1 min 0,000 mm 2,6 UV-I 466 W/m² -0,1 °C 12,8 °C 1,6 km/h (1 Bft)
02.04.2018 16:22 12,9 °C 43 % 1009,5 hPa 0,0 mm 2,5 km/h (1 Bft) O-NO 69 ° 1 min 0,000 mm 2,6 UV-I 476 W/m² 0,6 °C 12,9 °C 4,8 km/h (1 Bft)
02.04.2018 16:23 13,0 °C 42 % 1009,5 hPa 0,0 mm 2,4 km/h (1 Bft) O-NO 75 ° 1 min 0,000 mm 2,6 UV-I 489 W/m² 0,4 °C 13,0 °C 4,8 km/h (1 Bft)
02.04.2018 16:24 13,1 °C 38 % 1009,5 hPa 0,0 mm 2,6 km/h (1 Bft) O-NO 75 ° 1 min 0,000 mm 2,6 UV-I 475 W/m² -0,9 °C 13,1 °C 4,8 km/h (1 Bft)
02.04.2018 16:25 13,2 °C 41 % 1009,5 hPa 0,0 mm 3,0 km/h (1 Bft) O-NO 78 ° 1 min 0,000 mm 2,6 UV-I 473 W/m² 0,2 °C 13,2 °C 4,8 km/h (1 Bft)
02.04.2018 16:26 13,2 °C 36 % 1009,5 hPa 0,0 mm 1,3 km/h (1 Bft) O-NO 78 ° 1 min 0,000 mm 2,5 UV-I 464 W/m² -1,5 °C 13,2 °C 3,2 km/h (1 Bft)
02.04.2018 16:27 13,3 °C 35 % 1009,4 hPa 0,0 mm 2,3 km/h (1 Bft) O-NO 78 ° 1 min 0,000 mm 2,5 UV-I 457 W/m² -1,8 °C 13,3 °C 3,2 km/h (1 Bft)
02.04.2018 16:28 13,3 °C 35 % 1009,4 hPa 0,0 mm 0,6 km/h (0 Bft) O-NO 78 ° 1 min 0,000 mm 2,4 UV-I 443 W/m² -1,8 °C 13,3 °C 3,2 km/h (1 Bft)
02.04.2018 16:29 13,4 °C 35 % 1009,4 hPa 0,0 mm 0,9 km/h (0 Bft) O-NO 78 ° 1 min 0,000 mm 2,3 UV-I 418 W/m² -1,7 °C 13,4 °C 1,6 km/h (1 Bft)
02.04.2018 16:30 13,5 °C 36 % 1009,4 hPa 0,0 mm 4,0 km/h (1 Bft) N-NO 22 ° 1 min 0,000 mm 2,2 UV-I 299 W/m² -1,3 °C 13,5 °C 6,4 km/h (2 Bft)
02.04.2018 16:31 13,7 °C 38 % 1009,4 hPa 0,0 mm 4,6 km/h (1 Bft) N-NO 29 ° 0 min 0,000 mm 2,1 UV-I 251 W/m² -0,4 °C 13,7 °C 6,4 km/h (2 Bft)
02.04.2018 16:32 13,7 °C 39 % 1009,4 hPa 0,0 mm 2,2 km/h (1 Bft) N-NO 30 ° 0 min 0,000 mm 1,6 UV-I 181 W/m² 0,0 °C 13,7 °C 4,8 km/h (1 Bft)
02.04.2018 16:33 13,6 °C 38 % 1009,4 hPa 0,0 mm 1,7 km/h (1 Bft) NO 56 ° 0 min 0,000 mm 1,7 UV-I 185 W/m² -0,4 °C 13,6 °C 4,8 km/h (1 Bft)
02.04.2018 16:34 13,6 °C 39 % 1009,4 hPa 0,0 mm 1,0 km/h (0 Bft) NO 56 ° 0 min 0,000 mm 1,8 UV-I 237 W/m² -0,1 °C 13,6 °C 3,2 km/h (1 Bft)
02.04.2018 16:35 13,6 °C 37 % 1009,4 hPa 0,0 mm 6,2 km/h (2 Bft) O 89 ° 1 min 0,000 mm 2,0 UV-I 299 W/m² -0,8 °C 13,6 °C 8,0 km/h (2 Bft)
02.04.2018 16:36 13,6 °C 38 % 1009,4 hPa 0,0 mm 4,5 km/h (1 Bft) O-NO 75 ° 1 min 0,000 mm 1,9 UV-I 294 W/m² -0,4 °C 13,6 °C 6,4 km/h (2 Bft)
02.04.2018 16:37 13,6 °C 38 % 1009,3 hPa 0,0 mm 5,9 km/h (2 Bft) O-NO 62 ° 0 min 0,000 mm 1,8 UV-I 265 W/m² -0,4 °C 13,6 °C 8,0 km/h (2 Bft)
02.04.2018 16:38 13,6 °C 39 % 1009,3 hPa 0,0 mm 6,2 km/h (2 Bft) O-NO 65 ° 0 min 0,000 mm 1,7 UV-I 220 W/m² -0,1 °C 13,6 °C 9,7 km/h (2 Bft)
02.04.2018 16:39 13,6 °C 42 % 1009,3 hPa 0,0 mm 3,9 km/h (1 Bft) O-NO 65 ° 0 min 0,000 mm 1,7 UV-I 227 W/m² 0,9 °C 13,6 °C 6,4 km/h (2 Bft)
02.04.2018 16:40 13,4 °C 46 % 1009,3 hPa 0,0 mm 4,8 km/h (1 Bft) O-NO 67 ° 0 min 0,000 mm 1,6 UV-I 213 W/m² 2,0 °C 13,4 °C 6,4 km/h (2 Bft)
02.04.2018 16:41 13,3 °C 44 % 1009,4 hPa 0,0 mm 4,2 km/h (1 Bft) O-NO 76 ° 0 min 0,000 mm 1,6 UV-I 200 W/m² 1,3 °C 13,3 °C 4,8 km/h (1 Bft)
02.04.2018 16:42 13,3 °C 43 % 1009,3 hPa 0,0 mm 4,6 km/h (1 Bft) NO 56 ° 0 min 0,000 mm 1,6 UV-I 200 W/m² 1,0 °C 13,3 °C 6,4 km/h (2 Bft)
02.04.2018 16:43 13,2 °C 46 % 1009,3 hPa 0,0 mm 4,0 km/h (1 Bft) O-NO 67 ° 0 min 0,000 mm 1,6 UV-I 197 W/m² 1,8 °C 13,2 °C 6,4 km/h (2 Bft)
02.04.2018 16:44 13,1 °C 45 % 1009,3 hPa 0,0 mm 2,7 km/h (1 Bft) O-NO 67 ° 0 min 0,000 mm 1,6 UV-I 195 W/m² 1,4 °C 13,1 °C 4,8 km/h (1 Bft)
02.04.2018 16:45 13,1 °C 40 % 1009,2 hPa 0,0 mm 3,0 km/h (1 Bft) O-NO 67 ° 0 min 0,000 mm 1,5 UV-I 188 W/m² -0,2 °C 13,1 °C 4,8 km/h (1 Bft)
02.04.2018 16:46 13,1 °C 40 % 1009,2 hPa 0,0 mm 1,9 km/h (1 Bft) O-NO 67 ° 0 min 0,000 mm 1,5 UV-I 181 W/m² -0,2 °C 13,1 °C 3,2 km/h (1 Bft)
02.04.2018 16:47 13,1 °C 43 % 1009,2 hPa 0,0 mm 2,4 km/h (1 Bft) O-NO 67 ° 0 min 0,000 mm 1,4 UV-I 163 W/m² 0,8 °C 13,1 °C 3,2 km/h (1 Bft)
02.04.2018 16:48 13,1 °C 40 % 1009,2 hPa 0,0 mm 1,4 km/h (1 Bft) O-NO 67 ° 0 min 0,000 mm 1,4 UV-I 151 W/m² -0,2 °C 13,1 °C 3,2 km/h (1 Bft)
02.04.2018 16:49 13,1 °C 38 % 1009,2 hPa 0,0 mm 2,6 km/h (1 Bft) O-NO 67 ° 0 min 0,000 mm 1,4 UV-I 148 W/m² -0,9 °C 13,1 °C 3,2 km/h (1 Bft)
02.04.2018 16:50 13,1 °C 38 % 1009,1 hPa 0,0 mm 1,5 km/h (1 Bft) O-NO 67 ° 0 min 0,000 mm 1,4 UV-I 146 W/m² -0,9 °C 13,1 °C 3,2 km/h (1 Bft)
02.04.2018 16:51 13,1 °C 42 % 1009,1 hPa 0,0 mm 1,5 km/h (1 Bft) O-NO 67 ° 0 min 0,000 mm 1,3 UV-I 144 W/m² 0,5 °C 13,1 °C 3,2 km/h (1 Bft)
02.04.2018 16:52 13,0 °C 42 % 1009,1 hPa 0,0 mm 0,0 km/h (0 Bft) O-NO 67 ° 0 min 0,000 mm 1,4 UV-I 149 W/m² 0,4 °C 13,0 °C 0,0 km/h (0 Bft)
02.04.2018 16:53 12,9 °C 48 % 1009,1 hPa 0,0 mm 1,9 km/h (1 Bft) O-NO 67 ° 0 min 0,000 mm 1,4 UV-I 156 W/m² 2,2 °C 12,9 °C 3,2 km/h (1 Bft)
02.04.2018 16:54 12,9 °C 48 % 1009,2 hPa 0,0 mm 2,9 km/h (1 Bft) O-NO 67 ° 0 min 0,000 mm 1,4 UV-I 156 W/m² 2,2 °C 12,9 °C 4,8 km/h (1 Bft)
02.04.2018 16:55 12,9 °C 42 % 1009,1 hPa 0,0 mm 1,4 km/h (1 Bft) O-NO 67 ° 0 min 0,000 mm 1,3 UV-I 153 W/m² 0,3 °C 12,9 °C 3,2 km/h (1 Bft)
02.04.2018 16:56 12,8 °C 43 % 1009,1 hPa 0,0 mm 0,1 km/h (0 Bft) O-NO 67 ° 0 min 0,000 mm 1,3 UV-I 160 W/m² 0,5 °C 12,8 °C 1,6 km/h (1 Bft)
02.04.2018 16:57 12,8 °C 46 % 1009,1 hPa 0,0 mm 1,4 km/h (1 Bft) O-NO 67 ° 0 min 0,000 mm 1,3 UV-I 169 W/m² 1,5 °C 12,8 °C 3,2 km/h (1 Bft)
02.04.2018 16:58 12,8 °C 39 % 1009,1 hPa 0,0 mm 0,8 km/h (0 Bft) O-NO 67 ° 0 min 0,000 mm 1,3 UV-I 169 W/m² -0,8 °C 12,8 °C 1,6 km/h (1 Bft)
02.04.2018 16:59 12,8 °C 40 % 1009,1 hPa 0,0 mm 0,0 km/h (0 Bft) O-NO 67 ° 0 min 0,000 mm 1,3 UV-I 183 W/m² -0,5 °C 12,8 °C 0,0 km/h (0 Bft)
02.04.2018 17:00 12,9 °C 40 % 1009,1 hPa 0,0 mm 0,1 km/h (0 Bft) O-NO 67 ° 0 min 0,000 mm 1,3 UV-I 171 W/m² -0,4 °C 12,9 °C 1,6 km/h (1 Bft)
02.04.2018 17:01 13,0 °C 40 % 1009,1 hPa 0,0 mm 0,9 km/h (0 Bft) O-NO 67 ° 0 min 0,178 mm 1,3 UV-I 169 W/m² -0,3 °C 13,0 °C 1,6 km/h (1 Bft)
02.04.2018 17:02 13,0 °C 43 % 1009,1 hPa 0,0 mm 0,1 km/h (0 Bft) O-NO 67 ° 0 min 0,000 mm 1,3 UV-I 176 W/m² 0,7 °C 13,0 °C 1,6 km/h (1 Bft)
02.04.2018 17:03 13,0 °C 44 % 1009,2 hPa 0,0 mm 2,3 km/h (1 Bft) O-NO 67 ° 0 min 0,000 mm 1,3 UV-I 165 W/m² 1,0 °C 13,0 °C 4,8 km/h (1 Bft)
02.04.2018 17:04 12,9 °C 44 % 1009,1 hPa 0,0 mm 6,2 km/h (2 Bft) NO 45 ° 0 min 0,000 mm 1,3 UV-I 163 W/m² 1,0 °C 12,9 °C 8,0 km/h (2 Bft)
02.04.2018 17:05 13,1 °C 40 % 1009,1 hPa 0,0 mm 4,4 km/h (1 Bft) NO 45 ° 0 min 0,000 mm 1,3 UV-I 176 W/m² -0,2 °C 13,1 °C 6,4 km/h (2 Bft)
02.04.2018 17:06 13,2 °C 39 % 1009,1 hPa 0,0 mm 1,5 km/h (1 Bft) NO 45 ° 0 min 0,000 mm 1,3 UV-I 176 W/m² -0,4 °C 13,2 °C 3,2 km/h (1 Bft)
02.04.2018 17:07 13,2 °C 44 % 1009,1 hPa 0,0 mm 1,9 km/h (1 Bft) NO 45 ° 0 min 0,000 mm 1,3 UV-I 158 W/m² 1,2 °C 13,2 °C 3,2 km/h (1 Bft)
02.04.2018 17:08 13,2 °C 46 % 1009,0 hPa 0,0 mm 3,6 km/h (1 Bft) O 98 ° 0 min 0,000 mm 1,3 UV-I 156 W/m² 1,8 °C 13,2 °C 6,4 km/h (2 Bft)
02.04.2018 17:09 13,1 °C 43 % 1009,0 hPa 0,0 mm 5,5 km/h (1 Bft) O 91 ° 0 min 0,000 mm 1,2 UV-I 155 W/m² 0,8 °C 13,1 °C 6,4 km/h (2 Bft)
02.04.2018 17:10 13,1 °C 44 % 1009,0 hPa 0,0 mm 3,4 km/h (1 Bft) NO 48 ° 0 min 0,000 mm 1,3 UV-I 163 W/m² 1,1 °C 13,1 °C 4,8 km/h (1 Bft)
02.04.2018 17:11 13,1 °C 45 % 1008,9 hPa 0,0 mm 3,0 km/h (1 Bft) O-NO 59 ° 0 min 0,000 mm 1,3 UV-I 169 W/m² 1,4 °C 13,1 °C 6,4 km/h (2 Bft)
02.04.2018 17:12 12,9 °C 45 % 1009,0 hPa 0,0 mm 7,1 km/h (2 Bft) O-NO 71 ° 0 min 0,000 mm 1,3 UV-I 155 W/m² 1,3 °C 12,9 °C 11,3 km/h (2 Bft)
02.04.2018 17:13 13,0 °C 45 % 1009,0 hPa 0,0 mm 4,9 km/h (1 Bft) O-NO 59 ° 0 min 0,000 mm 1,2 UV-I 151 W/m² 1,4 °C 13,0 °C 8,0 km/h (2 Bft)
02.04.2018 17:14 13,0 °C 42 % 1009,0 hPa 0,0 mm 6,6 km/h (2 Bft) O-NO 78 ° 0 min 0,000 mm 1,1 UV-I 146 W/m² 0,4 °C 13,0 °C 8,0 km/h (2 Bft)
02.04.2018 17:15 12,9 °C 46 % 1009,0 hPa 0,0 mm 5,2 km/h (1 Bft) NO 53 ° 0 min 0,000 mm 1,1 UV-I 144 W/m² 1,6 °C 12,9 °C 6,4 km/h (2 Bft)
02.04.2018 17:16 12,9 °C 42 % 1009,0 hPa 0,0 mm 7,2 km/h (2 Bft) O-NO 68 ° 0 min 0,000 mm 1,1 UV-I 144 W/m² 0,3 °C 12,9 °C 11,3 km/h (2 Bft)
02.04.2018 17:17 12,9 °C 40 % 1009,0 hPa 0,0 mm 5,0 km/h (1 Bft) O-NO 76 ° 0 min 0,000 mm 1,1 UV-I 141 W/m² -0,4 °C 12,9 °C 8,0 km/h (2 Bft)
02.04.2018 17:18 12,9 °C 46 % 1009,0 hPa 0,0 mm 2,5 km/h (1 Bft) O-NO 78 ° 0 min 0,000 mm 1,1 UV-I 148 W/m² 1,6 °C 12,9 °C 4,8 km/h (1 Bft)
02.04.2018 17:19 12,8 °C 47 % 1009,0 hPa 0,0 mm 3,4 km/h (1 Bft) O-NO 78 ° 0 min 0,000 mm 1,1 UV-I 155 W/m² 1,8 °C 12,8 °C 4,8 km/h (1 Bft)
02.04.2018 17:20 12,8 °C 42 % 1008,9 hPa 0,0 mm 2,7 km/h (1 Bft) O-NO 76 ° 0 min 0,000 mm 1,1 UV-I 153 W/m² 0,2 °C 12,8 °C 3,2 km/h (1 Bft)
02.04.2018 17:21 12,7 °C 46 % 1008,9 hPa 0,0 mm 0,8 km/h (0 Bft) O-NO 76 ° 0 min 0,000 mm 1,1 UV-I 151 W/m² 1,4 °C 12,7 °C 3,2 km/h (1 Bft)
02.04.2018 17:22 12,6 °C 47 % 1008,8 hPa 0,0 mm 2,1 km/h (1 Bft) O-NO 76 ° 0 min 0,000 mm 1,1 UV-I 151 W/m² 1,6 °C 12,6 °C 3,2 km/h (1 Bft)
02.04.2018 17:23 12,6 °C 45 % 1008,8 hPa 0,0 mm 0,8 km/h (0 Bft) O-NO 76 ° 0 min 0,000 mm 1,1 UV-I 153 W/m² 1,0 °C 12,6 °C 1,6 km/h (1 Bft)
02.04.2018 17:24 12,6 °C 49 % 1008,8 hPa 0,0 mm 0,8 km/h (0 Bft) O-NO 76 ° 0 min 0,000 mm 1,1 UV-I 156 W/m² 2,2 °C 12,6 °C 1,6 km/h (1 Bft)
02.04.2018 17:25 12,5 °C 45 % 1008,8 hPa 0,0 mm 0,0 km/h (0 Bft) O-NO 76 ° 0 min 0,000 mm 1,1 UV-I 160 W/m² 0,9 °C 12,5 °C 0,0 km/h (0 Bft)
02.04.2018 17:26 12,4 °C 45 % 1008,8 hPa 0,0 mm 1,3 km/h (1 Bft) O-NO 76 ° 0 min 0,000 mm 1,1 UV-I 165 W/m² 0,8 °C 12,4 °C 3,2 km/h (1 Bft)
02.04.2018 17:27 12,4 °C 48 % 1008,8 hPa 0,0 mm 1,5 km/h (1 Bft) O-NO 76 ° 0 min 0,000 mm 1,1 UV-I 163 W/m² 1,7 °C 12,4 °C 3,2 km/h (1 Bft)
02.04.2018 17:28 12,4 °C 47 % 1008,8 hPa 0,0 mm 1,5 km/h (1 Bft) O-NO 76 ° 0 min 0,000 mm 1,1 UV-I 163 W/m² 1,4 °C 12,4 °C 3,2 km/h (1 Bft)
02.04.2018 17:29 12,4 °C 50 % 1008,8 hPa 0,0 mm 1,9 km/h (1 Bft) O 101 ° 0 min 0,000 mm 1,1 UV-I 163 W/m² 2,3 °C 12,4 °C 4,8 km/h (1 Bft)
02.04.2018 17:30 12,4 °C 48 % 1008,8 hPa 0,0 mm 0,0 km/h (0 Bft) O 101 ° 0 min 0,000 mm 1,1 UV-I 163 W/m² 1,7 °C 12,4 °C 0,0 km/h (0 Bft)
02.04.2018 17:31 12,4 °C 45 % 1008,8 hPa 0,0 mm 2,1 km/h (1 Bft) O 101 ° 0 min 0,000 mm 1,1 UV-I 165 W/m² 0,8 °C 12,4 °C 4,8 km/h (1 Bft)
02.04.2018 17:32 12,4 °C 44 % 1008,7 hPa 0,0 mm 2,5 km/h (1 Bft) O 101 ° 0 min 0,000 mm 1,1 UV-I 165 W/m² 0,5 °C 12,4 °C 4,8 km/h (1 Bft)
02.04.2018 17:33 12,6 °C 47 % 1008,7 hPa 0,0 mm 3,3 km/h (1 Bft) O 101 ° 0 min 0,000 mm 1,0 UV-I 167 W/m² 1,6 °C 12,6 °C 4,8 km/h (1 Bft)
02.04.2018 17:34 12,6 °C 48 % 1008,7 hPa 0,0 mm 3,2 km/h (1 Bft) NO 55 ° 0 min 0,000 mm 1,0 UV-I 167 W/m² 1,9 °C 12,6 °C 4,8 km/h (1 Bft)
02.04.2018 17:35 12,6 °C 45 % 1008,7 hPa 0,0 mm 5,0 km/h (1 Bft) O-NO 61 ° 0 min 0,000 mm 1,0 UV-I 163 W/m² 1,0 °C 12,6 °C 6,4 km/h (2 Bft)
02.04.2018 17:36 12,7 °C 50 % 1008,7 hPa 0,0 mm 1,0 km/h (0 Bft) O-NO 61 ° 0 min 0,000 mm 1,0 UV-I 162 W/m² 2,6 °C 12,7 °C 1,6 km/h (1 Bft)
02.04.2018 17:37 12,7 °C 45 % 1008,7 hPa 0,0 mm 0,5 km/h (0 Bft) O-NO 61 ° 0 min 0,000 mm 1,0 UV-I 160 W/m² 1,1 °C 12,7 °C 3,2 km/h (1 Bft)
02.04.2018 17:38 12,7 °C 49 % 1008,7 hPa 0,0 mm 0,0 km/h (0 Bft) O-NO 61 ° 0 min 0,000 mm 1,0 UV-I 160 W/m² 2,3 °C 12,7 °C 0,0 km/h (0 Bft)
02.04.2018 17:39 12,6 °C 46 % 1008,7 hPa 0,0 mm 3,0 km/h (1 Bft) O-NO 63 ° 0 min 0,000 mm 1,0 UV-I 158 W/m² 1,3 °C 12,6 °C 6,4 km/h (2 Bft)
02.04.2018 17:40 12,6 °C 49 % 1008,7 hPa 0,0 mm 4,2 km/h (1 Bft) NO 56 ° 0 min 0,000 mm 1,0 UV-I 155 W/m² 2,2 °C 12,6 °C 6,4 km/h (2 Bft)
02.04.2018 17:41 12,6 °C 47 % 1008,7 hPa 0,0 mm 0,6 km/h (0 Bft) NO 56 ° 0 min 0,000 mm 1,0 UV-I 153 W/m² 1,6 °C 12,6 °C 3,2 km/h (1 Bft)
02.04.2018 17:42 12,6 °C 49 % 1008,6 hPa 0,0 mm 5,3 km/h (1 Bft) O-NO 67 ° 0 min 0,000 mm 0,9 UV-I 151 W/m² 2,2 °C 12,6 °C 9,7 km/h (2 Bft)
02.04.2018 17:43 12,7 °C 47 % 1008,7 hPa 0,0 mm 5,0 km/h (1 Bft) O-NO 63 ° 0 min 0,000 mm 0,9 UV-I 149 W/m² 1,7 °C 12,7 °C 6,4 km/h (2 Bft)
02.04.2018 17:44 12,6 °C 49 % 1008,7 hPa 0,0 mm 5,0 km/h (1 Bft) O-SO 103 ° 0 min 0,000 mm 0,9 UV-I 148 W/m² 2,2 °C 12,6 °C 6,4 km/h (2 Bft)
02.04.2018 17:45 12,6 °C 49 % 1008,7 hPa 0,0 mm 2,5 km/h (1 Bft) O 81 ° 0 min 0,000 mm 0,9 UV-I 146 W/m² 2,2 °C 12,6 °C 4,8 km/h (1 Bft)
02.04.2018 17:46 12,6 °C 48 % 1008,7 hPa 0,0 mm 2,7 km/h (1 Bft) O-NO 72 ° 0 min 0,000 mm 0,9 UV-I 144 W/m² 1,9 °C 12,6 °C 4,8 km/h (1 Bft)
02.04.2018 17:47 12,5 °C 51 % 1008,7 hPa 0,0 mm 2,5 km/h (1 Bft) O-NO 71 ° 0 min 0,000 mm 0,9 UV-I 142 W/m² 2,6 °C 12,5 °C 4,8 km/h (1 Bft)
02.04.2018 17:48 12,4 °C 52 % 1008,7 hPa 0,0 mm 2,1 km/h (1 Bft) O-NO 71 ° 0 min 0,000 mm 0,9 UV-I 141 W/m² 2,8 °C 12,4 °C 3,2 km/h (1 Bft)
02.04.2018 17:49 12,3 °C 54 % 1008,7 hPa 0,0 mm 1,6 km/h (1 Bft) O-NO 71 ° 0 min 0,000 mm 0,9 UV-I 139 W/m² 3,3 °C 12,3 °C 3,2 km/h (1 Bft)
02.04.2018 17:50 12,3 °C 52 % 1008,6 hPa 0,0 mm 3,3 km/h (1 Bft) O-NO 74 ° 0 min 0,000 mm 0,9 UV-I 137 W/m² 2,7 °C 12,3 °C 4,8 km/h (1 Bft)
02.04.2018 17:51 12,3 °C 49 % 1008,6 hPa 0,0 mm 1,1 km/h (1 Bft) O-NO 74 ° 0 min 0,000 mm 0,8 UV-I 137 W/m² 1,9 °C 12,3 °C 3,2 km/h (1 Bft)
02.04.2018 17:52 12,3 °C 47 % 1008,6 hPa 0,0 mm 0,1 km/h (0 Bft) O-NO 74 ° 0 min 0,000 mm 0,8 UV-I 135 W/m² 1,3 °C 12,3 °C 1,6 km/h (1 Bft)
02.04.2018 17:53 12,2 °C 50 % 1008,6 hPa 0,0 mm 0,0 km/h (0 Bft) O-NO 74 ° 0 min 0,000 mm 0,8 UV-I 134 W/m² 2,1 °C 12,2 °C 0,0 km/h (0 Bft)
02.04.2018 17:54 12,2 °C 51 % 1008,6 hPa 0,0 mm 1,5 km/h (1 Bft) O-NO 74 ° 0 min 0,000 mm 0,8 UV-I 132 W/m² 2,4 °C 12,2 °C 4,8 km/h (1 Bft)
02.04.2018 17:55 12,1 °C 52 % 1008,6 hPa 0,0 mm 0,6 km/h (0 Bft) O-NO 74 ° 0 min 0,000 mm 0,8 UV-I 132 W/m² 2,5 °C 12,1 °C 1,6 km/h (1 Bft)
02.04.2018 17:56 12,1 °C 52 % 1008,5 hPa 0,0 mm 1,0 km/h (0 Bft) O-NO 74 ° 0 min 0,000 mm 0,8 UV-I 132 W/m² 2,5 °C 12,1 °C 3,2 km/h (1 Bft)
02.04.2018 17:57 12,1 °C 52 % 1008,5 hPa 0,0 mm 1,8 km/h (1 Bft) O-NO 74 ° 0 min 0,000 mm 0,8 UV-I 130 W/m² 2,5 °C 12,1 °C 3,2 km/h (1 Bft)
02.04.2018 17:58 12,1 °C 56 % 1008,5 hPa 0,0 mm 4,2 km/h (1 Bft) O-NO 74 ° 0 min 0,000 mm 0,8 UV-I 128 W/m² 3,6 °C 12,1 °C 6,4 km/h (2 Bft)
02.04.2018 17:59 12,1 °C 55 % 1008,5 hPa 0,0 mm 2,1 km/h (1 Bft) O-NO 74 ° 0 min 0,000 mm 0,8 UV-I 128 W/m² 3,3 °C 12,1 °C 3,2 km/h (1 Bft)
02.04.2018 18:00 12,1 °C 52 % 1008,5 hPa 0,0 mm 0,3 km/h (0 Bft) O-NO 74 ° 0 min 0,000 mm 0,8 UV-I 127 W/m² 2,5 °C 12,1 °C 1,6 km/h (1 Bft)
02.04.2018 18:01 12,0 °C 55 % 1008,6 hPa 0,0 mm 0,0 km/h (0 Bft) O-NO 74 ° 0 min 0,102 mm 0,8 UV-I 125 W/m² 3,2 °C 12,0 °C 0,0 km/h (0 Bft)
02.04.2018 18:02 11,9 °C 51 % 1008,6 hPa 0,0 mm 0,0 km/h (0 Bft) O-NO 74 ° 0 min 0,000 mm 0,7 UV-I 125 W/m² 2,1 °C 11,9 °C 0,0 km/h (0 Bft)
02.04.2018 18:03 12,0 °C 49 % 1008,5 hPa 0,0 mm 0,2 km/h (0 Bft) O-NO 74 ° 0 min 0,000 mm 0,7 UV-I 123 W/m² 1,6 °C 12,0 °C 1,6 km/h (1 Bft)
02.04.2018 18:04 11,9 °C 54 % 1008,4 hPa 0,0 mm 1,0 km/h (0 Bft) O-NO 74 ° 0 min 0,000 mm 0,7 UV-I 121 W/m² 2,9 °C 11,9 °C 3,2 km/h (1 Bft)
02.04.2018 18:05 11,9 °C 52 % 1008,5 hPa 0,0 mm 1,8 km/h (1 Bft) O-NO 74 ° 0 min 0,000 mm 0,7 UV-I 121 W/m² 2,4 °C 11,9 °C 3,2 km/h (1 Bft)
02.04.2018 18:06 11,9 °C 54 % 1008,5 hPa 0,0 mm 0,6 km/h (0 Bft) O-NO 74 ° 0 min 0,000 mm 0,7 UV-I 121 W/m² 2,9 °C 11,9 °C 1,6 km/h (1 Bft)
02.04.2018 18:07 11,8 °C 53 % 1008,5 hPa 0,0 mm 0,0 km/h (0 Bft) O-NO 74 ° 0 min 0,000 mm 0,7 UV-I 121 W/m² 2,5 °C 11,8 °C 0,0 km/h (0 Bft)
02.04.2018 18:08 11,8 °C 51 % 1008,5 hPa 0,0 mm 0,1 km/h (0 Bft) O-NO 74 ° 0 min 0,000 mm 0,7 UV-I 121 W/m² 2,0 °C 11,8 °C 1,6 km/h (1 Bft)
02.04.2018 18:09 11,9 °C 55 % 1008,5 hPa 0,0 mm 2,7 km/h (1 Bft) O-NO 74 ° 0 min 0,000 mm 0,7 UV-I 120 W/m² 3,2 °C 11,9 °C 4,8 km/h (1 Bft)
02.04.2018 18:10 11,9 °C 53 % 1008,5 hPa 0,0 mm 1,3 km/h (1 Bft) O-NO 74 ° 0 min 0,000 mm 0,7 UV-I 118 W/m² 2,6 °C 11,9 °C 3,2 km/h (1 Bft)
02.04.2018 18:11 11,9 °C 52 % 1008,4 hPa 0,0 mm 0,3 km/h (0 Bft) O-NO 74 ° 0 min 0,000 mm 0,7 UV-I 116 W/m² 2,4 °C 11,9 °C 3,2 km/h (1 Bft)
02.04.2018 18:12 11,9 °C 52 % 1008,5 hPa 0,0 mm 2,6 km/h (1 Bft) O-NO 74 ° 0 min 0,000 mm 0,7 UV-I 113 W/m² 2,4 °C 11,9 °C 4,8 km/h (1 Bft)
02.04.2018 18:13 11,8 °C 54 % 1008,4 hPa 0,0 mm 1,2 km/h (1 Bft) O-NO 74 ° 0 min 0,000 mm 0,7 UV-I 109 W/m² 2,8 °C 11,8 °C 1,6 km/h (1 Bft)
02.04.2018 18:14 11,8 °C 52 % 1008,4 hPa 0,0 mm 0,4 km/h (0 Bft) O-NO 74 ° 0 min 0,000 mm 0,6 UV-I 105 W/m² 2,3 °C 11,8 °C 1,6 km/h (1 Bft)
02.04.2018 18:15 11,8 °C 52 % 1008,4 hPa 0,0 mm 0,0 km/h (0 Bft) O-NO 74 ° 0 min 0,000 mm 0,6 UV-I 104 W/m² 2,3 °C 11,8 °C 0,0 km/h (0 Bft)
02.04.2018 18:16 11,8 °C 52 % 1008,4 hPa 0,0 mm 2,0 km/h (1 Bft) O-NO 74 ° 0 min 0,000 mm 0,6 UV-I 98 W/m² 2,3 °C 11,8 °C 3,2 km/h (1 Bft)
02.04.2018 18:17 11,8 °C 53 % 1008,4 hPa 0,0 mm 1,5 km/h (1 Bft) O-NO 74 ° 0 min 0,000 mm 0,6 UV-I 95 W/m² 2,5 °C 11,8 °C 3,2 km/h (1 Bft)
02.04.2018 18:18 11,8 °C 52 % 1008,3 hPa 0,0 mm 0,0 km/h (0 Bft) O-NO 74 ° 0 min 0,000 mm 0,6 UV-I 95 W/m² 2,3 °C 11,8 °C 0,0 km/h (0 Bft)
02.04.2018 18:19 11,7 °C 54 % 1008,3 hPa 0,0 mm 0,2 km/h (0 Bft) O-NO 74 ° 0 min 0,000 mm 0,6 UV-I 93 W/m² 2,7 °C 11,7 °C 1,6 km/h (1 Bft)
02.04.2018 18:20 11,7 °C 54 % 1008,4 hPa 0,0 mm 0,0 km/h (0 Bft) O-NO 74 ° 0 min 0,000 mm 0,6 UV-I 91 W/m² 2,7 °C 11,7 °C 0,0 km/h (0 Bft)
02.04.2018 18:21 11,6 °C 53 % 1008,3 hPa 0,0 mm 0,0 km/h (0 Bft) O-NO 74 ° 0 min 0,000 mm 0,5 UV-I 88 W/m² 2,4 °C 11,6 °C 0,0 km/h (0 Bft)
02.04.2018 18:22 11,6 °C 53 % 1008,3 hPa 0,0 mm 0,0 km/h (0 Bft) O-NO 74 ° 0 min 0,000 mm 0,5 UV-I 88 W/m² 2,4 °C 11,6 °C 0,0 km/h (0 Bft)
02.04.2018 18:23 11,6 °C 52 % 1008,3 hPa 0,0 mm 0,0 km/h (0 Bft) O-NO 74 ° 0 min 0,000 mm 0,5 UV-I 86 W/m² 2,1 °C 11,6 °C 0,0 km/h (0 Bft)
02.04.2018 18:24 11,6 °C 54 % 1008,3 hPa 0,0 mm 0,0 km/h (0 Bft) O-NO 74 ° 0 min 0,000 mm 0,5 UV-I 86 W/m² 2,6 °C 11,6 °C 0,0 km/h (0 Bft)
02.04.2018 18:25 11,6 °C 51 % 1008,3 hPa 0,0 mm 0,0 km/h (0 Bft) O-NO 74 ° 0 min 0,000 mm 0,5 UV-I 84 W/m² 1,8 °C 11,6 °C 0,0 km/h (0 Bft)
02.04.2018 18:26 11,6 °C 52 % 1008,3 hPa 0,0 mm 0,0 km/h (0 Bft) O-NO 74 ° 0 min 0,000 mm 0,5 UV-I 84 W/m² 2,1 °C 11,6 °C 0,0 km/h (0 Bft)
02.04.2018 18:27 11,6 °C 51 % 1008,4 hPa 0,0 mm 0,0 km/h (0 Bft) O-NO 74 ° 0 min 0,000 mm 0,5 UV-I 84 W/m² 1,8 °C 11,6 °C 0,0 km/h (0 Bft)
02.04.2018 18:28 11,6 °C 53 % 1008,3 hPa 0,0 mm 0,0 km/h (0 Bft) O-NO 74 ° 0 min 0,000 mm 0,5 UV-I 83 W/m² 2,4 °C 11,6 °C 0,0 km/h (0 Bft)
02.04.2018 18:29 11,6 °C 53 % 1008,3 hPa 0,0 mm 0,0 km/h (0 Bft) O-NO 74 ° 0 min 0,000 mm 0,5 UV-I 81 W/m² 2,4 °C 11,6 °C 0,0 km/h (0 Bft)
02.04.2018 18:30 11,5 °C 52 % 1008,3 hPa 0,0 mm 0,0 km/h (0 Bft) O-NO 74 ° 0 min 0,000 mm 0,5 UV-I 79 W/m² 2,0 °C 11,5 °C 0,0 km/h (0 Bft)
02.04.2018 18:31 11,5 °C 51 % 1008,3 hPa 0,0 mm 0,0 km/h (0 Bft) O-NO 74 ° 0 min 0,000 mm 0,5 UV-I 77 W/m² 1,7 °C 11,5 °C 0,0 km/h (0 Bft)
02.04.2018 18:32 11,5 °C 50 % 1008,3 hPa 0,0 mm 0,1 km/h (0 Bft) O-NO 74 ° 0 min 0,000 mm 0,5 UV-I 76 W/m² 1,4 °C 11,5 °C 1,6 km/h (1 Bft)
02.04.2018 18:33 11,5 °C 53 % 1008,3 hPa 0,0 mm 0,0 km/h (0 Bft) O-NO 74 ° 0 min 0,000 mm 0,0 UV-I 74 W/m² 2,3 °C 11,5 °C 0,0 km/h (0 Bft)
02.04.2018 18:34 11,5 °C 52 % 1008,3 hPa 0,0 mm 0,3 km/h (0 Bft) O-NO 74 ° 0 min 0,000 mm 0,0 UV-I 72 W/m² 2,0 °C 11,5 °C 1,6 km/h (1 Bft)
02.04.2018 18:35 11,5 °C 51 % 1008,3 hPa 0,0 mm 0,0 km/h (0 Bft) O-NO 74 ° 0 min 0,000 mm 0,0 UV-I 72 W/m² 1,7 °C 11,5 °C 0,0 km/h (0 Bft)
02.04.2018 18:36 11,6 °C 51 % 1008,3 hPa 0,0 mm 0,0 km/h (0 Bft) O-NO 74 ° 0 min 0,000 mm 0,0 UV-I 70 W/m² 1,8 °C 11,6 °C 0,0 km/h (0 Bft)
02.04.2018 18:37 11,5 °C 51 % 1008,3 hPa 0,0 mm 0,0 km/h (0 Bft) O-NO 74 ° 0 min 0,000 mm 0,0 UV-I 69 W/m² 1,7 °C 11,5 °C 0,0 km/h (0 Bft)
02.04.2018 18:38 11,5 °C 51 % 1008,3 hPa 0,0 mm 0,0 km/h (0 Bft) O-NO 74 ° 0 min 0,000 mm 0,0 UV-I 67 W/m² 1,7 °C 11,5 °C 0,0 km/h (0 Bft)
02.04.2018 18:39 11,5 °C 51 % 1008,3 hPa 0,0 mm 0,0 km/h (0 Bft) O-NO 74 ° 0 min 0,000 mm 0,0 UV-I 63 W/m² 1,7 °C 11,5 °C 0,0 km/h (0 Bft)
02.04.2018 18:40 11,5 °C 52 % 1008,3 hPa 0,0 mm 0,0 km/h (0 Bft) O-NO 74 ° 0 min 0,000 mm 0,0 UV-I 62 W/m² 2,0 °C 11,5 °C 0,0 km/h (0 Bft)
02.04.2018 18:41 11,5 °C 52 % 1008,3 hPa 0,0 mm 0,0 km/h (0 Bft) O-NO 74 ° 0 min 0,000 mm 0,0 UV-I 62 W/m² 2,0 °C 11,5 °C 0,0 km/h (0 Bft)
02.04.2018 18:42 11,4 °C 52 % 1008,4 hPa 0,0 mm 0,0 km/h (0 Bft) O-NO 74 ° 0 min 0,000 mm 0,0 UV-I 60 W/m² 1,9 °C 11,4 °C 0,0 km/h (0 Bft)
02.04.2018 18:43 11,4 °C 52 % 1008,3 hPa 0,0 mm 0,0 km/h (0 Bft) O-NO 74 ° 0 min 0,000 mm 0,0 UV-I 60 W/m² 1,9 °C 11,4 °C 0,0 km/h (0 Bft)
02.04.2018 18:44 11,4 °C 53 % 1008,3 hPa 0,0 mm 0,0 km/h (0 Bft) O-NO 74 ° 0 min 0,000 mm 0,0 UV-I 58 W/m² 2,2 °C 11,4 °C 0,0 km/h (0 Bft)
02.04.2018 18:45 11,3 °C 52 % 1008,3 hPa 0,0 mm 0,0 km/h (0 Bft) O-NO 74 ° 0 min 0,000 mm 0,0 UV-I 56 W/m² 1,8 °C 11,3 °C 0,0 km/h (0 Bft)
02.04.2018 18:46 11,3 °C 52 % 1008,3 hPa 0,0 mm 0,0 km/h (0 Bft) O-NO 74 ° 0 min 0,000 mm 0,0 UV-I 54 W/m² 1,8 °C 11,3 °C 0,0 km/h (0 Bft)
02.04.2018 18:47 11,3 °C 52 % 1008,3 hPa 0,0 mm 0,0 km/h (0 Bft) O-NO 74 ° 0 min 0,000 mm 0,0 UV-I 53 W/m² 1,8 °C 11,3 °C 0,0 km/h (0 Bft)
02.04.2018 18:48 11,3 °C 52 % 1008,3 hPa 0,0 mm 1,5 km/h (1 Bft) O-NO 74 ° 0 min 0,000 mm 0,0 UV-I 53 W/m² 1,8 °C 11,3 °C 3,2 km/h (1 Bft)
02.04.2018 18:49 11,3 °C 53 % 1008,3 hPa 0,0 mm 2,5 km/h (1 Bft) O-NO 74 ° 0 min 0,000 mm 0,0 UV-I 51 W/m² 2,1 °C 11,3 °C 3,2 km/h (1 Bft)
02.04.2018 18:50 11,3 °C 52 % 1008,3 hPa 0,0 mm 2,0 km/h (1 Bft) O-NO 74 ° 0 min 0,000 mm 0,0 UV-I 49 W/m² 1,8 °C 11,3 °C 3,2 km/h (1 Bft)
02.04.2018 18:51 11,2 °C 53 % 1008,3 hPa 0,0 mm 0,0 km/h (0 Bft) O-NO 74 ° 0 min 0,000 mm 0,0 UV-I 47 W/m² 2,0 °C 11,2 °C 0,0 km/h (0 Bft)
02.04.2018 18:52 11,2 °C 53 % 1008,3 hPa 0,0 mm 0,0 km/h (0 Bft) O-NO 74 ° 0 min 0,000 mm 0,0 UV-I 46 W/m² 2,0 °C 11,2 °C 0,0 km/h (0 Bft)
02.04.2018 18:53 11,2 °C 54 % 1008,2 hPa 0,0 mm 0,0 km/h (0 Bft) O-NO 74 ° 0 min 0,000 mm 0,0 UV-I 46 W/m² 2,2 °C 11,2 °C 0,0 km/h (0 Bft)
02.04.2018 18:54 11,1 °C 54 % 1008,2 hPa 0,0 mm 0,0 km/h (0 Bft) O-NO 74 ° 0 min 0,000 mm 0,0 UV-I 44 W/m² 2,2 °C 11,1 °C 0,0 km/h (0 Bft)
02.04.2018 18:55 11,1 °C 54 % 1008,2 hPa 0,0 mm 0,0 km/h (0 Bft) O-NO 74 ° 0 min 0,000 mm 0,0 UV-I 44 W/m² 2,2 °C 11,1 °C 0,0 km/h (0 Bft)
02.04.2018 18:56 11,0 °C 55 % 1008,2 hPa 0,0 mm 0,0 km/h (0 Bft) O-NO 74 ° 0 min 0,000 mm 0,0 UV-I 42 W/m² 2,3 °C 11,0 °C 0,0 km/h (0 Bft)
02.04.2018 18:57 10,9 °C 56 % 1008,2 hPa 0,0 mm 0,0 km/h (0 Bft) O-NO 74 ° 0 min 0,000 mm 0,0 UV-I 39 W/m² 2,5 °C 10,9 °C 0,0 km/h (0 Bft)
02.04.2018 18:58 10,8 °C 57 % 1008,2 hPa 0,0 mm 0,0 km/h (0 Bft) O-NO 74 ° 0 min 0,000 mm 0,0 UV-I 39 W/m² 2,6 °C 10,8 °C 0,0 km/h (0 Bft)
02.04.2018 18:59 10,8 °C 56 % 1008,2 hPa 0,0 mm 0,0 km/h (0 Bft) O-NO 74 ° 0 min 0,000 mm 0,0 UV-I 37 W/m² 2,4 °C 10,8 °C 0,0 km/h (0 Bft)
02.04.2018 19:00 10,8 °C 56 % 1008,2 hPa 0,0 mm 0,0 km/h (0 Bft) O-NO 74 ° 0 min 0,000 mm 0,0 UV-I 35 W/m² 2,4 °C 10,8 °C 0,0 km/h (0 Bft)
02.04.2018 19:01 10,8 °C 56 % 1008,1 hPa 0,0 mm 0,0 km/h (0 Bft) O-NO 74 ° 0 min 0,051 mm 0,0 UV-I 33 W/m² 2,4 °C 10,8 °C 0,0 km/h (0 Bft)
02.04.2018 19:02 10,7 °C 57 % 1008,1 hPa 0,0 mm 0,0 km/h (0 Bft) O-NO 74 ° 0 min 0,000 mm 0,0 UV-I 32 W/m² 2,5 °C 10,7 °C 0,0 km/h (0 Bft)
02.04.2018 19:03 10,7 °C 57 % 1008,1 hPa 0,0 mm 0,0 km/h (0 Bft) O-NO 74 ° 0 min 0,000 mm 0,0 UV-I 32 W/m² 2,5 °C 10,7 °C 0,0 km/h (0 Bft)
02.04.2018 19:04 10,7 °C 56 % 1008,1 hPa 0,0 mm 0,0 km/h (0 Bft) O-NO 74 ° 0 min 0,000 mm 0,0 UV-I 30 W/m² 2,3 °C 10,7 °C 0,0 km/h (0 Bft)
02.04.2018 19:05 10,7 °C 56 % 1008,0 hPa 0,0 mm 0,0 km/h (0 Bft) O-NO 74 ° 0 min 0,000 mm 0,0 UV-I 30 W/m² 2,3 °C 10,7 °C 0,0 km/h (0 Bft)
02.04.2018 19:06 10,7 °C 57 % 1008,1 hPa 0,0 mm 0,0 km/h (0 Bft) O-NO 74 ° 0 min 0,000 mm 0,0 UV-I 28 W/m² 2,5 °C 10,7 °C 0,0 km/h (0 Bft)
02.04.2018 19:07 10,6 °C 57 % 1008,1 hPa 0,0 mm 0,0 km/h (0 Bft) O-NO 74 ° 0 min 0,000 mm 0,0 UV-I 26 W/m² 2,4 °C 10,6 °C 0,0 km/h (0 Bft)
02.04.2018 19:08 10,6 °C 55 % 1008,1 hPa 0,0 mm 0,0 km/h (0 Bft) O-NO 74 ° 0 min 0,000 mm 0,0 UV-I 26 W/m² 1,9 °C 10,6 °C 0,0 km/h (0 Bft)
02.04.2018 19:09 10,7 °C 55 % 1008,1 hPa 0,0 mm 0,0 km/h (0 Bft) O-NO 74 ° 0 min 0,000 mm 0,0 UV-I 25 W/m² 2,0 °C 10,7 °C 0,0 km/h (0 Bft)
02.04.2018 19:10 10,6 °C 57 % 1008,1 hPa 0,0 mm 0,0 km/h (0 Bft) O-NO 74 ° 0 min 0,000 mm 0,0 UV-I 23 W/m² 2,4 °C 10,6 °C 0,0 km/h (0 Bft)
02.04.2018 19:11 10,6 °C 57 % 1008,1 hPa 0,0 mm 0,0 km/h (0 Bft) O-NO 74 ° 0 min 0,000 mm 0,0 UV-I 23 W/m² 2,4 °C 10,6 °C 0,0 km/h (0 Bft)
02.04.2018 19:12 10,5 °C 58 % 1008,0 hPa 0,0 mm 0,0 km/h (0 Bft) O-NO 74 ° 0 min 0,000 mm 0,0 UV-I 21 W/m² 2,6 °C 10,5 °C 0,0 km/h (0 Bft)
02.04.2018 19:13 10,4 °C 57 % 1008,0 hPa 0,0 mm 0,0 km/h (0 Bft) O-NO 74 ° 0 min 0,000 mm 0,0 UV-I 21 W/m² 2,3 °C 10,4 °C 0,0 km/h (0 Bft)
02.04.2018 19:14 10,4 °C 58 % 1008,0 hPa 0,0 mm 0,0 km/h (0 Bft) O-NO 74 ° 0 min 0,000 mm 0,0 UV-I 19 W/m² 2,5 °C 10,4 °C 0,0 km/h (0 Bft)
02.04.2018 19:15 10,4 °C 57 % 1008,0 hPa 0,0 mm 0,0 km/h (0 Bft) O-NO 74 ° 0 min 0,000 mm 0,0 UV-I 19 W/m² 2,3 °C 10,4 °C 0,0 km/h (0 Bft)
02.04.2018 19:16 10,4 °C 56 % 1008,0 hPa 0,0 mm 0,0 km/h (0 Bft) O-NO 74 ° 0 min 0,000 mm 0,0 UV-I 18 W/m² 2,0 °C 10,4 °C 0,0 km/h (0 Bft)
02.04.2018 19:17 10,4 °C 56 % 1008,0 hPa 0,0 mm 0,0 km/h (0 Bft) O-NO 74 ° 0 min 0,000 mm 0,0 UV-I 18 W/m² 2,0 °C 10,4 °C 0,0 km/h (0 Bft)
02.04.2018 19:18 10,4 °C 56 % 1008,1 hPa 0,0 mm 0,0 km/h (0 Bft) O-NO 74 ° 0 min 0,000 mm 0,0 UV-I 16 W/m² 2,0 °C 10,4 °C 0,0 km/h (0 Bft)
02.04.2018 19:19 10,4 °C 56 % 1008,0 hPa 0,0 mm 0,0 km/h (0 Bft) O-NO 74 ° 0 min 0,000 mm 0,0 UV-I 16 W/m² 2,0 °C 10,4 °C 0,0 km/h (0 Bft)
02.04.2018 19:20 10,4 °C 56 % 1008,1 hPa 0,0 mm 0,0 km/h (0 Bft) O-NO 74 ° 0 min 0,000 mm 0,0 UV-I 14 W/m² 2,0 °C 10,4 °C 0,0 km/h (0 Bft)
02.04.2018 19:21 10,4 °C 56 % 1008,0 hPa 0,0 mm 0,0 km/h (0 Bft) O-NO 74 ° 0 min 0,000 mm 0,0 UV-I 12 W/m² 2,0 °C 10,4 °C 0,0 km/h (0 Bft)
02.04.2018 19:22 10,3 °C 56 % 1008,1 hPa 0,0 mm 0,0 km/h (0 Bft) O-NO 74 ° 0 min 0,000 mm 0,0 UV-I 12 W/m² 1,9 °C 10,3 °C 0,0 km/h (0 Bft)
02.04.2018 19:23 10,3 °C 56 % 1008,1 hPa 0,0 mm 0,0 km/h (0 Bft) O-NO 74 ° 0 min 0,000 mm 0,0 UV-I 12 W/m² 1,9 °C 10,3 °C 0,0 km/h (0 Bft)
02.04.2018 19:24 10,3 °C 56 % 1008,1 hPa 0,0 mm 0,0 km/h (0 Bft) O-NO 74 ° 0 min 0,000 mm 0,0 UV-I 11 W/m² 1,9 °C 10,3 °C 0,0 km/h (0 Bft)
02.04.2018 19:25 10,3 °C 56 % 1008,1 hPa 0,0 mm 0,0 km/h (0 Bft) O-NO 74 ° 0 min 0,000 mm 0,0 UV-I 11 W/m² 1,9 °C 10,3 °C 0,0 km/h (0 Bft)
02.04.2018 19:26 10,3 °C 56 % 1008,1 hPa 0,0 mm 0,0 km/h (0 Bft) O-NO 74 ° 0 min 0,000 mm 0,0 UV-I 9 W/m² 1,9 °C 10,3 °C 0,0 km/h (0 Bft)
02.04.2018 19:27 10,3 °C 56 % 1008,1 hPa 0,0 mm 0,0 km/h (0 Bft) O-NO 74 ° 0 min 0,000 mm 0,0 UV-I 9 W/m² 1,9 °C 10,3 °C 0,0 km/h (0 Bft)
02.04.2018 19:28 10,3 °C 56 % 1008,1 hPa 0,0 mm 0,0 km/h (0 Bft) O-NO 74 ° 0 min 0,000 mm 0,0 UV-I 9 W/m² 1,9 °C 10,3 °C 0,0 km/h (0 Bft)
02.04.2018 19:29 10,3 °C 56 % 1008,1 hPa 0,0 mm 0,0 km/h (0 Bft) O-NO 74 ° 0 min 0,000 mm 0,0 UV-I 9 W/m² 1,9 °C 10,3 °C 0,0 km/h (0 Bft)
02.04.2018 19:30 10,2 °C 57 % 1008,1 hPa 0,0 mm 0,0 km/h (0 Bft) O-NO 74 ° 0 min 0,000 mm 0,0 UV-I 7 W/m² 2,1 °C 10,2 °C 0,0 km/h (0 Bft)
02.04.2018 19:31 10,2 °C 57 % 1008,0 hPa 0,0 mm 0,0 km/h (0 Bft) O-NO 74 ° 0 min 0,000 mm 0,0 UV-I 7 W/m² 2,1 °C 10,2 °C 0,0 km/h (0 Bft)
02.04.2018 19:32 10,1 °C 57 % 1008,0 hPa 0,0 mm 0,0 km/h (0 Bft) O-NO 74 ° 0 min 0,000 mm 0,0 UV-I 7 W/m² 2,0 °C 10,1 °C 0,0 km/h (0 Bft)
02.04.2018 19:33 10,1 °C 58 % 1008,1 hPa 0,0 mm 0,1 km/h (0 Bft) O-NO 74 ° 0 min 0,000 mm 0,0 UV-I 7 W/m² 2,2 °C 10,1 °C 1,6 km/h (1 Bft)
02.04.2018 19:34 10,1 °C 57 % 1008,0 hPa 0,0 mm 0,6 km/h (0 Bft) O-NO 74 ° 0 min 0,000 mm 0,0 UV-I 5 W/m² 2,0 °C 10,1 °C 1,6 km/h (1 Bft)
02.04.2018 19:35 10,0 °C 57 % 1008,1 hPa 0,0 mm 0,0 km/h (0 Bft) O-NO 74 ° 0 min 0,000 mm 0,0 UV-I 5 W/m² 1,9 °C 10,0 °C 0,0 km/h (0 Bft)
02.04.2018 19:36 9,9 °C 58 % 1008,1 hPa 0,0 mm 0,8 km/h (0 Bft) O-NO 74 ° 0 min 0,000 mm 0,0 UV-I 5 W/m² 2,0 °C 9,9 °C 3,2 km/h (1 Bft)
02.04.2018 19:37 9,9 °C 58 % 1008,1 hPa 0,0 mm 1,6 km/h (1 Bft) O-NO 74 ° 0 min 0,000 mm 0,0 UV-I 5 W/m² 2,0 °C 9,9 °C 3,2 km/h (1 Bft)
02.04.2018 19:38 9,9 °C 58 % 1008,1 hPa 0,0 mm 0,6 km/h (0 Bft) O-NO 74 ° 0 min 0,000 mm 0,0 UV-I 0 W/m² 2,0 °C 9,9 °C 1,6 km/h (1 Bft)
02.04.2018 19:39 9,8 °C 59 % 1008,1 hPa 0,0 mm 1,0 km/h (0 Bft) O-NO 74 ° 0 min 0,000 mm 0,0 UV-I 0 W/m² 2,2 °C 9,8 °C 1,6 km/h (1 Bft)
02.04.2018 19:40 9,8 °C 59 % 1008,1 hPa 0,0 mm 0,6 km/h (0 Bft) O-NO 74 ° 0 min 0,000 mm 0,0 UV-I 0 W/m² 2,2 °C 9,8 °C 1,6 km/h (1 Bft)
02.04.2018 19:41 9,7 °C 59 % 1008,1 hPa 0,0 mm 0,5 km/h (0 Bft) O-NO 74 ° 0 min 0,000 mm 0,0 UV-I 0 W/m² 2,1 °C 9,7 °C 1,6 km/h (1 Bft)
02.04.2018 19:42 9,7 °C 60 % 1008,1 hPa 0,0 mm 1,9 km/h (1 Bft) O-NO 74 ° 0 min 0,000 mm 0,0 UV-I 0 W/m² 2,3 °C 9,7 °C 3,2 km/h (1 Bft)
02.04.2018 19:43 9,7 °C 60 % 1008,1 hPa 0,0 mm 1,9 km/h (1 Bft) O-NO 74 ° 0 min 0,000 mm 0,0 UV-I 0 W/m² 2,3 °C 9,7 °C 3,2 km/h (1 Bft)
02.04.2018 19:44 9,6 °C 61 % 1008,2 hPa 0,0 mm 3,4 km/h (1 Bft) O-NO 74 ° 0 min 0,000 mm 0,0 UV-I 0 W/m² 2,5 °C 9,6 °C 4,8 km/h (1 Bft)
02.04.2018 19:45 9,6 °C 62 % 1008,1 hPa 0,0 mm 3,8 km/h (1 Bft) O-NO 74 ° 0 min 0,000 mm 0,0 UV-I 0 W/m² 2,7 °C 9,6 °C 4,8 km/h (1 Bft)
02.04.2018 19:46 9,4 °C 63 % 1008,2 hPa 0,0 mm 3,8 km/h (1 Bft) O-NO 77 ° 0 min 0,000 mm 0,0 UV-I 0 W/m² 2,7 °C 9,4 °C 4,8 km/h (1 Bft)
02.04.2018 19:47 9,4 °C 63 % 1008,2 hPa 0,0 mm 1,4 km/h (1 Bft) O-NO 77 ° 0 min 0,000 mm 0,0 UV-I 0 W/m² 2,7 °C 9,4 °C 3,2 km/h (1 Bft)
02.04.2018 19:48 9,3 °C 62 % 1008,1 hPa 0,0 mm 0,5 km/h (0 Bft) O-NO 77 ° 0 min 0,000 mm 0,0 UV-I 0 W/m² 2,4 °C 9,3 °C 1,6 km/h (1 Bft)
02.04.2018 19:49 9,3 °C 62 % 1008,2 hPa 0,0 mm 3,1 km/h (1 Bft) O-NO 77 ° 0 min 0,000 mm 0,0 UV-I 0 W/m² 2,4 °C 9,3 °C 3,2 km/h (1 Bft)
02.04.2018 19:50 9,3 °C 62 % 1008,2 hPa 0,0 mm 3,4 km/h (1 Bft) O-NO 77 ° 0 min 0,000 mm 0,0 UV-I 0 W/m² 2,4 °C 9,3 °C 4,8 km/h (1 Bft)
02.04.2018 19:51 9,2 °C 66 % 1008,3 hPa 0,0 mm 3,0 km/h (1 Bft) O-NO 77 ° 0 min 0,000 mm 0,0 UV-I 0 W/m² 3,2 °C 9,2 °C 3,2 km/h (1 Bft)
02.04.2018 19:52 9,1 °C 67 % 1008,2 hPa 0,0 mm 3,2 km/h (1 Bft) O-NO 77 ° 0 min 0,000 mm 0,0 UV-I 0 W/m² 3,3 °C 9,1 °C 3,2 km/h (1 Bft)
02.04.2018 19:53 9,0 °C 65 % 1008,2 hPa 0,0 mm 2,8 km/h (1 Bft) O-NO 77 ° 0 min 0,000 mm 0,0 UV-I 0 W/m² 2,8 °C 9,0 °C 4,8 km/h (1 Bft)
02.04.2018 19:54 8,9 °C 66 % 1008,3 hPa 0,0 mm 1,8 km/h (1 Bft) O-NO 77 ° 0 min 0,000 mm 0,0 UV-I 0 W/m² 2,9 °C 8,9 °C 3,2 km/h (1 Bft)
02.04.2018 19:55 8,9 °C 66 % 1008,2 hPa 0,0 mm 2,0 km/h (1 Bft) O-NO 77 ° 0 min 0,000 mm 0,0 UV-I 0 W/m² 2,9 °C 8,9 °C 3,2 km/h (1 Bft)
02.04.2018 19:56 8,9 °C 65 % 1008,2 hPa 0,0 mm 1,7 km/h (1 Bft) O-NO 77 ° 0 min 0,000 mm 0,0 UV-I 0 W/m² 2,7 °C 8,9 °C 3,2 km/h (1 Bft)
02.04.2018 19:57 8,9 °C 65 % 1008,3 hPa 0,0 mm 0,0 km/h (0 Bft) O-NO 77 ° 0 min 0,000 mm 0,0 UV-I 0 W/m² 2,7 °C 8,9 °C 0,0 km/h (0 Bft)
02.04.2018 19:58 8,9 °C 66 % 1008,3 hPa 0,0 mm 0,0 km/h (0 Bft) O-NO 77 ° 0 min 0,000 mm 0,0 UV-I 0 W/m² 2,9 °C 8,9 °C 0,0 km/h (0 Bft)
02.04.2018 19:59 8,9 °C 68 % 1008,3 hPa 0,0 mm 0,0 km/h (0 Bft) O-NO 77 ° 0 min 0,000 mm 0,0 UV-I 0 W/m² 3,3 °C 8,9 °C 0,0 km/h (0 Bft)
02.04.2018 20:00 8,8 °C 69 % 1008,3 hPa 0,0 mm 0,0 km/h (0 Bft) O-NO 77 ° 0 min 0,000 mm 0,0 UV-I 0 W/m² 3,4 °C 8,8 °C 0,0 km/h (0 Bft)
02.04.2018 20:01 8,7 °C 69 % 1008,3 hPa 0,0 mm 0,0 km/h (0 Bft) O-NO 77 ° 0 min 0,025 mm 0,0 UV-I 0 W/m² 3,3 °C 8,7 °C 0,0 km/h (0 Bft)
02.04.2018 20:02 8,7 °C 69 % 1008,3 hPa 0,0 mm 0,0 km/h (0 Bft) O-NO 77 ° 0 min 0,000 mm 0,0 UV-I 0 W/m² 3,3 °C 8,7 °C 0,0 km/h (0 Bft)
02.04.2018 20:03 8,8 °C 69 % 1008,2 hPa 0,0 mm 0,0 km/h (0 Bft) O-NO 77 ° 0 min 0,000 mm 0,0 UV-I 0 W/m² 3,4 °C 8,8 °C 0,0 km/h (0 Bft)
02.04.2018 20:04 8,8 °C 68 % 1008,3 hPa 0,0 mm 0,0 km/h (0 Bft) O-NO 77 ° 0 min 0,000 mm 0,0 UV-I 0 W/m² 3,2 °C 8,8 °C 0,0 km/h (0 Bft)
02.04.2018 20:05 8,8 °C 69 % 1008,3 hPa 0,0 mm 1,1 km/h (1 Bft) O-NO 77 ° 0 min 0,000 mm 0,0 UV-I 0 W/m² 3,4 °C 8,8 °C 3,2 km/h (1 Bft)
02.04.2018 20:06 8,8 °C 69 % 1008,2 hPa 0,0 mm 0,0 km/h (0 Bft) O-NO 77 ° 0 min 0,000 mm 0,0 UV-I 0 W/m² 3,4 °C 8,8 °C 0,0 km/h (0 Bft)
02.04.2018 20:07 8,7 °C 70 % 1008,2 hPa 0,0 mm 0,1 km/h (0 Bft) O-NO 77 ° 0 min 0,000 mm 0,0 UV-I 0 W/m² 3,5 °C 8,7 °C 1,6 km/h (1 Bft)
02.04.2018 20:08 8,6 °C 70 % 1008,2 hPa 0,0 mm 0,3 km/h (0 Bft) O-NO 77 ° 0 min 0,000 mm 0,0 UV-I 0 W/m² 3,4 °C 8,6 °C 1,6 km/h (1 Bft)
02.04.2018 20:09 8,5 °C 70 % 1008,2 hPa 0,0 mm 0,0 km/h (0 Bft) O-NO 77 ° 0 min 0,000 mm 0,0 UV-I 0 W/m² 3,3 °C 8,5 °C 0,0 km/h (0 Bft)
02.04.2018 20:10 8,5 °C 71 % 1008,3 hPa 0,0 mm 0,1 km/h (0 Bft) O-NO 77 ° 0 min 0,000 mm 0,0 UV-I 0 W/m² 3,5 °C 8,5 °C 1,6 km/h (1 Bft)
02.04.2018 20:11 8,4 °C 70 % 1008,2 hPa 0,0 mm 0,7 km/h (0 Bft) O-NO 77 ° 0 min 0,000 mm 0,0 UV-I 0 W/m² 3,3 °C 8,4 °C 1,6 km/h (1 Bft)
02.04.2018 20:12 8,4 °C 71 % 1008,2 hPa 0,0 mm 0,1 km/h (0 Bft) O-NO 77 ° 0 min 0,000 mm 0,0 UV-I 0 W/m² 3,5 °C 8,4 °C 1,6 km/h (1 Bft)
02.04.2018 20:13 8,4 °C 71 % 1008,2 hPa 0,0 mm 0,1 km/h (0 Bft) O-NO 77 ° 0 min 0,000 mm 0,0 UV-I 0 W/m² 3,5 °C 8,4 °C 1,6 km/h (1 Bft)
02.04.2018 20:14 8,4 °C 71 % 1008,2 hPa 0,0 mm 0,0 km/h (0 Bft) O-NO 77 ° 0 min 0,000 mm 0,0 UV-I 0 W/m² 3,5 °C 8,4 °C 0,0 km/h (0 Bft)
02.04.2018 20:15 8,4 °C 71 % 1008,1 hPa 0,0 mm 0,0 km/h (0 Bft) O-NO 77 ° 0 min 0,000 mm 0,0 UV-I 0 W/m² 3,5 °C 8,4 °C 0,0 km/h (0 Bft)
02.04.2018 20:16 8,3 °C 74 % 1008,1 hPa 0,0 mm 0,0 km/h (0 Bft) O-NO 77 ° 0 min 0,000 mm 0,0 UV-I 0 W/m² 3,9 °C 8,3 °C 0,0 km/h (0 Bft)
02.04.2018 20:17 8,1 °C 74 % 1008,1 hPa 0,0 mm 0,0 km/h (0 Bft) O-NO 77 ° 0 min 0,000 mm 0,0 UV-I 0 W/m² 3,8 °C 8,1 °C 0,0 km/h (0 Bft)
02.04.2018 20:18 8,1 °C 73 % 1008,0 hPa 0,0 mm 0,0 km/h (0 Bft) O-NO 77 ° 0 min 0,000 mm 0,0 UV-I 0 W/m² 3,6 °C 8,1 °C 0,0 km/h (0 Bft)
02.04.2018 20:19 8,0 °C 73 % 1008,0 hPa 0,0 mm 0,0 km/h (0 Bft) O-NO 77 ° 0 min 0,000 mm 0,0 UV-I 0 W/m² 3,5 °C 8,0 °C 0,0 km/h (0 Bft)
02.04.2018 20:20 8,1 °C 73 % 1008,0 hPa 0,0 mm 0,0 km/h (0 Bft) O-NO 77 ° 0 min 0,000 mm 0,0 UV-I 0 W/m² 3,6 °C 8,1 °C 0,0 km/h (0 Bft)
02.04.2018 20:21 8,1 °C 72 % 1008,1 hPa 0,0 mm 0,0 km/h (0 Bft) O-NO 77 ° 0 min 0,000 mm 0,0 UV-I 0 W/m² 3,4 °C 8,1 °C 0,0 km/h (0 Bft)
02.04.2018 20:22 8,2 °C 72 % 1008,1 hPa 0,0 mm 0,8 km/h (0 Bft) O-NO 77 ° 0 min 0,000 mm 0,0 UV-I 0 W/m² 3,5 °C 8,2 °C 1,6 km/h (1 Bft)
02.04.2018 20:23 8,2 °C 72 % 1008,1 hPa 0,0 mm 2,9 km/h (1 Bft) O 81 ° 0 min 0,000 mm 0,0 UV-I 0 W/m² 3,5 °C 8,2 °C 4,8 km/h (1 Bft)
02.04.2018 20:24 8,3 °C 72 % 1008,1 hPa 0,0 mm 3,1 km/h (1 Bft) O 86 ° 0 min 0,000 mm 0,0 UV-I 0 W/m² 3,6 °C 8,3 °C 3,2 km/h (1 Bft)
02.04.2018 20:25 8,3 °C 73 % 1008,1 hPa 0,0 mm 1,7 km/h (1 Bft) O 86 ° 0 min 0,000 mm 0,0 UV-I 0 W/m² 3,8 °C 8,3 °C 3,2 km/h (1 Bft)
02.04.2018 20:26 8,3 °C 73 % 1008,1 hPa 0,0 mm 1,5 km/h (1 Bft) O 86 ° 0 min 0,000 mm 0,0 UV-I 0 W/m² 3,8 °C 8,3 °C 3,2 km/h (1 Bft)
02.04.2018 20:27 8,3 °C 73 % 1008,0 hPa 0,0 mm 2,5 km/h (1 Bft) O 86 ° 0 min 0,000 mm 0,0 UV-I 0 W/m² 3,8 °C 8,3 °C 3,2 km/h (1 Bft)
02.04.2018 20:28 8,3 °C 73 % 1008,0 hPa 0,0 mm 1,1 km/h (1 Bft) O 86 ° 0 min 0,000 mm 0,0 UV-I 0 W/m² 3,8 °C 8,3 °C 3,2 km/h (1 Bft)
02.04.2018 20:29 8,3 °C 72 % 1008,0 hPa 0,0 mm 0,0 km/h (0 Bft) O 86 ° 0 min 0,000 mm 0,0 UV-I 0 W/m² 3,6 °C 8,3 °C 0,0 km/h (0 Bft)
02.04.2018 20:30 8,3 °C 72 % 1008,0 hPa 0,0 mm 0,0 km/h (0 Bft) O 86 ° 0 min 0,000 mm 0,0 UV-I 0 W/m² 3,6 °C 8,3 °C 0,0 km/h (0 Bft)
02.04.2018 20:31 8,3 °C 72 % 1008,0 hPa 0,0 mm 0,2 km/h (0 Bft) O 86 ° 0 min 0,000 mm 0,0 UV-I 0 W/m² 3,6 °C 8,3 °C 1,6 km/h (1 Bft)
02.04.2018 20:32 8,3 °C 72 % 1008,0 hPa 0,0 mm 0,0 km/h (0 Bft) O 86 ° 0 min 0,000 mm 0,0 UV-I 0 W/m² 3,6 °C 8,3 °C 0,0 km/h (0 Bft)
02.04.2018 20:33 8,3 °C 72 % 1008,0 hPa 0,0 mm 0,0 km/h (0 Bft) O 86 ° 0 min 0,000 mm 0,0 UV-I 0 W/m² 3,6 °C 8,3 °C 0,0 km/h (0 Bft)
02.04.2018 20:34 8,4 °C 71 % 1008,0 hPa 0,0 mm 0,1 km/h (0 Bft) O 86 ° 0 min 0,000 mm 0,0 UV-I 0 W/m² 3,5 °C 8,4 °C 1,6 km/h (1 Bft)
02.04.2018 20:35 8,4 °C 71 % 1008,0 hPa 0,0 mm 0,0 km/h (0 Bft) O 86 ° 0 min 0,000 mm 0,0 UV-I 0 W/m² 3,5 °C 8,4 °C 0,0 km/h (0 Bft)
02.04.2018 20:36 8,3 °C 71 % 1008,0 hPa 0,0 mm 0,0 km/h (0 Bft) O 86 ° 0 min 0,000 mm 0,0 UV-I 0 W/m² 3,4 °C 8,3 °C 0,0 km/h (0 Bft)
02.04.2018 20:37 8,3 °C 71 % 1008,1 hPa 0,0 mm 0,0 km/h (0 Bft) O 86 ° 0 min 0,000 mm 0,0 UV-I 0 W/m² 3,4 °C 8,3 °C 0,0 km/h (0 Bft)
02.04.2018 20:38 8,4 °C 71 % 1008,0 hPa 0,0 mm 0,0 km/h (0 Bft) O 86 ° 0 min 0,000 mm 0,0 UV-I 0 W/m² 3,5 °C 8,4 °C 0,0 km/h (0 Bft)
02.04.2018 20:39 8,4 °C 70 % 1008,1 hPa 0,0 mm 0,0 km/h (0 Bft) O 86 ° 0 min 0,000 mm 0,0 UV-I 0 W/m² 3,3 °C 8,4 °C 0,0 km/h (0 Bft)
02.04.2018 20:40 8,4 °C 71 % 1008,1 hPa 0,0 mm 0,0 km/h (0 Bft) O 86 ° 0 min 0,000 mm 0,0 UV-I 0 W/m² 3,5 °C 8,4 °C 0,0 km/h (0 Bft)
02.04.2018 20:41 8,3 °C 71 % 1008,2 hPa 0,0 mm 0,0 km/h (0 Bft) O 86 ° 0 min 0,000 mm 0,0 UV-I 0 W/m² 3,4 °C 8,3 °C 0,0 km/h (0 Bft)
02.04.2018 20:42 8,3 °C 71 % 1008,2 hPa 0,0 mm 0,0 km/h (0 Bft) O 86 ° 0 min 0,000 mm 0,0 UV-I 0 W/m² 3,4 °C 8,3 °C 0,0 km/h (0 Bft)
02.04.2018 20:43 8,2 °C 70 % 1008,2 hPa 0,0 mm 0,0 km/h (0 Bft) O 86 ° 0 min 0,000 mm 0,0 UV-I 0 W/m² 3,1 °C 8,2 °C 0,0 km/h (0 Bft)
02.04.2018 20:44 8,3 °C 70 % 1008,2 hPa 0,0 mm 0,0 km/h (0 Bft) O 86 ° 0 min 0,000 mm 0,0 UV-I 0 W/m² 3,2 °C 8,3 °C 0,0 km/h (0 Bft)
02.04.2018 20:45 8,3 °C 70 % 1008,2 hPa 0,0 mm 0,0 km/h (0 Bft) O 86 ° 0 min 0,000 mm 0,0 UV-I 0 W/m² 3,2 °C 8,3 °C 0,0 km/h (0 Bft)
02.04.2018 20:46 8,2 °C 70 % 1008,2 hPa 0,0 mm 0,0 km/h (0 Bft) O 86 ° 0 min 0,000 mm 0,0 UV-I 0 W/m² 3,1 °C 8,2 °C 0,0 km/h (0 Bft)
02.04.2018 20:47 8,3 °C 70 % 1008,2 hPa 0,0 mm 0,0 km/h (0 Bft) O 86 ° 0 min 0,000 mm 0,0 UV-I 0 W/m² 3,2 °C 8,3 °C 0,0 km/h (0 Bft)
02.04.2018 20:48 8,3 °C 70 % 1008,2 hPa 0,0 mm 0,0 km/h (0 Bft) O 86 ° 0 min 0,000 mm 0,0 UV-I 0 W/m² 3,2 °C 8,3 °C 0,0 km/h (0 Bft)
02.04.2018 20:49 8,2 °C 70 % 1008,2 hPa 0,0 mm 0,0 km/h (0 Bft) O 86 ° 0 min 0,000 mm 0,0 UV-I 0 W/m² 3,1 °C 8,2 °C 0,0 km/h (0 Bft)
02.04.2018 20:50 8,3 °C 70 % 1008,2 hPa 0,0 mm 0,0 km/h (0 Bft) O 86 ° 0 min 0,000 mm 0,0 UV-I 0 W/m² 3,2 °C 8,3 °C 0,0 km/h (0 Bft)
02.04.2018 20:51 8,3 °C 70 % 1008,1 hPa 0,0 mm 0,0 km/h (0 Bft) O 86 ° 0 min 0,000 mm 0,0 UV-I 0 W/m² 3,2 °C 8,3 °C 0,0 km/h (0 Bft)
02.04.2018 20:52 8,3 °C 69 % 1008,1 hPa 0,0 mm 0,0 km/h (0 Bft) O 86 ° 0 min 0,000 mm 0,0 UV-I 0 W/m² 3,0 °C 8,3 °C 0,0 km/h (0 Bft)
02.04.2018 20:53 8,3 °C 69 % 1008,1 hPa 0,0 mm 0,0 km/h (0 Bft) O 86 ° 0 min 0,000 mm 0,0 UV-I 0 W/m² 3,0 °C 8,3 °C 0,0 km/h (0 Bft)
02.04.2018 20:54 8,3 °C 69 % 1008,1 hPa 0,0 mm 0,0 km/h (0 Bft) O 86 ° 0 min 0,000 mm 0,0 UV-I 0 W/m² 3,0 °C 8,3 °C 0,0 km/h (0 Bft)
02.04.2018 20:55 8,3 °C 69 % 1008,1 hPa 0,0 mm 0,0 km/h (0 Bft) O 86 ° 0 min 0,000 mm 0,0 UV-I 0 W/m² 3,0 °C 8,3 °C 0,0 km/h (0 Bft)
02.04.2018 20:56 8,3 °C 69 % 1008,1 hPa 0,0 mm 0,0 km/h (0 Bft) O 86 ° 0 min 0,000 mm 0,0 UV-I 0 W/m² 3,0 °C 8,3 °C 0,0 km/h (0 Bft)
02.04.2018 20:57 8,3 °C 69 % 1008,0 hPa 0,0 mm 0,0 km/h (0 Bft) O 86 ° 0 min 0,000 mm 0,0 UV-I 0 W/m² 3,0 °C 8,3 °C 0,0 km/h (0 Bft)
02.04.2018 20:58 8,3 °C 68 % 1008,0 hPa 0,0 mm 0,0 km/h (0 Bft) O 86 ° 0 min 0,000 mm 0,0 UV-I 0 W/m² 2,7 °C 8,3 °C 0,0 km/h (0 Bft)
02.04.2018 20:59 8,3 °C 68 % 1008,0 hPa 0,0 mm 0,0 km/h (0 Bft) O 86 ° 0 min 0,000 mm 0,0 UV-I 0 W/m² 2,7 °C 8,3 °C 0,0 km/h (0 Bft)
02.04.2018 21:00 8,2 °C 69 % 1008,0 hPa 0,0 mm 0,0 km/h (0 Bft) O 86 ° 0 min 0,000 mm 0,0 UV-I 0 W/m² 2,9 °C 8,2 °C 0,0 km/h (0 Bft)
02.04.2018 21:01 8,1 °C 69 % 1008,1 hPa 0,0 mm 0,0 km/h (0 Bft) O 86 ° 0 min 0,025 mm 0,0 UV-I 0 W/m² 2,8 °C 8,1 °C 0,0 km/h (0 Bft)
02.04.2018 21:02 8,0 °C 70 % 1008,0 hPa 0,0 mm 0,0 km/h (0 Bft) O 86 ° 0 min 0,000 mm 0,0 UV-I 0 W/m² 2,9 °C 8,0 °C 0,0 km/h (0 Bft)
02.04.2018 21:03 7,9 °C 70 % 1008,0 hPa 0,0 mm 0,0 km/h (0 Bft) O 86 ° 0 min 0,000 mm 0,0 UV-I 0 W/m² 2,8 °C 7,9 °C 0,0 km/h (0 Bft)
02.04.2018 21:04 7,9 °C 70 % 1008,0 hPa 0,0 mm 0,0 km/h (0 Bft) O 86 ° 0 min 0,000 mm 0,0 UV-I 0 W/m² 2,8 °C 7,9 °C 0,0 km/h (0 Bft)
02.04.2018 21:05 7,9 °C 70 % 1008,0 hPa 0,0 mm 0,0 km/h (0 Bft) O 86 ° 0 min 0,000 mm 0,0 UV-I 0 W/m² 2,8 °C 7,9 °C 0,0 km/h (0 Bft)
02.04.2018 21:06 7,7 °C 72 % 1008,0 hPa 0,0 mm 0,0 km/h (0 Bft) O 86 ° 0 min 0,000 mm 0,0 UV-I 0 W/m² 3,0 °C 7,7 °C 0,0 km/h (0 Bft)
02.04.2018 21:07 7,6 °C 72 % 1008,0 hPa 0,0 mm 0,0 km/h (0 Bft) O 86 ° 0 min 0,000 mm 0,0 UV-I 0 W/m² 2,9 °C 7,6 °C 0,0 km/h (0 Bft)
02.04.2018 21:08 7,5 °C 72 % 1008,0 hPa 0,0 mm 0,0 km/h (0 Bft) O 86 ° 0 min 0,000 mm 0,0 UV-I 0 W/m² 2,8 °C 7,5 °C 0,0 km/h (0 Bft)
02.04.2018 21:09 7,6 °C 71 % 1008,0 hPa 0,0 mm 0,0 km/h (0 Bft) O 86 ° 0 min 0,000 mm 0,0 UV-I 0 W/m² 2,7 °C 7,6 °C 0,0 km/h (0 Bft)
02.04.2018 21:10 7,7 °C 71 % 1007,9 hPa 0,0 mm 0,0 km/h (0 Bft) O 86 ° 0 min 0,000 mm 0,0 UV-I 0 W/m² 2,8 °C 7,7 °C 0,0 km/h (0 Bft)
02.04.2018 21:11 7,8 °C 70 % 1007,9 hPa 0,0 mm 0,0 km/h (0 Bft) O 86 ° 0 min 0,000 mm 0,0 UV-I 0 W/m² 2,7 °C 7,8 °C 0,0 km/h (0 Bft)
02.04.2018 21:12 7,9 °C 70 % 1007,9 hPa 0,0 mm 0,9 km/h (0 Bft) O 86 ° 0 min 0,000 mm 0,0 UV-I 0 W/m² 2,8 °C 7,9 °C 1,6 km/h (1 Bft)
02.04.2018 21:13 8,1 °C 69 % 1007,8 hPa 0,0 mm 1,7 km/h (1 Bft) O 86 ° 0 min 0,000 mm 0,0 UV-I 0 W/m² 2,8 °C 8,1 °C 3,2 km/h (1 Bft)
02.04.2018 21:14 8,2 °C 69 % 1007,8 hPa 0,0 mm 2,5 km/h (1 Bft) O 86 ° 0 min 0,000 mm 0,0 UV-I 0 W/m² 2,9 °C 8,2 °C 4,8 km/h (1 Bft)
02.04.2018 21:15 8,2 °C 69 % 1007,9 hPa 0,0 mm 0,3 km/h (0 Bft) O 91 ° 0 min 0,000 mm 0,0 UV-I 0 W/m² 2,9 °C 8,2 °C 1,6 km/h (1 Bft)
02.04.2018 21:16 8,2 °C 68 % 1007,9 hPa 0,0 mm 2,8 km/h (1 Bft) O 91 ° 0 min 0,000 mm 0,0 UV-I 0 W/m² 2,7 °C 8,2 °C 3,2 km/h (1 Bft)
02.04.2018 21:17 8,2 °C 68 % 1007,9 hPa 0,0 mm 0,5 km/h (0 Bft) O 91 ° 0 min 0,000 mm 0,0 UV-I 0 W/m² 2,7 °C 8,2 °C 1,6 km/h (1 Bft)
02.04.2018 21:18 8,2 °C 68 % 1007,9 hPa 0,0 mm 0,4 km/h (0 Bft) O 91 ° 0 min 0,000 mm 0,0 UV-I 0 W/m² 2,7 °C 8,2 °C 1,6 km/h (1 Bft)
02.04.2018 21:19 8,2 °C 70 % 1008,0 hPa 0,0 mm 0,3 km/h (0 Bft) S-SO 154 ° 0 min 0,000 mm 0,0 UV-I 0 W/m² 3,1 °C 8,2 °C 3,2 km/h (1 Bft)
02.04.2018 21:20 8,2 °C 68 % 1007,9 hPa 0,0 mm 2,5 km/h (1 Bft) S 190 ° 0 min 0,000 mm 0,0 UV-I 0 W/m² 2,7 °C 8,2 °C 4,8 km/h (1 Bft)
02.04.2018 21:21 8,3 °C 68 % 1008,0 hPa 0,0 mm 0,6 km/h (0 Bft) S 190 ° 0 min 0,000 mm 0,0 UV-I 0 W/m² 2,7 °C 8,3 °C 1,6 km/h (1 Bft)
02.04.2018 21:22 8,3 °C 68 % 1008,0 hPa 0,0 mm 0,5 km/h (0 Bft) O-SO 123 ° 0 min 0,000 mm 0,0 UV-I 0 W/m² 2,7 °C 8,3 °C 3,2 km/h (1 Bft)
02.04.2018 21:23 8,3 °C 69 % 1008,0 hPa 0,0 mm 1,0 km/h (0 Bft) O-SO 123 ° 0 min 0,000 mm 0,0 UV-I 0 W/m² 3,0 °C 8,3 °C 3,2 km/h (1 Bft)
02.04.2018 21:24 8,3 °C 68 % 1008,0 hPa 0,0 mm 0,0 km/h (0 Bft) O-SO 123 ° 0 min 0,000 mm 0,0 UV-I 0 W/m² 2,7 °C 8,3 °C 0,0 km/h (0 Bft)
02.04.2018 21:25 8,2 °C 69 % 1008,0 hPa 0,0 mm 0,0 km/h (0 Bft) O-SO 123 ° 0 min 0,000 mm 0,0 UV-I 0 W/m² 2,9 °C 8,2 °C 0,0 km/h (0 Bft)
02.04.2018 21:26 8,2 °C 69 % 1008,0 hPa 0,0 mm 0,8 km/h (0 Bft) O-SO 123 ° 0 min 0,000 mm 0,0 UV-I 0 W/m² 2,9 °C 8,2 °C 1,6 km/h (1 Bft)
02.04.2018 21:27 8,2 °C 68 % 1008,0 hPa 0,0 mm 0,1 km/h (0 Bft) O-SO 123 ° 0 min 0,000 mm 0,0 UV-I 0 W/m² 2,7 °C 8,2 °C 1,6 km/h (1 Bft)
02.04.2018 21:28 8,1 °C 70 % 1007,9 hPa 0,0 mm 0,0 km/h (0 Bft) O-SO 123 ° 0 min 0,000 mm 0,0 UV-I 0 W/m² 3,0 °C 8,1 °C 0,0 km/h (0 Bft)
02.04.2018 21:29 8,1 °C 70 % 1008,0 hPa 0,0 mm 0,0 km/h (0 Bft) O-SO 123 ° 0 min 0,000 mm 0,0 UV-I 0 W/m² 3,0 °C 8,1 °C 0,0 km/h (0 Bft)
02.04.2018 21:30 8,1 °C 69 % 1008,0 hPa 0,0 mm 0,5 km/h (0 Bft) O-SO 123 ° 0 min 0,000 mm 0,0 UV-I 0 W/m² 2,8 °C 8,1 °C 3,2 km/h (1 Bft)
02.04.2018 21:31 8,0 °C 70 % 1007,9 hPa 0,0 mm 1,5 km/h (1 Bft) O-SO 116 ° 0 min 0,000 mm 0,0 UV-I 0 W/m² 2,9 °C 8,0 °C 3,2 km/h (1 Bft)
02.04.2018 21:32 7,9 °C 71 % 1008,0 hPa 0,0 mm 0,0 km/h (0 Bft) O-SO 116 ° 0 min 0,000 mm 0,0 UV-I 0 W/m² 3,0 °C 7,9 °C 0,0 km/h (0 Bft)
02.04.2018 21:33 7,7 °C 73 % 1008,0 hPa 0,0 mm 0,0 km/h (0 Bft) O-SO 116 ° 0 min 0,000 mm 0,0 UV-I 0 W/m² 3,2 °C 7,7 °C 0,0 km/h (0 Bft)
02.04.2018 21:34 7,5 °C 74 % 1007,9 hPa 0,0 mm 0,3 km/h (0 Bft) O-SO 115 ° 0 min 0,000 mm 0,0 UV-I 0 W/m² 3,2 °C 7,5 °C 3,2 km/h (1 Bft)
02.04.2018 21:35 7,3 °C 74 % 1008,0 hPa 0,0 mm 1,1 km/h (1 Bft) O-SO 102 ° 0 min 0,000 mm 0,0 UV-I 0 W/m² 3,0 °C 7,3 °C 3,2 km/h (1 Bft)
02.04.2018 21:36 7,2 °C 75 % 1007,9 hPa 0,0 mm 0,3 km/h (0 Bft) O-SO 102 ° 0 min 0,000 mm 0,0 UV-I 0 W/m² 3,1 °C 7,2 °C 1,6 km/h (1 Bft)
02.04.2018 21:37 7,1 °C 75 % 1007,9 hPa 0,0 mm 0,0 km/h (0 Bft) O-SO 102 ° 0 min 0,000 mm 0,0 UV-I 0 W/m² 3,0 °C 7,1 °C 0,0 km/h (0 Bft)
02.04.2018 21:38 7,0 °C 76 % 1007,9 hPa 0,0 mm 0,0 km/h (0 Bft) O-SO 102 ° 0 min 0,000 mm 0,0 UV-I 0 W/m² 3,1 °C 7,0 °C 0,0 km/h (0 Bft)
02.04.2018 21:39 6,9 °C 76 % 1007,8 hPa 0,0 mm 0,0 km/h (0 Bft) O-SO 102 ° 0 min 0,000 mm 0,0 UV-I 0 W/m² 3,0 °C 6,9 °C 0,0 km/h (0 Bft)
02.04.2018 21:40 6,8 °C 76 % 1007,9 hPa 0,0 mm 0,0 km/h (0 Bft) O-SO 102 ° 0 min 0,000 mm 0,0 UV-I 0 W/m² 2,9 °C 6,8 °C 0,0 km/h (0 Bft)
02.04.2018 21:41 6,8 °C 76 % 1007,8 hPa 0,0 mm 1,0 km/h (0 Bft) O-SO 102 ° 0 min 0,000 mm 0,0 UV-I 0 W/m² 2,9 °C 6,8 °C 1,6 km/h (1 Bft)
02.04.2018 21:42 6,9 °C 75 % 1007,8 hPa 0,0 mm 0,0 km/h (0 Bft) O-SO 102 ° 0 min 0,000 mm 0,0 UV-I 0 W/m² 2,8 °C 6,9 °C 0,0 km/h (0 Bft)
02.04.2018 21:43 6,9 °C 74 % 1007,9 hPa 0,0 mm 0,0 km/h (0 Bft) O-SO 102 ° 0 min 0,000 mm 0,0 UV-I 0 W/m² 2,6 °C 6,9 °C 0,0 km/h (0 Bft)
02.04.2018 21:44 6,9 °C 76 % 1007,8 hPa 0,0 mm 0,0 km/h (0 Bft) O-SO 102 ° 0 min 0,000 mm 0,0 UV-I 0 W/m² 3,0 °C 6,9 °C 0,0 km/h (0 Bft)
02.04.2018 21:45 6,8 °C 77 % 1007,8 hPa 0,0 mm 0,0 km/h (0 Bft) O-SO 102 ° 0 min 0,000 mm 0,0 UV-I 0 W/m² 3,1 °C 6,8 °C 0,0 km/h (0 Bft)
02.04.2018 21:46 6,8 °C 77 % 1007,8 hPa 0,0 mm 0,0 km/h (0 Bft) O-SO 102 ° 0 min 0,000 mm 0,0 UV-I 0 W/m² 3,1 °C 6,8 °C 0,0 km/h (0 Bft)
02.04.2018 21:47 6,8 °C 77 % 1007,8 hPa 0,0 mm 0,0 km/h (0 Bft) O-SO 102 ° 0 min 0,000 mm 0,0 UV-I 0 W/m² 3,1 °C 6,8 °C 0,0 km/h (0 Bft)
02.04.2018 21:48 6,9 °C 76 % 1007,7 hPa 0,0 mm 0,0 km/h (0 Bft) O-SO 102 ° 0 min 0,000 mm 0,0 UV-I 0 W/m² 3,0 °C 6,9 °C 0,0 km/h (0 Bft)
02.04.2018 21:49 7,0 °C 74 % 1007,7 hPa 0,0 mm 0,6 km/h (0 Bft) O-SO 102 ° 0 min 0,000 mm 0,0 UV-I 0 W/m² 2,7 °C 7,0 °C 1,6 km/h (1 Bft)
02.04.2018 21:50 7,1 °C 74 % 1007,7 hPa 0,0 mm 1,1 km/h (1 Bft) O-SO 102 ° 0 min 0,000 mm 0,0 UV-I 0 W/m² 2,8 °C 7,1 °C 1,6 km/h (1 Bft)
02.04.2018 21:51 7,2 °C 73 % 1007,7 hPa 0,0 mm 3,0 km/h (1 Bft) O-SO 105 ° 0 min 0,000 mm 0,0 UV-I 0 W/m² 2,7 °C 7,2 °C 4,8 km/h (1 Bft)
02.04.2018 21:52 7,3 °C 72 % 1007,7 hPa 0,0 mm 1,0 km/h (0 Bft) O-SO 105 ° 0 min 0,000 mm 0,0 UV-I 0 W/m² 2,6 °C 7,3 °C 3,2 km/h (1 Bft)
02.04.2018 21:53 7,6 °C 71 % 1007,6 hPa 0,0 mm 0,1 km/h (0 Bft) O-SO 105 ° 0 min 0,000 mm 0,0 UV-I 0 W/m² 2,7 °C 7,6 °C 1,6 km/h (1 Bft)
02.04.2018 21:54 7,6 °C 71 % 1007,6 hPa 0,0 mm 0,0 km/h (0 Bft) O-SO 105 ° 0 min 0,000 mm 0,0 UV-I 0 W/m² 2,7 °C 7,6 °C 0,0 km/h (0 Bft)
02.04.2018 21:55 7,5 °C 72 % 1007,7 hPa 0,0 mm 0,0 km/h (0 Bft) O-SO 105 ° 0 min 0,000 mm 0,0 UV-I 0 W/m² 2,8 °C 7,5 °C 0,0 km/h (0 Bft)
02.04.2018 21:56 7,4 °C 74 % 1007,6 hPa 0,0 mm 0,0 km/h (0 Bft) O-SO 105 ° 0 min 0,000 mm 0,0 UV-I 0 W/m² 3,1 °C 7,4 °C 0,0 km/h (0 Bft)
02.04.2018 21:57 7,3 °C 73 % 1007,7 hPa 0,0 mm 0,0 km/h (0 Bft) O-SO 105 ° 0 min 0,000 mm 0,0 UV-I 0 W/m² 2,8 °C 7,3 °C 0,0 km/h (0 Bft)
02.04.2018 21:58 7,3 °C 73 % 1007,6 hPa 0,0 mm 0,0 km/h (0 Bft) O-SO 105 ° 0 min 0,000 mm 0,0 UV-I 0 W/m² 2,8 °C 7,3 °C 0,0 km/h (0 Bft)
02.04.2018 21:59 7,3 °C 73 % 1007,7 hPa 0,0 mm 0,0 km/h (0 Bft) O-SO 105 ° 0 min 0,000 mm 0,0 UV-I 0 W/m² 2,8 °C 7,3 °C 0,0 km/h (0 Bft)
02.04.2018 22:00 7,4 °C 72 % 1007,6 hPa 0,0 mm 0,0 km/h (0 Bft) O-SO 105 ° 0 min 0,026 mm 0,0 UV-I 0 W/m² 2,7 °C 7,4 °C 0,0 km/h (0 Bft)
02.04.2018 22:01 7,4 °C 71 % 1007,7 hPa 0,0 mm 0,0 km/h (0 Bft) O-SO 105 ° 0 min 0,000 mm 0,0 UV-I 0 W/m² 2,5 °C 7,4 °C 0,0 km/h (0 Bft)
02.04.2018 22:02 7,6 °C 70 % 1007,7 hPa 0,0 mm 0,0 km/h (0 Bft) O-SO 105 ° 0 min 0,000 mm 0,0 UV-I 0 W/m² 2,5 °C 7,6 °C 0,0 km/h (0 Bft)
02.04.2018 22:03 7,8 °C 69 % 1007,7 hPa 0,0 mm 2,2 km/h (1 Bft) O-SO 105 ° 0 min 0,000 mm 0,0 UV-I 0 W/m² 2,5 °C 7,8 °C 3,2 km/h (1 Bft)
02.04.2018 22:04 7,8 °C 69 % 1007,7 hPa 0,0 mm 0,1 km/h (0 Bft) O-SO 105 ° 0 min 0,000 mm 0,0 UV-I 0 W/m² 2,5 °C 7,8 °C 1,6 km/h (1 Bft)
02.04.2018 22:05 7,9 °C 69 % 1007,7 hPa 0,0 mm 2,0 km/h (1 Bft) O-SO 107 ° 0 min 0,000 mm 0,0 UV-I 0 W/m² 2,6 °C 7,9 °C 4,8 km/h (1 Bft)
02.04.2018 22:06 8,0 °C 69 % 1007,7 hPa 0,0 mm 1,1 km/h (1 Bft) O-SO 107 ° 0 min 0,000 mm 0,0 UV-I 0 W/m² 2,7 °C 8,0 °C 3,2 km/h (1 Bft)
02.04.2018 22:07 8,0 °C 69 % 1007,7 hPa 0,0 mm 0,0 km/h (0 Bft) O-SO 107 ° 0 min 0,000 mm 0,0 UV-I 0 W/m² 2,7 °C 8,0 °C 0,0 km/h (0 Bft)
02.04.2018 22:08 8,0 °C 69 % 1007,7 hPa 0,0 mm 0,0 km/h (0 Bft) O-SO 107 ° 0 min 0,000 mm 0,0 UV-I 0 W/m² 2,7 °C 8,0 °C 0,0 km/h (0 Bft)
02.04.2018 22:09 8,1 °C 69 % 1007,6 hPa 0,0 mm 0,0 km/h (0 Bft) O-SO 107 ° 0 min 0,000 mm 0,0 UV-I 0 W/m² 2,8 °C 8,1 °C 0,0 km/h (0 Bft)
02.04.2018 22:10 8,0 °C 69 % 1007,6 hPa 0,0 mm 0,0 km/h (0 Bft) O-SO 107 ° 0 min 0,000 mm 0,0 UV-I 0 W/m² 2,7 °C 8,0 °C 0,0 km/h (0 Bft)
02.04.2018 22:11 7,9 °C 70 % 1007,6 hPa 0,0 mm 0,0 km/h (0 Bft) O-SO 107 ° 0 min 0,000 mm 0,0 UV-I 0 W/m² 2,8 °C 7,9 °C 0,0 km/h (0 Bft)
02.04.2018 22:12 7,8 °C 72 % 1007,6 hPa 0,0 mm 0,0 km/h (0 Bft) O-SO 107 ° 0 min 0,000 mm 0,0 UV-I 0 W/m² 3,1 °C 7,8 °C 0,0 km/h (0 Bft)
02.04.2018 22:13 7,6 °C 74 % 1007,6 hPa 0,0 mm 0,0 km/h (0 Bft) O-SO 107 ° 0 min 0,000 mm 0,0 UV-I 0 W/m² 3,3 °C 7,6 °C 0,0 km/h (0 Bft)
02.04.2018 22:14 7,4 °C 75 % 1007,6 hPa 0,0 mm 0,0 km/h (0 Bft) O-SO 107 ° 0 min 0,000 mm 0,0 UV-I 0 W/m² 3,3 °C 7,4 °C 0,0 km/h (0 Bft)
02.04.2018 22:15 7,3 °C 75 % 1007,5 hPa 0,0 mm 0,0 km/h (0 Bft) O-SO 107 ° 0 min 0,000 mm 0,0 UV-I 0 W/m² 3,2 °C 7,3 °C 0,0 km/h (0 Bft)
02.04.2018 22:16 7,1 °C 75 % 1007,5 hPa 0,0 mm 0,0 km/h (0 Bft) O-SO 107 ° 0 min 0,000 mm 0,0 UV-I 0 W/m² 3,0 °C 7,1 °C 0,0 km/h (0 Bft)
02.04.2018 22:17 7,0 °C 76 % 1007,5 hPa 0,0 mm 0,0 km/h (0 Bft) O-SO 107 ° 0 min 0,000 mm 0,0 UV-I 0 W/m² 3,1 °C 7,0 °C 0,0 km/h (0 Bft)
02.04.2018 22:18 6,9 °C 76 % 1007,6 hPa 0,0 mm 0,0 km/h (0 Bft) O-SO 107 ° 0 min 0,000 mm 0,0 UV-I 0 W/m² 3,0 °C 6,9 °C 0,0 km/h (0 Bft)
02.04.2018 22:19 6,9 °C 77 % 1007,6 hPa 0,0 mm 0,0 km/h (0 Bft) O-SO 107 ° 0 min 0,000 mm 0,0 UV-I 0 W/m² 3,2 °C 6,9 °C 0,0 km/h (0 Bft)
02.04.2018 22:20 6,8 °C 77 % 1007,5 hPa 0,0 mm 0,0 km/h (0 Bft) O-SO 107 ° 0 min 0,000 mm 0,0 UV-I 0 W/m² 3,1 °C 6,8 °C 0,0 km/h (0 Bft)
02.04.2018 22:21 6,8 °C 77 % 1007,6 hPa 0,0 mm 0,0 km/h (0 Bft) O-SO 107 ° 0 min 0,000 mm 0,0 UV-I 0 W/m² 3,1 °C 6,8 °C 0,0 km/h (0 Bft)
02.04.2018 22:22 6,8 °C 77 % 1007,5 hPa 0,0 mm 0,0 km/h (0 Bft) O-SO 107 ° 0 min 0,000 mm 0,0 UV-I 0 W/m² 3,1 °C 6,8 °C 0,0 km/h (0 Bft)
02.04.2018 22:23 6,8 °C 76 % 1007,5 hPa 0,0 mm 0,0 km/h (0 Bft) O-SO 107 ° 0 min 0,000 mm 0,0 UV-I 0 W/m² 2,9 °C 6,8 °C 0,0 km/h (0 Bft)
02.04.2018 22:24 6,8 °C 76 % 1007,5 hPa 0,0 mm 0,7 km/h (0 Bft) O-SO 107 ° 0 min 0,000 mm 0,0 UV-I 0 W/m² 2,9 °C 6,8 °C 3,2 km/h (1 Bft)
02.04.2018 22:25 6,9 °C 74 % 1007,5 hPa 0,0 mm 2,2 km/h (1 Bft) O-SO 107 ° 0 min 0,000 mm 0,0 UV-I 0 W/m² 2,6 °C 6,9 °C 4,8 km/h (1 Bft)
02.04.2018 22:26 7,0 °C 74 % 1007,5 hPa 0,0 mm 0,3 km/h (0 Bft) O-SO 107 ° 0 min 0,000 mm 0,0 UV-I 0 W/m² 2,7 °C 7,0 °C 3,2 km/h (1 Bft)
02.04.2018 22:27 7,1 °C 73 % 1007,5 hPa 0,0 mm 0,9 km/h (0 Bft) O-SO 107 ° 0 min 0,000 mm 0,0 UV-I 0 W/m² 2,6 °C 7,1 °C 3,2 km/h (1 Bft)
02.04.2018 22:28 7,2 °C 72 % 1007,5 hPa 0,0 mm 0,0 km/h (0 Bft) O-SO 107 ° 0 min 0,000 mm 0,0 UV-I 0 W/m² 2,5 °C 7,2 °C 0,0 km/h (0 Bft)
02.04.2018 22:29 7,3 °C 72 % 1007,5 hPa 0,0 mm 0,0 km/h (0 Bft) O-SO 107 ° 0 min 0,000 mm 0,0 UV-I 0 W/m² 2,6 °C 7,3 °C 0,0 km/h (0 Bft)
02.04.2018 22:30 7,2 °C 71 % 1007,4 hPa 0,0 mm 0,0 km/h (0 Bft) O-SO 107 ° 0 min 0,000 mm 0,0 UV-I 0 W/m² 2,3 °C 7,2 °C 0,0 km/h (0 Bft)
02.04.2018 22:31 7,0 °C 73 % 1007,5 hPa 0,0 mm 0,0 km/h (0 Bft) O-SO 107 ° 0 min 0,000 mm 0,0 UV-I 0 W/m² 2,5 °C 7,0 °C 0,0 km/h (0 Bft)
02.04.2018 22:32 6,8 °C 74 % 1007,4 hPa 0,0 mm 0,0 km/h (0 Bft) O-SO 107 ° 0 min 0,000 mm 0,0 UV-I 0 W/m² 2,5 °C 6,8 °C 0,0 km/h (0 Bft)
02.04.2018 22:33 6,7 °C 75 % 1007,5 hPa 0,0 mm 0,0 km/h (0 Bft) O-SO 107 ° 0 min 0,000 mm 0,0 UV-I 0 W/m² 2,6 °C 6,7 °C 0,0 km/h (0 Bft)
02.04.2018 22:34 6,6 °C 75 % 1007,4 hPa 0,0 mm 0,0 km/h (0 Bft) O-SO 107 ° 0 min 0,000 mm 0,0 UV-I 0 W/m² 2,5 °C 6,6 °C 0,0 km/h (0 Bft)
02.04.2018 22:35 6,6 °C 76 % 1007,4 hPa 0,0 mm 0,0 km/h (0 Bft) O-SO 107 ° 0 min 0,000 mm 0,0 UV-I 0 W/m² 2,7 °C 6,6 °C 0,0 km/h (0 Bft)
02.04.2018 22:36 6,5 °C 76 % 1007,5 hPa 0,0 mm 0,0 km/h (0 Bft) O-SO 107 ° 0 min 0,000 mm 0,0 UV-I 0 W/m² 2,6 °C 6,5 °C 0,0 km/h (0 Bft)
02.04.2018 22:37 6,5 °C 77 % 1007,4 hPa 0,0 mm 0,0 km/h (0 Bft) O-SO 107 ° 0 min 0,000 mm 0,0 UV-I 0 W/m² 2,8 °C 6,5 °C 0,0 km/h (0 Bft)
02.04.2018 22:38 6,4 °C 77 % 1007,4 hPa 0,0 mm 0,0 km/h (0 Bft) O-SO 107 ° 0 min 0,000 mm 0,0 UV-I 0 W/m² 2,7 °C 6,4 °C 0,0 km/h (0 Bft)
02.04.2018 22:39 6,3 °C 76 % 1007,4 hPa 0,0 mm 0,0 km/h (0 Bft) O-SO 107 ° 0 min 0,000 mm 0,0 UV-I 0 W/m² 2,4 °C 6,3 °C 0,0 km/h (0 Bft)
02.04.2018 22:40 6,2 °C 77 % 1007,3 hPa 0,0 mm 0,0 km/h (0 Bft) O-SO 107 ° 0 min 0,000 mm 0,0 UV-I 0 W/m² 2,5 °C 6,2 °C 0,0 km/h (0 Bft)
02.04.2018 22:41 6,1 °C 77 % 1007,3 hPa 0,0 mm 0,0 km/h (0 Bft) O-SO 107 ° 0 min 0,000 mm 0,0 UV-I 0 W/m² 2,4 °C 6,1 °C 0,0 km/h (0 Bft)
02.04.2018 22:42 5,9 °C 78 % 1007,3 hPa 0,0 mm 0,0 km/h (0 Bft) O-SO 107 ° 0 min 0,000 mm 0,0 UV-I 0 W/m² 2,4 °C 5,9 °C 0,0 km/h (0 Bft)
02.04.2018 22:43 5,8 °C 79 % 1007,3 hPa 0,0 mm 0,0 km/h (0 Bft) O-SO 107 ° 0 min 0,000 mm 0,0 UV-I 0 W/m² 2,4 °C 5,8 °C 0,0 km/h (0 Bft)
02.04.2018 22:44 5,8 °C 80 % 1007,3 hPa 0,0 mm 0,0 km/h (0 Bft) O-SO 107 ° 0 min 0,000 mm 0,0 UV-I 0 W/m² 2,6 °C 5,8 °C 0,0 km/h (0 Bft)
02.04.2018 22:45 5,9 °C 80 % 1007,3 hPa 0,0 mm 0,0 km/h (0 Bft) O-SO 107 ° 0 min 0,000 mm 0,0 UV-I 0 W/m² 2,7 °C 5,9 °C 0,0 km/h (0 Bft)
02.04.2018 22:46 5,9 °C 80 % 1007,3 hPa 0,0 mm 0,0 km/h (0 Bft) O-SO 107 ° 0 min 0,000 mm 0,0 UV-I 0 W/m² 2,7 °C 5,9 °C 0,0 km/h (0 Bft)
02.04.2018 22:47 5,9 °C 80 % 1007,3 hPa 0,0 mm 0,0 km/h (0 Bft) O-SO 107 ° 0 min 0,000 mm 0,0 UV-I 0 W/m² 2,7 °C 5,9 °C 0,0 km/h (0 Bft)
02.04.2018 22:48 5,9 °C 80 % 1007,3 hPa 0,0 mm 0,0 km/h (0 Bft) O-SO 107 ° 0 min 0,000 mm 0,0 UV-I 0 W/m² 2,7 °C 5,9 °C 0,0 km/h (0 Bft)
02.04.2018 22:49 5,9 °C 80 % 1007,3 hPa 0,0 mm 0,0 km/h (0 Bft) O-SO 107 ° 0 min 0,000 mm 0,0 UV-I 0 W/m² 2,7 °C 5,9 °C 0,0 km/h (0 Bft)
02.04.2018 22:50 5,9 °C 80 % 1007,3 hPa 0,0 mm 0,0 km/h (0 Bft) O-SO 107 ° 0 min 0,000 mm 0,0 UV-I 0 W/m² 2,7 °C 5,9 °C 0,0 km/h (0 Bft)
02.04.2018 22:51 5,9 °C 80 % 1007,3 hPa 0,0 mm 0,0 km/h (0 Bft) O-SO 107 ° 0 min 0,000 mm 0,0 UV-I 0 W/m² 2,7 °C 5,9 °C 0,0 km/h (0 Bft)
02.04.2018 22:52 5,9 °C 80 % 1007,4 hPa 0,0 mm 0,0 km/h (0 Bft) O-SO 107 ° 0 min 0,000 mm 0,0 UV-I 0 W/m² 2,7 °C 5,9 °C 0,0 km/h (0 Bft)
02.04.2018 22:53 5,9 °C 79 % 1007,3 hPa 0,0 mm 0,0 km/h (0 Bft) O-SO 107 ° 0 min 0,000 mm 0,0 UV-I 0 W/m² 2,5 °C 5,9 °C 0,0 km/h (0 Bft)
02.04.2018 22:54 5,9 °C 79 % 1007,3 hPa 0,0 mm 0,0 km/h (0 Bft) O-SO 107 ° 0 min 0,000 mm 0,0 UV-I 0 W/m² 2,5 °C 5,9 °C 0,0 km/h (0 Bft)
02.04.2018 22:55 6,1 °C 78 % 1007,3 hPa 0,0 mm 0,0 km/h (0 Bft) O-SO 107 ° 0 min 0,000 mm 0,0 UV-I 0 W/m² 2,6 °C 6,1 °C 0,0 km/h (0 Bft)
02.04.2018 22:56 6,1 °C 78 % 1007,3 hPa 0,0 mm 0,0 km/h (0 Bft) O-SO 107 ° 0 min 0,000 mm 0,0 UV-I 0 W/m² 2,6 °C 6,1 °C 0,0 km/h (0 Bft)
02.04.2018 22:57 6,1 °C 78 % 1007,3 hPa 0,0 mm 0,0 km/h (0 Bft) O-SO 107 ° 0 min 0,000 mm 0,0 UV-I 0 W/m² 2,6 °C 6,1 °C 0,0 km/h (0 Bft)
02.04.2018 22:58 6,1 °C 78 % 1007,3 hPa 0,0 mm 0,0 km/h (0 Bft) O-SO 107 ° 0 min 0,000 mm 0,0 UV-I 0 W/m² 2,6 °C 6,1 °C 0,0 km/h (0 Bft)
02.04.2018 22:59 6,0 °C 78 % 1007,3 hPa 0,0 mm 0,0 km/h (0 Bft) O-SO 107 ° 0 min 0,000 mm 0,0 UV-I 0 W/m² 2,5 °C 6,0 °C 0,0 km/h (0 Bft)
02.04.2018 23:00 5,8 °C 77 % 1007,3 hPa 0,0 mm 0,0 km/h (0 Bft) O-SO 107 ° 0 min 0,000 mm 0,0 UV-I 0 W/m² 2,1 °C 5,8 °C 0,0 km/h (0 Bft)
02.04.2018 23:01 5,7 °C 77 % 1007,2 hPa 0,0 mm 0,0 km/h (0 Bft) O-SO 107 ° 0 min 0,025 mm 0,0 UV-I 0 W/m² 2,0 °C 5,7 °C 0,0 km/h (0 Bft)
02.04.2018 23:02 5,7 °C 78 % 1007,2 hPa 0,0 mm 0,0 km/h (0 Bft) O-SO 107 ° 0 min 0,000 mm 0,0 UV-I 0 W/m² 2,2 °C 5,7 °C 0,0 km/h (0 Bft)
02.04.2018 23:03 5,6 °C 79 % 1007,2 hPa 0,0 mm 0,0 km/h (0 Bft) O-SO 107 ° 0 min 0,000 mm 0,0 UV-I 0 W/m² 2,3 °C 5,6 °C 0,0 km/h (0 Bft)
02.04.2018 23:04 5,6 °C 79 % 1007,1 hPa 0,0 mm 0,0 km/h (0 Bft) O-SO 107 ° 0 min 0,000 mm 0,0 UV-I 0 W/m² 2,3 °C 5,6 °C 0,0 km/h (0 Bft)
02.04.2018 23:05 5,6 °C 79 % 1007,1 hPa 0,0 mm 0,0 km/h (0 Bft) O-SO 107 ° 0 min 0,000 mm 0,0 UV-I 0 W/m² 2,3 °C 5,6 °C 0,0 km/h (0 Bft)
02.04.2018 23:06 5,4 °C 79 % 1007,1 hPa 0,0 mm 0,0 km/h (0 Bft) O-SO 107 ° 0 min 0,000 mm 0,0 UV-I 0 W/m² 2,1 °C 5,4 °C 0,0 km/h (0 Bft)
02.04.2018 23:07 5,5 °C 78 % 1007,1 hPa 0,0 mm 0,0 km/h (0 Bft) O-SO 107 ° 0 min 0,000 mm 0,0 UV-I 0 W/m² 2,0 °C 5,5 °C 0,0 km/h (0 Bft)
02.04.2018 23:08 5,5 °C 78 % 1007,1 hPa 0,0 mm 0,0 km/h (0 Bft) O-SO 107 ° 0 min 0,000 mm 0,0 UV-I 0 W/m² 2,0 °C 5,5 °C 0,0 km/h (0 Bft)
02.04.2018 23:09 5,6 °C 78 % 1007,0 hPa 0,0 mm 0,0 km/h (0 Bft) O-SO 107 ° 0 min 0,000 mm 0,0 UV-I 0 W/m² 2,1 °C 5,6 °C 0,0 km/h (0 Bft)
02.04.2018 23:10 5,6 °C 78 % 1007,1 hPa 0,0 mm 0,0 km/h (0 Bft) O-SO 107 ° 0 min 0,000 mm 0,0 UV-I 0 W/m² 2,1 °C 5,6 °C 0,0 km/h (0 Bft)
02.04.2018 23:11 5,8 °C 78 % 1007,1 hPa 0,0 mm 0,0 km/h (0 Bft) O-SO 107 ° 0 min 0,000 mm 0,0 UV-I 0 W/m² 2,3 °C 5,8 °C 0,0 km/h (0 Bft)
02.04.2018 23:12 5,8 °C 77 % 1007,1 hPa 0,0 mm 0,0 km/h (0 Bft) O-SO 107 ° 0 min 0,000 mm 0,0 UV-I 0 W/m² 2,1 °C 5,8 °C 0,0 km/h (0 Bft)
02.04.2018 23:13 5,9 °C 76 % 1007,1 hPa 0,0 mm 0,0 km/h (0 Bft) O-SO 107 ° 0 min 0,000 mm 0,0 UV-I 0 W/m² 2,0 °C 5,9 °C 0,0 km/h (0 Bft)
02.04.2018 23:14 5,9 °C 76 % 1007,0 hPa 0,0 mm 0,0 km/h (0 Bft) O-SO 107 ° 0 min 0,000 mm 0,0 UV-I 0 W/m² 2,0 °C 5,9 °C 0,0 km/h (0 Bft)
02.04.2018 23:15 5,9 °C 76 % 1007,0 hPa 0,0 mm 0,0 km/h (0 Bft) O-SO 107 ° 0 min 0,000 mm 0,0 UV-I 0 W/m² 2,0 °C 5,9 °C 0,0 km/h (0 Bft)
02.04.2018 23:16 5,9 °C 75 % 1007,0 hPa 0,0 mm 0,0 km/h (0 Bft) O-SO 107 ° 0 min 0,000 mm 0,0 UV-I 0 W/m² 1,8 °C 5,9 °C 0,0 km/h (0 Bft)
02.04.2018 23:17 5,9 °C 75 % 1007,0 hPa 0,0 mm 0,0 km/h (0 Bft) O-SO 107 ° 0 min 0,000 mm 0,0 UV-I 0 W/m² 1,8 °C 5,9 °C 0,0 km/h (0 Bft)
02.04.2018 23:18 6,0 °C 76 % 1007,0 hPa 0,0 mm 0,0 km/h (0 Bft) O-SO 107 ° 0 min 0,000 mm 0,0 UV-I 0 W/m² 2,1 °C 6,0 °C 0,0 km/h (0 Bft)
02.04.2018 23:19 6,1 °C 75 % 1006,9 hPa 0,0 mm 0,0 km/h (0 Bft) O-SO 107 ° 0 min 0,000 mm 0,0 UV-I 0 W/m² 2,0 °C 6,1 °C 0,0 km/h (0 Bft)
02.04.2018 23:20 6,1 °C 74 % 1006,9 hPa 0,0 mm 0,0 km/h (0 Bft) O-SO 107 ° 0 min 0,000 mm 0,0 UV-I 0 W/m² 1,8 °C 6,1 °C 0,0 km/h (0 Bft)
02.04.2018 23:21 6,1 °C 74 % 1006,9 hPa 0,0 mm 0,0 km/h (0 Bft) O-SO 107 ° 0 min 0,000 mm 0,0 UV-I 0 W/m² 1,8 °C 6,1 °C 0,0 km/h (0 Bft)
02.04.2018 23:22 6,0 °C 74 % 1006,9 hPa 0,0 mm 0,0 km/h (0 Bft) O-SO 107 ° 0 min 0,000 mm 0,0 UV-I 0 W/m² 1,7 °C 6,0 °C 0,0 km/h (0 Bft)
02.04.2018 23:23 5,8 °C 73 % 1006,9 hPa 0,0 mm 0,0 km/h (0 Bft) O-SO 107 ° 0 min 0,000 mm 0,0 UV-I 0 W/m² 1,3 °C 5,8 °C 0,0 km/h (0 Bft)
02.04.2018 23:24 5,8 °C 74 % 1006,9 hPa 0,0 mm 0,0 km/h (0 Bft) O-SO 107 ° 0 min 0,000 mm 0,0 UV-I 0 W/m² 1,5 °C 5,8 °C 0,0 km/h (0 Bft)
02.04.2018 23:25 5,7 °C 75 % 1006,9 hPa 0,0 mm 0,0 km/h (0 Bft) O-SO 107 ° 0 min 0,000 mm 0,0 UV-I 0 W/m² 1,6 °C 5,7 °C 0,0 km/h (0 Bft)
02.04.2018 23:26 5,6 °C 76 % 1006,8 hPa 0,0 mm 0,0 km/h (0 Bft) O-SO 107 ° 0 min 0,000 mm 0,0 UV-I 0 W/m² 1,7 °C 5,6 °C 0,0 km/h (0 Bft)
02.04.2018 23:27 5,5 °C 76 % 1006,8 hPa 0,0 mm 0,0 km/h (0 Bft) O-SO 107 ° 0 min 0,000 mm 0,0 UV-I 0 W/m² 1,6 °C 5,5 °C 0,0 km/h (0 Bft)
02.04.2018 23:28 5,4 °C 76 % 1006,8 hPa 0,0 mm 0,0 km/h (0 Bft) O-SO 107 ° 0 min 0,000 mm 0,0 UV-I 0 W/m² 1,5 °C 5,4 °C 0,0 km/h (0 Bft)
02.04.2018 23:29 5,3 °C 76 % 1006,9 hPa 0,0 mm 0,0 km/h (0 Bft) O-SO 107 ° 0 min 0,000 mm 0,0 UV-I 0 W/m² 1,4 °C 5,3 °C 0,0 km/h (0 Bft)
02.04.2018 23:30 5,2 °C 76 % 1006,8 hPa 0,0 mm 0,0 km/h (0 Bft) O-SO 107 ° 0 min 0,000 mm 0,0 UV-I 0 W/m² 1,3 °C 5,2 °C 0,0 km/h (0 Bft)
02.04.2018 23:31 5,2 °C 77 % 1006,9 hPa 0,0 mm 0,0 km/h (0 Bft) O-SO 107 ° 0 min 0,000 mm 0,0 UV-I 0 W/m² 1,5 °C 5,2 °C 0,0 km/h (0 Bft)
02.04.2018 23:32 5,1 °C 77 % 1006,9 hPa 0,0 mm 0,0 km/h (0 Bft) O-SO 107 ° 0 min 0,000 mm 0,0 UV-I 0 W/m² 1,4 °C 5,1 °C 0,0 km/h (0 Bft)
02.04.2018 23:33 4,9 °C 77 % 1006,9 hPa 0,0 mm 0,0 km/h (0 Bft) O-SO 107 ° 0 min 0,000 mm 0,0 UV-I 0 W/m² 1,2 °C 4,9 °C 0,0 km/h (0 Bft)
02.04.2018 23:34 4,8 °C 78 % 1006,9 hPa 0,0 mm 0,0 km/h (0 Bft) O-SO 107 ° 0 min 0,000 mm 0,0 UV-I 0 W/m² 1,3 °C 4,8 °C 0,0 km/h (0 Bft)
02.04.2018 23:35 4,7 °C 78 % 1006,9 hPa 0,0 mm 0,0 km/h (0 Bft) O-SO 107 ° 0 min 0,000 mm 0,0 UV-I 0 W/m² 1,2 °C 4,7 °C 0,0 km/h (0 Bft)
02.04.2018 23:36 4,6 °C 79 % 1006,9 hPa 0,0 mm 0,0 km/h (0 Bft) O-SO 107 ° 0 min 0,000 mm 0,0 UV-I 0 W/m² 1,3 °C 4,6 °C 0,0 km/h (0 Bft)
02.04.2018 23:37 4,6 °C 79 % 1006,9 hPa 0,0 mm 0,0 km/h (0 Bft) O-SO 107 ° 0 min 0,000 mm 0,0 UV-I 0 W/m² 1,3 °C 4,6 °C 0,0 km/h (0 Bft)
02.04.2018 23:38 4,6 °C 79 % 1006,9 hPa 0,0 mm 0,0 km/h (0 Bft) O-SO 107 ° 0 min 0,000 mm 0,0 UV-I 0 W/m² 1,3 °C 4,6 °C 0,0 km/h (0 Bft)
02.04.2018 23:39 4,7 °C 79 % 1006,9 hPa 0,0 mm 0,0 km/h (0 Bft) O-SO 107 ° 0 min 0,000 mm 0,0 UV-I 0 W/m² 1,4 °C 4,7 °C 0,0 km/h (0 Bft)
02.04.2018 23:40 4,8 °C 80 % 1006,8 hPa 0,0 mm 0,0 km/h (0 Bft) O-SO 107 ° 0 min 0,000 mm 0,0 UV-I 0 W/m² 1,6 °C 4,8 °C 0,0 km/h (0 Bft)
02.04.2018 23:41 4,9 °C 79 % 1006,8 hPa 0,0 mm 0,0 km/h (0 Bft) O-SO 107 ° 0 min 0,000 mm 0,0 UV-I 0 W/m² 1,6 °C 4,9 °C 0,0 km/h (0 Bft)
02.04.2018 23:42 5,1 °C 79 % 1006,8 hPa 0,0 mm 0,0 km/h (0 Bft) O-SO 107 ° 0 min 0,000 mm 0,0 UV-I 0 W/m² 1,8 °C 5,1 °C 0,0 km/h (0 Bft)
02.04.2018 23:43 5,2 °C 78 % 1006,7 hPa 0,0 mm 0,0 km/h (0 Bft) O-SO 107 ° 0 min 0,000 mm 0,0 UV-I 0 W/m² 1,7 °C 5,2 °C 0,0 km/h (0 Bft)
02.04.2018 23:44 5,2 °C 77 % 1006,7 hPa 0,0 mm 0,0 km/h (0 Bft) O-SO 107 ° 0 min 0,000 mm 0,0 UV-I 0 W/m² 1,5 °C 5,2 °C 0,0 km/h (0 Bft)
02.04.2018 23:45 5,1 °C 78 % 1006,6 hPa 0,0 mm 0,0 km/h (0 Bft) O-SO 107 ° 0 min 0,000 mm 0,0 UV-I 0 W/m² 1,6 °C 5,1 °C 0,0 km/h (0 Bft)
02.04.2018 23:46 5,1 °C 78 % 1006,7 hPa 0,0 mm 0,0 km/h (0 Bft) O-SO 107 ° 0 min 0,000 mm 0,0 UV-I 0 W/m² 1,6 °C 5,1 °C 0,0 km/h (0 Bft)
02.04.2018 23:47 4,9 °C 79 % 1006,7 hPa 0,0 mm 0,0 km/h (0 Bft) O-SO 107 ° 0 min 0,000 mm 0,0 UV-I 0 W/m² 1,6 °C 4,9 °C 0,0 km/h (0 Bft)
02.04.2018 23:48 4,9 °C 79 % 1006,7 hPa 0,0 mm 0,0 km/h (0 Bft) O-SO 107 ° 0 min 0,000 mm 0,0 UV-I 0 W/m² 1,6 °C 4,9 °C 0,0 km/h (0 Bft)
02.04.2018 23:49 4,8 °C 79 % 1006,6 hPa 0,0 mm 0,0 km/h (0 Bft) O-SO 107 ° 0 min 0,000 mm 0,0 UV-I 0 W/m² 1,5 °C 4,8 °C 0,0 km/h (0 Bft)
02.04.2018 23:50 4,8 °C 79 % 1006,7 hPa 0,0 mm 0,0 km/h (0 Bft) O-SO 107 ° 0 min 0,000 mm 0,0 UV-I 0 W/m² 1,5 °C 4,8 °C 0,0 km/h (0 Bft)
02.04.2018 23:51 4,7 °C 79 % 1006,7 hPa 0,0 mm 0,0 km/h (0 Bft) O-SO 107 ° 0 min 0,000 mm 0,0 UV-I 0 W/m² 1,4 °C 4,7 °C 0,0 km/h (0 Bft)
02.04.2018 23:52 4,6 °C 79 % 1006,6 hPa 0,0 mm 0,0 km/h (0 Bft) O-SO 107 ° 0 min 0,000 mm 0,0 UV-I 0 W/m² 1,3 °C 4,6 °C 0,0 km/h (0 Bft)
02.04.2018 23:53 4,6 °C 80 % 1006,6 hPa 0,0 mm 0,0 km/h (0 Bft) O-SO 107 ° 0 min 0,000 mm 0,0 UV-I 0 W/m² 1,5 °C 4,6 °C 0,0 km/h (0 Bft)
02.04.2018 23:54 4,5 °C 80 % 1006,6 hPa 0,0 mm 0,0 km/h (0 Bft) O-SO 107 ° 0 min 0,000 mm 0,0 UV-I 0 W/m² 1,4 °C 4,5 °C 0,0 km/h (0 Bft)
02.04.2018 23:55 4,4 °C 80 % 1006,6 hPa 0,0 mm 0,0 km/h (0 Bft) O-SO 107 ° 0 min 0,000 mm 0,0 UV-I 0 W/m² 1,3 °C 4,4 °C 0,0 km/h (0 Bft)
02.04.2018 23:56 4,4 °C 80 % 1006,7 hPa 0,0 mm 0,0 km/h (0 Bft) O-SO 107 ° 0 min 0,000 mm 0,0 UV-I 0 W/m² 1,3 °C 4,4 °C 0,0 km/h (0 Bft)
02.04.2018 23:57 4,5 °C 80 % 1006,6 hPa 0,0 mm 0,0 km/h (0 Bft) O-SO 107 ° 0 min 0,000 mm 0,0 UV-I 0 W/m² 1,4 °C 4,5 °C 0,0 km/h (0 Bft)
02.04.2018 23:58 4,6 °C 80 % 1006,7 hPa 0,0 mm 0,0 km/h (0 Bft) O-SO 107 ° 0 min 0,000 mm 0,0 UV-I 0 W/m² 1,5 °C 4,6 °C 0,0 km/h (0 Bft)
02.04.2018 23:59 4,6 °C 79 % 1006,6 hPa 0,0 mm 0,0 km/h (0 Bft) O-SO 107 ° 0 min 0,000 mm 0,0 UV-I 0 W/m² 1,3 °C 4,6 °C 0,0 km/h (0 Bft)
_ Min-Zeit 07:02 15:13 23:59 - 23:59 - - - - - - 07:02 07:02 23:59
Minimum _ -2,9 °C 34 % 1006,6 hPa - 0,0 km/h (0 Bft) - - - - - - -4,2 °C -2,9 °C 0,0 km/h (0 Bft)
_ Max-Zeit 15:11 07:43 02:19 09:01 00:03 - - 16:36 15:00 14:40 14:26 20:16 15:11 00:03
Maximum _ 13,9 °C 92 % 1015,3 hPa 0,2 mm 17,6 km/h
W (3 Bft)
- - 1 min 0,406 mm 5,8 UV-I 958 W/m² 3,9 °C 13,9 °C 24,1 km/h
W (4 Bft)
Durchschnitt _ 5,5 °C 69 % 1011,7 hPa #0,2 mm 1,9 km/h (1 Bft) O-NO - #7:22 h #2,616 mm 2,9 UV-I 213 W/m² -0,4 °C 5,4 °C 3,2 km/h (1 Bft)